[[{"header":{"parameterUnit":"m.s-1","parameterCategory":1,"la1":30.6,"la2":28.766,"lo1":-90.7593,"lo2":-88.6598,"dy":0.0162,"dx":0.0183,"nx":116,"ny":114,"refTime":"2023-11-15T18:00:00:Z","depth":0,"parameterNumber":2,"parameterNumberName":"U-component_of_WINDS"},"data":[0.0,0.0,0.0,0.0,0.0,0.0,0.0,0.0,0.0,0.0,0.0,0.0,0.0,0.0,0.0,0.0,0.0,0.0,0.0,0.0,0.0,0.0,0.0,0.0,0.0,0.0,0.0,0.0,0.0,0.0,0.0,0.0,0.0,0.0,0.0,0.0,0.0,0.0,0.0,0.0,0.0,0.0,0.0,0.0,0.0,0.0,0.0,0.0,0.0,0.0,0.0,0.0,0.0,0.0,0.0,0.0,0.0,0.0,0.0,0.0,0.0,0.0,0.0,0.0,0.0,0.0,0.0,0.0,0.0,0.0,0.0,0.0,0.0,0.0,0.0,0.0,0.0,0.0,0.0,0.0,0.0,0.0,0.0,0.0,0.0,0.0,0.0,0.0,0.0,0.0,0.0,0.0,0.0,0.0,0.0,0.0,0.0,0.0,0.0,0.0,0.0,0.0,0.0,0.0,0.0,0.0,0.0,0.0,0.0,0.0,0.0,0.0,0.0,0.0,0.0,0.0,0.0,0.0,0.0,0.0,0.0,0.0,0.0,0.0,0.0,0.0,0.0,0.0,0.0,0.0,0.0,0.0,0.0,0.0,0.0,0.0,0.0,0.0,0.0,0.0,0.0,0.0,0.0,0.0,0.0,0.0,0.0,0.0,0.0,0.0,0.0,0.0,0.0,0.0,0.0,0.0,0.0,0.0,0.0,0.0,0.0,0.0,0.0,0.0,0.0,0.0,0.0,0.0,0.0,0.0,0.0,0.0,0.0,0.0,0.0,0.0,0.0,0.0,0.0,0.0,0.0,0.0,0.0,0.0,0.0,0.0,0.0,0.0,0.0,0.0,0.0,0.0,0.0,0.0,0.0,0.0,0.0,0.0,0.0,0.0,0.0,0.0,0.0,0.0,0.0,0.0,0.0,0.0,0.0,0.0,0.0,0.0,0.0,0.0,0.0,0.0,0.0,0.0,0.0,0.0,0.0,0.0,0.0,0.0,0.0,0.0,0.0,0.0,0.0,0.0,0.0,0.0,0.0,0.0,0.0,0.0,0.0,0.0,0.0,0.0,0.0,0.0,0.0,0.0,0.0,0.0,0.0,0.0,0.0,0.0,0.0,0.0,0.0,0.0,0.0,0.0,0.0,0.0,0.0,0.0,0.0,0.0,0.0,0.0,0.0,0.0,0.0,0.0,0.0,0.0,0.0,0.0,0.0,0.0,0.0,0.0,0.0,0.0,0.0,0.0,0.0,0.0,0.0,0.0,0.0,0.0,0.0,0.0,0.0,0.0,0.0,0.0,0.0,0.0,0.0,0.0,0.0,0.0,0.0,0.0,0.0,0.0,0.0,0.0,0.0,0.0,0.0,0.0,0.0,0.0,0.0,0.0,0.0,0.0,0.0,0.0,0.0,0.0,0.0,0.0,0.0,0.0,0.0,0.0,0.0,0.0,0.0,0.0,0.0,0.0,0.0,0.0,0.0,0.0,0.0,0.0,0.0,0.0,0.0,0.0,0.0,0.0,0.0,0.0,0.0,0.0,0.0,0.0,0.0,0.0,0.0,0.0,0.0,0.0,0.0,0.0,0.0,0.0,0.0,0.0,0.0,0.0,0.0,0.0,0.0,0.0,0.0,0.0,0.0,0.0,0.0,0.0,0.0,0.0,0.0,0.0,0.0,0.0,0.0,0.0,0.0,0.0,0.0,0.0,0.0,0.0,0.0,0.0,0.0,0.0,0.0,0.0,0.0,0.0,0.0,0.0,0.0,0.0,0.0,0.0,0.0,0.0,0.0,0.0,0.0,0.0,0.0,0.0,0.0,0.0,0.0,0.0,0.0,0.0,0.0,0.0,0.0,0.0,0.0,0.0,0.0,0.0,0.0,0.0,0.0,0.0,0.0,0.0,0.0,0.0,0.0,0.0,0.0,0.0,0.0,0.0,0.0,0.0,0.0,0.0,0.0,0.0,0.0,0.0,0.0,0.0,0.0,0.0,0.0,0.0,0.0,0.0,0.0,0.0,0.0,0.0,0.0,0.0,0.0,0.0,0.0,0.0,0.0,0.0,0.0,0.0,0.0,0.0,0.0,0.0,0.0,0.0,0.0,0.0,0.0,0.0,0.0,0.0,0.0,0.0,0.0,0.0,0.0,0.0,0.0,0.0,0.0,0.0,0.0,0.0,0.0,0.0,0.0,0.0,0.0,0.0,0.0,0.0,0.0,0.0,0.0,0.0,0.0,0.0,0.0,0.0,0.0,0.0,0.0,0.0,0.0,0.0,0.0,0.0,0.0,0.0,0.0,0.0,0.0,0.0,0.0,0.0,0.0,0.0,0.0,0.0,0.0,0.0,0.0,0.0,0.0,0.0,0.0,0.0,0.0,0.0,0.0,0.0,0.0,0.0,0.0,0.0,0.0,0.0,0.0,0.0,0.0,0.0,0.0,0.0,0.0,0.0,0.0,0.0,0.0,0.0,0.0,0.0,0.0,0.0,0.0,0.0,0.0,0.0,0.0,0.0,0.0,0.0,0.0,0.0,0.0,0.0,0.0,0.0,0.0,0.0,0.0,0.0,0.0,0.0,0.0,0.0,0.0,0.0,0.0,0.0,0.0,0.0,0.0,0.0,0.0,0.0,0.0,0.0,0.0,0.0,0.0,0.0,0.0,0.0,0.0,0.0,0.0,0.0,0.0,0.0,0.0,0.0,0.0,0.0,0.0,0.0,0.0,0.0,0.0,0.0,0.0,0.0,0.0,0.0,0.0,0.0,0.0,0.0,0.0,0.0,0.0,0.0,0.0,0.0,0.0,0.0,0.0,0.0,0.0,0.0,0.0,0.0,0.0,0.0,0.0,0.0,0.0,0.0,0.0,0.0,0.0,0.0,0.0,0.0,0.0,0.0,0.0,0.0,0.0,0.0,0.0,0.0,0.0,0.0,0.0,0.0,0.0,0.0,0.0,0.0,0.0,0.0,0.0,0.0,0.0,0.0,0.0,0.0,0.0,0.0,0.0,0.0,0.0,0.0,0.0,0.0,0.0,0.0,0.0,0.0,0.0,0.0,0.0,0.0,0.0,0.0,0.0,0.0,0.0,0.0,0.0,0.0,0.0,0.0,0.0,0.0,0.0,0.0,0.0,0.0,0.0,0.0,0.0,0.0,0.0,0.0,0.0,0.0,0.0,0.0,0.0,0.0,0.0,0.0,0.0,0.0,0.0,0.0,0.0,0.0,0.0,0.0,0.0,0.0,0.0,0.0,0.0,0.0,0.0,0.0,0.0,0.0,0.0,0.0,0.0,0.0,0.0,0.0,0.0,0.0,0.0,0.0,0.0,0.0,0.0,0.0,0.0,0.0,0.0,0.0,0.0,0.0,0.0,0.0,0.0,0.0,0.0,0.0,0.0,0.0,0.0,0.0,0.0,0.0,0.0,0.0,0.0,0.0,0.0,0.0,0.0,0.0,0.0,0.0,0.0,0.0,0.0,0.0,0.0,0.0,0.0,0.0,0.0,0.0,0.0,0.0,0.0,0.0,0.0,0.0,0.0,0.0,0.0,0.0,0.0,0.0,0.0,0.0,0.0,0.0,0.0,0.0,0.0,0.0,0.0,0.0,0.0,0.0,0.0,0.0,0.0,0.0,0.0,0.0,0.0,0.0,0.0,0.0,0.0,0.0,0.0,0.0,0.0,0.0,0.0,0.0,0.0,0.0,0.0,0.0,0.0,0.0,0.0,0.0,0.0,0.0,0.0,0.0,0.0,0.0,0.0,0.0,0.0,0.0,0.0,0.0,0.0,0.0,0.0,0.0,0.0,0.0,0.0,0.0,0.0,0.0,0.0,0.0,0.0,0.0,0.0,0.0,0.0,0.0,0.0,0.0,0.0,0.0,0.0,0.0,0.0,0.0,0.0,0.0,0.0,0.0,0.0,0.0,0.0,0.0,0.0,0.0,0.0,0.0,0.0,0.0,0.0,0.0,0.0,0.0,0.0,0.0,0.0,0.0,0.0,0.0,0.0,0.0,0.0,0.0,0.0,0.0,0.0,0.0,0.0,0.0,0.0,0.0,0.0,0.0,0.0,0.0,0.0,0.0,0.0,0.0,0.0,0.0,0.0,0.0,0.0,0.0,0.0,0.0,0.0,0.0,0.0,0.0,0.0,0.0,0.0,0.0,0.0,0.0,0.0,0.0,0.0,0.0,0.0,0.0,0.0,0.0,0.0,0.0,0.0,0.0,0.0,0.0,0.0,0.0,0.0,0.0,0.0,0.0,0.0,0.0,0.0,0.0,0.0,0.0,0.0,0.0,0.0,0.0,0.0,0.0,0.0,0.0,0.0,0.0,0.0,0.0,0.0,0.0,0.0,0.0,0.0,0.0,0.0,0.0,0.0,0.0,0.0,0.0,0.0,0.0,0.0,0.0,0.0,0.0,0.0,0.0,0.0,0.0,0.0,0.0,0.0,0.0,0.0,0.0,0.0,0.0,0.0,0.0,0.0,0.0,0.0,0.0,0.0,0.0,0.0,0.0,0.0,0.0,0.0,0.0,0.0,0.0,0.0,0.0,0.0,0.0,0.0,0.0,0.0,0.0,0.0,0.0,0.0,0.0,0.0,0.0,0.0,0.0,0.0,0.0,0.0,0.0,0.0,0.0,0.0,0.0,0.0,0.0,0.0,0.0,0.0,0.0,0.0,0.0,0.0,0.0,0.0,0.0,0.0,0.0,0.0,0.0,0.0,0.0,0.0,0.0,0.0,0.0,0.0,0.0,0.0,0.0,0.0,0.0,0.0,0.0,0.0,0.0,0.0,0.0,0.0,0.0,0.0,0.0,0.0,0.0,0.0,0.0,0.0,0.0,0.0,0.0,0.0,0.0,0.0,0.0,0.0,0.0,0.0,0.0,0.0,0.0,0.0,0.0,0.0,0.0,0.0,0.0,0.0,0.0,0.0,0.0,0.0,0.0,0.0,0.0,0.0,0.0,0.0,0.0,0.0,0.0,0.0,0.0,0.0,0.0,0.0,0.0,0.0,0.0,0.0,0.0,0.0,0.0,0.0,0.0,0.0,0.0,0.0,0.0,0.0,0.0,0.0,0.0,0.0,0.0,0.0,0.0,0.0,0.0,0.0,0.0,0.0,0.0,0.0,0.0,0.0,0.0,0.0,0.0,0.0,0.0,0.0,0.0,0.0,0.0,0.0,0.0,0.0,0.0,0.0,0.0,0.0,0.0,0.0,0.0,0.0,0.0,0.0,0.0,0.0,0.0,0.0,0.0,0.0,0.0,0.0,0.0,0.0,0.0,0.0,0.0,0.0,0.0,0.0,0.0,0.0,0.0,0.0,0.0,0.0,0.0,0.0,0.0,0.0,0.0,0.0,0.0,0.0,0.0,0.0,0.0,0.0,0.0,0.0,0.0,0.0,0.0,0.0,0.0,0.0,0.0,0.0,0.0,0.0,0.0,0.0,0.0,0.0,0.0,0.0,0.0,0.0,0.0,0.0,0.0,0.0,0.0,0.0,0.0,0.0,0.0,0.0,0.0,0.0,0.0,0.0,0.0,0.0,0.0,0.0,0.0,0.0,0.0,0.0,0.0,0.0,0.0,0.0,0.0,0.0,0.0,0.0,0.0,0.0,0.0,0.0,0.0,0.0,0.0,0.0,0.0,0.0,0.0,0.0,0.0,0.0,0.0,0.0,0.0,0.0,0.0,0.0,0.0,0.0,0.0,0.0,0.0,0.0,0.0,0.0,0.0,0.0,0.0,0.0,0.0,0.0,0.0,0.0,0.0,0.0,0.0,0.0,0.0,0.0,0.0,0.0,0.0,0.0,0.0,0.0,0.0,0.0,0.0,0.0,0.0,0.0,0.0,0.0,0.0,0.0,0.0,0.0,0.0,0.0,0.0,0.0,0.0,0.0,0.0,0.0,0.0,0.0,0.0,0.0,0.0,0.0,0.0,0.0,0.0,0.0,0.0,0.0,0.0,0.0,0.0,0.0,0.0,0.0,0.0,0.0,0.0,0.0,0.0,0.0,0.0,0.0,0.0,0.0,0.0,0.0,0.0,0.0,0.0,0.0,0.0,0.0,0.0,0.0,0.0,0.0,0.0,0.0,0.0,0.0,0.0,0.0,0.0,-0.5042,0.0,0.0,0.0,0.0,0.0,0.0,0.0,0.0,0.0,0.0,0.0,0.0,0.0,0.0,0.0,0.0,0.0,0.0,0.0,0.0,0.0,0.0,0.0,0.0,0.0,0.0,0.0,0.0,0.0,0.0,0.0,0.0,0.0,0.0,0.0,0.0,0.0,-1.0729,-1.113,-1.0506,-1.054,-1.1135,-1.0397,-0.9903,-0.9624,0.0,0.0,0.0,0.0,0.0,0.0,0.0,0.0,0.0,0.0,0.0,0.0,0.0,0.0,0.0,0.0,0.0,0.0,0.0,0.0,0.0,0.0,0.0,0.0,0.0,0.0,0.0,0.0,0.0,0.0,0.0,0.0,0.0,0.0,0.0,0.0,0.0,0.0,0.0,0.0,0.0,0.0,0.0,0.0,0.0,0.0,0.0,0.0,0.0,0.0,0.0,0.0,0.0,0.0,0.0,0.0,0.0,0.0,0.0,0.0,0.0,0.0,0.0,0.0,0.0,0.0,0.0,0.0,0.0,0.0,-0.5159,-0.5286,0.0,0.0,0.0,0.0,0.0,0.0,0.0,0.0,0.0,0.0,0.0,0.0,0.0,0.0,0.0,0.0,0.0,0.0,0.0,0.0,0.0,0.0,0.0,-1.2822,-1.3535,-1.3613,-1.3588,-1.3558,0.0,0.0,0.0,0.0,0.0,0.0,0.0,-1.1255,-1.0909,-1.1282,-1.0873,-1.087,-1.1223,-1.1276,-1.1042,-1.0555,-1.0107,0.0,0.0,0.0,0.0,0.0,0.0,0.0,0.0,0.0,0.0,0.0,0.0,0.0,0.0,0.0,0.0,0.0,0.0,0.0,0.0,0.0,0.0,0.0,0.0,0.0,0.0,0.0,0.0,0.0,0.0,0.0,0.0,0.0,0.0,0.0,0.0,0.0,0.0,0.0,0.0,0.0,0.0,0.0,0.0,0.0,0.0,0.0,0.0,0.0,0.0,0.0,0.0,0.0,0.0,0.0,0.0,0.0,0.0,0.0,0.0,0.0,0.0,0.0,-0.5725,-0.5852,-0.5886,-0.662,-0.6716,-0.6221,-0.5733,-0.5778,-0.623,-0.6322,0.0,0.0,0.0,0.0,0.0,0.0,0.0,0.0,0.0,0.0,0.0,0.0,0.0,0.0,0.0,0.0,0.0,0.0,0.0,0.0,0.0,-1.3184,-1.3627,-1.3997,-1.4026,-1.387,-1.3525,0.0,-1.3782,-1.3437,-1.3656,0.0,-1.3797,-1.2978,-1.2891,-1.3569,-1.3204,-1.2727,-1.2131,-1.2429,-1.2509,-1.2388,-1.1323,-1.0713,-1.0459,0.0,0.0,0.0,0.0,0.0,0.0,0.0,0.0,0.0,0.0,0.0,0.0,0.0,0.0,0.0,0.0,0.0,0.0,0.0,0.0,0.0,0.0,0.0,0.0,0.0,0.0,0.0,0.0,0.0,0.0,0.0,0.0,0.0,0.0,0.0,0.0,0.0,0.0,0.0,0.0,0.0,-0.4685,-0.4928,0.0,0.0,0.0,0.0,0.0,0.0,0.0,0.0,0.0,0.0,0.0,0.0,0.0,-0.6884,-0.6201,-0.6567,-0.6433,-0.5745,-0.7032,-0.7664,-0.7701,-0.877,-0.9087,-0.882,-0.8735,0.0,-0.6375,-0.6272,0.0,0.0,0.0,0.0,0.0,0.0,0.0,0.0,0.0,0.0,0.0,0.0,0.0,0.0,0.0,0.0,0.0,0.0,0.0,0.0,0.0,-1.3691,-1.4297,-1.4482,-1.4502,-1.4424,-1.4238,-1.4143,-1.4026,-1.3841,-1.4007,-1.4104,-1.4104,-1.3267,-1.2899,-1.304,-1.3227,-1.315,-1.2812,-1.2946,-1.3006,-1.2986,-1.2472,-1.1891,-1.1296,-1.0802,0.0,0.0,0.0,0.0,0.0,0.0,0.0,0.0,0.0,0.0,0.0,0.0,0.0,0.0,0.0,0.0,0.0,0.0,0.0,0.0,0.0,0.0,0.0,0.0,0.0,0.0,0.0,0.0,0.0,0.0,0.0,0.0,0.0,0.0,0.0,0.0,0.0,0.0,0.0,-0.4812,-0.5201,-0.6244,-0.6882,-0.7514,0.0,0.0,0.0,0.0,0.0,0.0,0.0,0.0,0.0,-0.8968,-0.8812,-0.8613,-0.8379,-0.8523,-0.8486,-0.8266,-0.8949,-0.9232,-0.9271,-0.9739,-0.9922,-0.9818,-0.9682,-0.9155,-0.8372,-0.8211,-0.8462,-0.8951,0.0,0.0,0.0,0.0,-0.9933,-0.9842,0.0,0.0,0.0,0.0,0.0,0.0,0.0,0.0,0.0,0.0,0.0,0.0,-1.3316,-1.4307,-1.499,-1.5136,-1.5215,-1.5234,-1.5146,-1.4912,-1.4718,-1.4629,-1.4601,-1.465,-1.4767,-1.3835,-1.3073,-1.2418,-1.3026,-1.328,-1.328,-1.34,-1.3434,-1.3434,-1.3353,-1.2906,-1.2171,-1.1577,-1.1196,-1.0868,0.0,0.0,0.0,0.0,0.0,0.0,0.0,0.0,0.0,0.0,0.0,0.0,0.0,0.0,0.0,0.0,0.0,0.0,0.0,0.0,0.0,0.0,0.0,0.0,0.0,0.0,0.0,0.0,0.0,0.0,0.0,0.0,0.0,0.0,0.0,0.0,0.0,-0.5461,-0.5955,-0.7448,-0.767,-0.8184,0.0,0.0,0.0,0.0,0.0,0.0,-0.9569,-1.0084,-1.0289,-1.0136,-0.9922,-0.9883,-0.9977,-0.9994,-1.0108,-1.0244,-1.0587,-1.0742,-1.0742,-1.1076,-1.1165,-1.1057,-1.0902,-1.0824,-1.0701,-0.9992,-0.9799,-0.9968,-1.0408,-1.0686,-1.0841,-1.1022,-1.0969,-1.0847,0.0,0.0,0.0,0.0,0.0,0.0,0.0,0.0,0.0,0.0,0.0,-1.332,-1.4578,-1.5107,-1.5547,-1.5997,-1.6387,-1.6455,-1.6056,-1.6377,-1.6406,-1.6016,-1.5997,-1.6162,-1.656,-1.5478,-1.4183,-1.2764,-1.3327,-1.358,-1.3586,-1.3908,-1.4041,-1.4035,-1.3706,-1.3407,-1.31,-1.2492,-1.2064,-1.1765,-1.0894,0.0,0.0,0.0,0.0,0.0,0.0,0.0,0.0,0.0,0.0,0.0,0.0,0.0,0.0,0.0,0.0,0.0,0.0,0.0,0.0,0.0,0.0,0.0,0.0,0.0,0.0,0.0,0.0,0.0,0.0,0.0,0.0,0.0,0.0,0.0,0.0,0.0,0.0,-0.7869,-0.81,0.0,0.0,0.0,0.0,-1.1234,-1.156,-1.1567,-1.1109,-1.1118,-1.0852,-1.0204,-1.0195,-1.017,-1.0181,-1.0305,-1.0372,-1.0382,-1.1621,-1.2202,-1.2244,-1.3383,-1.3715,-1.341,-1.3437,-1.3279,-1.2851,-1.0612,-1.0033,-1.0563,-1.0587,-1.0924,-1.1349,-1.1362,-1.1362,-1.1349,0.0,0.0,0.0,0.0,0.0,0.0,0.0,0.0,-1.1199,-1.2096,-1.2817,-1.3769,-1.5049,-1.5576,-1.6006,-1.6455,-1.6609,-1.6638,-1.6504,-1.6609,-1.6787,-1.6936,-1.6946,-1.6965,-1.7033,-1.6118,-1.5238,-1.4402,-1.4241,-1.4166,-1.4173,-1.4516,-1.4549,-1.4362,-1.4213,-1.4048,-1.3734,-1.314,-1.2712,-1.2409,-1.1718,-1.0777,0.0,0.0,0.0,0.0,0.0,0.0,0.0,0.0,0.0,0.0,0.0,0.0,0.0,0.0,0.0,0.0,0.0,0.0,0.0,0.0,0.0,0.0,0.0,0.0,0.0,0.0,0.0,0.0,0.0,0.0,0.0,0.0,0.0,0.0,0.0,0.0,0.0,-0.8594,-0.948,0.0,-1.1157,-1.1183,-1.1163,-1.1261,-1.1594,-1.1719,-1.1514,-1.2292,-1.2637,-1.2406,-1.262,-1.2713,-1.2713,-1.2757,-1.2764,-1.2806,-1.325,-1.347,-1.347,-1.3906,-1.4028,-1.3928,-1.3928,-1.3868,-1.3713,-1.287,-1.2435,-1.2267,-1.2267,-1.2399,-1.2572,-1.2572,-1.2572,-1.2545,0.0,0.0,0.0,0.0,0.0,0.0,0.0,0.0,-1.1445,-1.2311,-1.332,-1.4375,-1.5508,-1.631,-1.6836,-1.7106,-1.7399,-1.7598,-1.7598,-1.7428,-1.7467,-1.7793,-1.7803,-1.7496,-1.6804,-1.6513,-1.6111,-1.5621,-1.4969,-1.4882,-1.5262,-1.5086,-1.4863,-1.4669,-1.4669,-1.4563,-1.4349,-1.3861,-1.3206,-1.2472,-1.2287,-1.1144,-0.9535,0.0,0.0,0.0,0.0,0.0,0.0,0.0,0.0,0.0,0.0,0.0,0.0,0.0,0.0,0.0,0.0,0.0,0.0,0.0,0.0,0.0,0.0,0.0,0.0,0.0,0.0,0.0,0.0,0.0,0.0,0.0,0.0,0.0,0.0,0.0,-0.9011,-1.0045,-1.0816,-1.1563,-1.2384,-1.219,-1.2012,-1.2012,-1.2311,-1.2543,-1.2636,-1.3454,-1.3939,-1.4088,-1.4282,-1.4382,-1.4382,-1.4382,-1.4382,-1.4382,-1.4382,-1.4329,-1.4229,-1.4229,-1.4182,-1.4088,-1.4088,-1.4088,-1.4088,-1.4088,-1.3854,-1.3494,-1.3394,-1.33,-1.3213,-1.3213,-1.3213,-1.318,0.0,0.0,0.0,0.0,0.0,0.0,0.0,-1.1027,-1.192,-1.2788,-1.4011,-1.5136,-1.6016,-1.7217,-1.7988,-1.8027,-1.8789,-1.9277,-1.9287,-1.8841,-1.8607,-1.8617,-1.8646,-1.7887,-1.6193,-1.6828,-1.6907,-1.6367,-1.5466,-1.5665,-1.6734,-1.5589,-1.5028,-1.5022,-1.5022,-1.5015,-1.4988,-1.4656,-1.3542,-1.1976,-1.2531,-1.1282,-0.902,0.0,0.0,0.0,0.0,0.0,0.0,0.0,0.0,0.0,0.0,0.0,0.0,0.0,0.0,0.0,0.0,0.0,0.0,0.0,0.0,0.0,0.0,0.0,0.0,0.0,0.0,0.0,0.0,0.0,0.0,0.0,0.0,0.0,-1.1296,-1.1087,-1.1204,-1.219,-1.2001,-1.2068,-1.2787,-1.3327,-1.3633,-1.364,-1.3948,-1.4242,-1.4522,-1.4536,-1.4663,-1.5001,-1.5008,-1.5008,-1.5008,-1.5008,-1.5008,-1.5008,-1.5008,-1.481,-1.4536,-1.4536,-1.4376,-1.4102,-1.4102,-1.4095,-1.4088,-1.4088,-1.4088,-1.4055,-1.3726,-1.3447,-1.324,-1.324,-1.324,-1.324,0.0,0.0,0.0,0.0,0.0,0.0,-1.0303,-1.1027,-1.192,-1.2788,-1.3721,-1.4855,-1.6356,-1.6833,-1.7428,-1.8344,-1.8646,-1.8955,-1.9268,-1.8841,-1.8744,-1.9092,-1.9697,-1.9956,-1.9781,-1.9223,-1.8562,-1.783,-1.7003,-1.6328,-1.5766,-1.5624,-1.5478,-1.5277,-1.5277,-1.5164,-1.5001,-1.4921,-1.4065,-1.2783,-1.2361,-1.2114,-1.178,0.0,0.0,0.0,0.0,0.0,0.0,0.0,0.0,0.0,0.0,0.0,0.0,0.0,0.0,0.0,0.0,0.0,0.0,0.0,0.0,0.0,0.0,0.0,0.0,0.0,0.0,0.0,0.0,0.0,0.0,0.0,0.0,-1.1941,-1.134,-1.1552,-1.1842,-1.2129,-1.2899,-1.3596,-1.3979,-1.4182,-1.4369,-1.4589,-1.4676,-1.4756,-1.4836,-1.4843,-1.4877,-1.5008,-1.5008,-1.5008,-1.5008,-1.5008,-1.5008,-1.5008,-1.5008,-1.4961,-1.4843,-1.4843,-1.4683,-1.4402,-1.4402,-1.4282,-1.4088,-1.4088,-1.4088,-1.4082,-1.4001,-1.3915,-1.3848,-1.3848,-1.3848,-1.3848,0.0,0.0,0.0,0.0,0.0,0.0,-1.0303,-1.1027,-1.192,-1.2788,-1.3769,-1.4972,-1.6531,-1.7019,-1.7603,-1.852,-1.8929,-1.9199,-1.9277,-1.9053,-1.9102,-1.9531,-2.0205,-2.0565,-2.0548,-2.02,-1.9842,-1.9462,-1.8592,-1.7781,-1.7117,-1.6764,-1.6249,-1.5578,-1.5578,-1.5484,-1.5317,-1.5197,-1.4774,-1.4021,-1.2887,-1.2074,-1.1447,-1.0531,-0.9295,-0.8025,-0.7464,-0.6606,-0.5749,-0.5596,0.0,0.0,0.0,0.0,0.0,0.0,0.0,0.0,0.0,0.0,0.0,0.0,0.0,0.0,0.0,0.0,0.0,0.0,0.0,0.0,0.0,0.0,0.0,0.0,-1.2819,-1.2962,-1.2481,-1.2594,-1.28,-1.3079,-1.3766,-1.4382,-1.4676,-1.4703,-1.4776,-1.4995,-1.5008,-1.5062,-1.5182,-1.5189,-1.5204,-1.5317,-1.5331,-1.5331,-1.5331,-1.5331,-1.5331,-1.5331,-1.5331,-1.5264,-1.5189,-1.5189,-1.4983,-1.4703,-1.4703,-1.4543,-1.4269,-1.4269,-1.4195,-1.4088,0.0,0.0,0.0,0.0,-1.4088,-1.4088,0.0,0.0,0.0,0.0,0.0,0.0,-1.0303,-1.1027,-1.192,-1.2788,-1.3945,-1.5205,-1.6482,-1.735,-1.8057,-1.849,-1.9346,-1.9707,-1.9375,-1.9404,-1.96,-1.9971,-2.041,-2.0454,-1.9957,-2.0577,-2.0916,-2.0962,-2.0097,-1.9625,-1.9488,-1.828,-1.7084,-1.6015,-1.5913,-1.5879,-1.5865,-1.5638,-1.5524,-1.5378,-1.4056,-1.2077,-1.0072,-1.1175,-0.9855,-0.7432,-0.7766,-0.7191,-0.6252,-0.5969,0.0,0.0,0.0,0.0,0.0,0.0,0.0,0.0,0.0,0.0,0.0,0.0,0.0,0.0,0.0,0.0,0.0,0.0,0.0,0.0,0.0,0.0,0.0,0.0,-1.344,-1.376,-1.4095,-1.3908,-1.3893,-1.4456,-1.4549,-1.4689,-1.5028,-1.5062,-1.5068,-1.5102,-1.5109,-1.517,-1.5431,0.0,0.0,0.0,0.0,-1.5784,-1.5784,-1.5784,-1.5784,-1.5784,-1.5784,-1.5698,-1.5444,-1.5444,-1.5291,-1.5062,-1.5062,-1.4843,-1.4569,-1.4569,-1.4416,-1.4175,-1.4115,-1.4088,-1.4088,-1.4088,-1.4088,-1.4088,0.0,0.0,0.0,0.0,0.0,0.0,-1.0303,-1.1027,-1.192,-1.2788,-1.3691,-1.4756,-1.6085,-1.667,-1.7262,-1.8066,-1.8916,-1.9512,-1.9775,-2.0117,-2.039,-2.0478,-2.0869,-2.1343,-2.1942,-2.2072,-2.1863,-2.1229,-2.1034,-2.044,-1.9488,-1.828,-1.7552,-1.7279,-1.6553,-1.6186,-1.6199,-1.6373,-1.6319,-1.6079,-1.5535,-1.4732,-1.3599,-1.0873,-1.0577,-1.1207,-0.8201,-0.756,-0.7975,-0.6788,-0.6286,-0.6136,-0.5915,-0.5694,0.0,0.0,0.0,0.0,0.0,0.0,0.0,0.0,0.0,0.0,0.0,0.0,0.0,0.0,0.0,0.0,0.0,0.0,0.0,-1.3193,-1.3654,-1.4102,-1.4396,-1.4389,-1.4346,-1.4502,-1.473,-1.499,-1.5284,-1.5311,-1.5411,-1.5645,-1.5665,-1.5685,-1.5745,-1.5698,-1.5772,-1.5784,-1.5784,-1.5784,-1.5784,-1.5784,-1.5784,-1.5784,-1.5784,0.0,-1.5698,-1.5698,-1.5585,-1.5311,-1.5311,-1.5144,-1.4877,-1.4877,-1.4888,-1.4794,-1.4275,-1.4088,-1.4088,-1.4088,-1.4088,-1.4088,0.0,0.0,0.0,0.0,0.0,0.0,-1.0303,-1.1027,-1.1819,-1.2471,-1.3451,-1.4513,-1.5625,-1.6133,-1.666,-1.7282,-1.8154,-1.8916,-1.9561,-2.0,-2.043,-2.0879,-2.1328,-2.1865,-2.25,-2.2715,-2.2606,-2.2217,-2.2217,-2.1688,-2.0698,-1.9398,-1.8565,-1.813,-1.7002,-1.6486,-1.65,-1.6647,-1.654,-1.6308,-1.6112,-1.5792,-1.5147,-1.2793,-1.1567,-1.0943,-0.9962,-0.8811,-0.7785,-0.7654,-0.7071,-0.6378,-0.619,-0.5993,-0.5752,0.0,0.0,0.0,0.0,0.0,0.0,0.0,0.0,0.0,0.0,0.0,0.0,0.0,0.0,-1.1654,0.0,0.0,-1.3474,-1.3627,-1.4015,-1.4355,-1.4496,-1.477,-1.4957,-1.4957,-1.509,-1.5297,-1.5585,-1.5611,-1.5671,-1.5771,-1.5784,-1.5784,-1.5784,-1.5784,-1.5784,-1.5784,-1.5784,-1.5784,-1.5784,-1.5784,-1.5784,-1.5784,-1.5784,-1.5784,-1.5784,-1.5784,-1.5752,-1.5611,-1.5611,-1.5444,-1.517,-1.5068,-1.5008,-1.4981,-1.468,-1.4436,-1.4282,-1.4142,-1.4088,-1.4088,0.0,0.0,0.0,0.0,0.0,0.0,0.0,-1.0958,-1.1653,-1.2135,-1.3178,-1.4182,-1.504,-1.5586,-1.6095,-1.6648,-1.7441,-1.8281,-1.9228,-1.9678,-2.0274,-2.1151,-2.165,-2.209,-2.25,-2.2877,-2.3091,-2.3091,-2.3091,-2.2682,-2.1852,-2.0513,-1.9431,-1.8517,-1.7327,-1.6794,-1.6794,-1.6794,-1.6627,-1.6353,-1.6342,-1.6059,-1.5665,-1.4897,-1.2715,-1.0218,-1.1267,-0.9766,-0.7386,-0.8078,-0.7537,-0.6525,-0.6354,-0.6176,-0.603,-0.581,-0.6241,0.0,0.0,0.0,0.0,0.0,0.0,0.0,0.0,0.0,-1.1811,-1.1928,-1.2321,-1.2811,-1.3287,-1.3533,-1.3808,-1.4048,-1.4335,-1.4536,-1.4596,-1.5064,-1.5418,-1.5471,-1.5478,-1.5571,-1.5758,-1.5784,-1.5784,-1.5784,-1.5784,-1.5784,-1.5784,-1.5784,-1.5784,-1.5784,-1.5784,-1.5784,-1.5784,-1.5784,-1.5784,-1.5784,-1.5784,-1.5784,-1.5784,-1.5784,-1.5784,-1.5784,-1.5784,-1.5698,-1.5464,-1.5224,-1.5182,-1.5169,-1.5115,-1.4903,-1.4656,-1.4362,-1.4255,-1.4291,0.0,0.0,0.0,0.0,0.0,0.0,0.0,0.0,-1.1258,-1.2096,-1.2695,-1.334,-1.4163,-1.4668,-1.542,-1.6599,-1.7178,-1.7978,-1.9209,-1.9678,-2.0274,-2.1151,-2.165,-2.209,-2.25,-2.2877,-2.3091,-2.3091,-2.3091,-2.252,-2.1374,-2.0378,-1.9257,-1.8156,-1.7458,-1.7152,-1.7152,-1.7152,-1.6927,-1.6633,-1.638,-1.5939,-1.5404,-1.505,-1.4045,-1.2468,-1.0113,-0.9004,-0.8506,-0.7315,-0.6826,-0.6627,-0.6388,-0.6286,-0.636,-0.6777,-0.6962,-0.7206,-0.7947,-0.7742,-0.7277,-0.7124,-0.8135,-0.9019,0.0,0.0,-1.143,-1.1982,-1.2127,-1.2542,-1.3761,-1.4015,-1.4048,-1.4082,-1.4335,-1.4609,-1.4877,-1.5197,-1.5491,-1.5752,-1.5785,-1.5792,-1.5778,-1.5784,-1.5784,-1.5784,-1.5784,-1.5784,-1.5784,-1.5784,-1.5784,-1.5784,-1.5784,-1.5784,-1.5784,-1.5784,-1.5784,-1.5784,-1.5784,-1.5784,-1.5784,-1.5784,-1.5784,-1.5784,-1.5784,-1.5764,-1.5731,-1.5698,-1.5732,-1.5705,-1.5444,-1.5324,-1.5264,-1.5022,-1.4908,-1.4874,0.0,0.0,0.0,0.0,0.0,0.0,0.0,0.0,0.0,-1.1394,-1.207,-1.271,-1.334,-1.4004,-1.4727,-1.5527,-1.6465,-1.7441,-1.8477,-1.9404,-2.0274,-2.1151,-2.1375,-2.1826,-2.25,-2.2643,-2.2847,-2.3091,-2.2403,-2.193,-2.1671,-1.9733,-1.8692,-1.8413,-1.7369,-1.6894,-1.6894,-1.6894,-1.672,-1.6426,-1.6132,-1.5765,-1.5344,-1.4883,-1.3868,-1.2566,-1.1912,-1.0763,0.0,-0.9521,-0.8976,-0.8298,-0.8217,-0.7974,-0.7777,-0.7937,-0.8039,-0.8233,-0.8945,-0.876,-0.8532,0.0,-1.0024,-1.0644,-1.0855,-1.1778,-1.2686,-1.2921,-1.314,-1.3419,-1.4019,-1.4088,-1.4088,0.0,-1.4476,-1.4823,-1.4988,-1.5357,-1.5691,-1.5764,-1.5784,-1.5784,-1.5784,-1.5784,-1.5784,-1.5784,-1.5784,-1.5784,-1.5784,-1.5784,-1.5784,-1.5784,-1.5784,-1.5784,-1.5784,-1.5784,-1.5784,-1.5784,-1.5784,-1.5784,-1.5784,-1.5784,-1.5784,-1.5784,-1.5784,-1.5784,-1.5784,-1.5784,-1.5784,-1.5771,-1.5698,-1.5651,-1.5591,-1.5182,-1.5008,-1.4988,0.0,0.0,0.0,0.0,0.0,0.0,0.0,0.0,0.0,0.0,-1.155,-1.2256,-1.2846,-1.3418,-1.3965,-1.4394,-1.5508,-1.658,-1.7598,-1.874,-1.9796,-2.0791,-2.0986,-2.1396,-2.2148,-2.2275,-2.249,-2.275,-2.1879,-2.1316,-2.0987,-1.9148,-1.816,-1.7853,-1.6896,-1.6506,-1.6573,-1.6413,-1.6226,-1.6005,-1.5712,-1.5418,-1.509,-1.4502,-1.3525,-1.2606,-1.2921,-1.1682,-1.0014,-1.0525,-1.0069,-0.9226,-0.9204,-0.8966,-0.8713,-0.8911,-0.9275,-0.9745,-1.0187,-1.0013,0.0,-1.0947,-1.152,-1.1956,-1.2478,-1.3186,-1.3726,-1.3726,-1.3935,-1.4088,-1.4088,-1.4088,-1.4088,-1.4088,-1.4509,-1.487,-1.4995,-1.5391,-1.5738,-1.5771,-1.5784,-1.5784,-1.5784,-1.5784,-1.5784,-1.5784,-1.5784,-1.5784,-1.5784,-1.5784,-1.5784,-1.5784,-1.5784,-1.5784,-1.5784,-1.5784,-1.5784,-1.5784,-1.5784,-1.5784,-1.5784,-1.5784,-1.5784,-1.5784,-1.5784,-1.5784,-1.5784,-1.5784,-1.5784,-1.5784,-1.5784,-1.5784,-1.5731,-1.5357,-1.5204,-1.519,0.0,0.0,0.0,0.0,0.0,0.0,0.0,0.0,0.0,0.0,0.0,0.0,0.0,-1.2925,-1.3111,-1.3506,-1.4346,-1.5391,-1.6658,-1.7588,-1.8633,-1.9893,-2.04,-2.0801,-2.122,-2.1689,-2.1904,-2.1924,-2.1882,-2.0708,-1.8516,-1.874,-1.7789,-1.5906,-1.5852,-1.6019,-1.6246,-1.5678,-1.5431,-1.5398,-1.511,-1.481,-1.4439,-1.3853,-1.3447,-1.3028,-1.1948,-1.0619,-0.9262,-0.8837,-0.8648,-0.8605,-0.8466,-0.8423,-0.8584,-0.9562,-1.0777,-1.1799,-1.1819,0.0,-1.1138,-1.1188,-1.1656,-1.207,-1.2105,-1.3127,-1.4075,-1.4075,-1.4082,-1.4088,-1.4088,-1.4088,-1.4088,-1.4088,-1.4342,-1.4636,-1.4968,-1.5217,-1.5518,-1.5751,-1.5784,-1.5784,0.0,-1.5784,-1.5784,-1.5784,-1.5784,-1.5784,-1.5784,-1.5784,-1.5784,-1.5784,-1.5784,-1.5784,-1.5784,-1.5784,-1.5784,-1.5784,-1.5784,-1.5784,-1.5784,-1.5784,-1.5784,-1.5784,-1.5784,-1.5784,-1.5784,-1.5784,-1.5784,-1.5784,-1.5784,-1.5784,-1.5778,-1.5764,-1.5758,-1.5718,0.0,0.0,0.0,0.0,0.0,0.0,0.0,0.0,0.0,0.0,0.0,0.0,0.0,0.0,0.0,0.0,-1.3997,-1.4902,-1.6201,-1.6477,-1.7339,-1.8987,-1.9137,-1.9705,-2.0781,-2.0507,-2.0508,-2.0769,-1.9272,-1.8105,-1.7332,-1.6632,-1.5958,-1.5257,-1.5257,-1.5311,-1.5437,-1.5236,-1.511,-1.5129,-1.479,-1.4496,-1.4188,-1.3753,-1.3174,-1.2541,0.0,-1.1458,-1.0955,-1.0591,-1.047,-1.0452,-1.0396,-1.0284,-1.0242,-1.0735,-1.1386,-1.2033,-1.2599,0.0,-1.2626,-1.3005,-1.3278,-1.3419,-1.3419,-1.3798,-1.4088,-1.4088,-1.4088,-1.4088,-1.4088,-1.4088,-1.4088,-1.4088,-1.4335,-1.4623,-1.4968,-1.5211,-1.5504,-1.5792,-1.5784,0.0,0.0,0.0,0.0,-1.5872,-1.6574,-1.6709,-1.5825,-1.5784,-1.5784,-1.5784,-1.5784,-1.5784,-1.5784,-1.5784,-1.5784,-1.5784,-1.5784,-1.5784,-1.5784,-1.5784,-1.5784,-1.5784,-1.5784,-1.5784,-1.5784,-1.5784,-1.5784,-1.5784,-1.5784,-1.5784,-1.5784,-1.5784,-1.5784,-1.5764,0.0,0.0,0.0,0.0,0.0,0.0,0.0,0.0,0.0,0.0,0.0,0.0,0.0,0.0,0.0,0.0,0.0,-1.4299,-1.5312,-1.56,-1.6365,-1.7852,-1.8048,-1.8606,-1.9648,-1.926,-1.9232,-1.9631,-1.7934,-1.6998,-1.6738,-1.5734,-1.5085,-1.4803,-1.474,-1.4754,-1.4796,-1.474,-1.4693,-1.466,-1.4215,-1.3941,-1.3707,-1.3047,-1.2454,0.0,-1.1578,-1.1437,-1.1404,-1.1182,-1.1116,-1.1116,-1.1116,-1.1202,-1.1363,-1.165,-1.2031,-1.2498,-1.314,-1.3327,-1.344,-1.3968,-1.4088,-1.4088,-1.4088,-1.4088,-1.4088,-1.4088,-1.4001,-1.4053,-1.4372,-1.4171,-1.4205,-1.5088,-1.5198,-1.5292,-1.5711,-1.5934,-1.5994,-1.5839,-1.5784,-1.5784,0.0,0.0,0.0,-1.592,-1.6574,-1.6669,-1.5825,-1.5784,-1.5784,-1.5784,-1.5784,-1.5784,-1.5784,-1.5784,-1.5784,-1.5784,-1.5784,-1.5784,-1.5784,-1.5784,-1.5784,-1.5784,-1.5784,-1.5784,-1.5784,-1.5784,-1.5784,-1.5784,-1.5784,-1.5784,-1.5784,-1.5784,-1.5784,-1.5784,0.0,0.0,0.0,0.0,0.0,0.0,0.0,0.0,0.0,0.0,0.0,0.0,0.0,0.0,0.0,0.0,0.0,0.0,-1.4046,-1.4827,-1.5683,-1.6599,-1.7067,-1.7506,-1.7969,-1.793,-1.81,-1.8498,-1.7871,-1.7214,-1.6581,-1.5888,-1.5195,-1.4439,-1.4157,-1.4148,-1.4389,-1.4115,-1.3995,-1.3948,-1.3387,-1.316,-1.3019,-1.1848,-1.1395,-1.1295,-1.0814,-1.06,-1.0593,-1.0613,-1.0626,-1.064,-1.0653,-1.1243,-1.1986,-1.2245,-1.2759,-1.3293,-1.3527,-1.3613,-1.3693,-1.4015,-1.4088,-1.4088,-1.4088,-1.4088,-1.4082,-1.4068,-1.3876,-1.3954,-1.4882,0.0,-1.4451,-1.6806,-1.6612,-1.6376,-1.6974,-1.7078,-1.6771,0.0,0.0,0.0,0.0,0.0,0.0,-1.5872,0.0,-1.5872,-1.5784,-1.5784,-1.5784,-1.5784,-1.5784,-1.5784,-1.5784,-1.5784,-1.5784,-1.5784,-1.5784,-1.5784,-1.5784,-1.5784,-1.5784,-1.5784,-1.5784,-1.5784,-1.5784,-1.5784,-1.5784,-1.5784,-1.5784,-1.5784,-1.5784,-1.5784,-1.5784,-1.5784,0.0,0.0,0.0,0.0,0.0,0.0,0.0,0.0,0.0,0.0,0.0,0.0,0.0,0.0,0.0,0.0,0.0,0.0,-1.3643,-1.3504,-1.409,-1.5653,-1.5789,-1.6379,-1.7529,-1.7058,-1.6864,-1.6965,-1.6012,-1.5457,-1.5255,-1.4425,-1.3959,-1.3734,-1.3054,-1.2799,-1.2859,-1.2792,-1.2759,-1.2746,-1.2592,-1.2405,-1.2214,-1.1906,-1.1483,-1.1082,-1.0935,-1.0774,-1.0626,0.0,0.0,0.0,0.0,-1.1873,-1.2251,-1.2583,-1.306,-1.3507,-1.358,-1.3766,-1.3988,-1.4068,-1.4088,-1.4088,-1.4088,-1.4088,-1.4021,-1.376,-1.4246,-1.471,-1.4739,-1.4743,0.0,-1.5572,-1.5099,0.0,-1.5152,-1.5407,0.0,-1.5517,0.0,-1.5784,-1.5784,-1.6109,0.0,0.0,-1.6669,-1.6803,-1.5825,-1.5784,-1.5784,-1.5784,-1.5784,-1.5784,-1.5784,-1.5784,-1.5784,-1.5784,-1.5784,-1.5784,-1.5784,-1.5784,-1.5784,-1.5784,-1.5784,-1.5784,-1.5784,-1.5784,-1.5784,-1.5784,-1.5784,-1.5784,-1.5784,-1.5784,-1.5784,-1.5784,0.0,0.0,0.0,0.0,0.0,0.0,0.0,0.0,0.0,0.0,0.0,0.0,0.0,0.0,0.0,0.0,0.0,0.0,0.0,-1.3122,-1.3491,-1.4523,-1.4705,-1.5138,-1.5917,-1.5779,-1.5775,-1.5961,-1.4909,-1.4498,-1.4652,-1.3498,-1.2952,-1.2952,-1.2482,-1.2305,-1.2305,-1.2305,-1.2305,0.0,0.0,-1.1817,-1.165,-1.1424,-1.1122,-1.0834,-1.0834,-1.0894,-1.0962,0.0,0.0,-1.1462,-1.1924,-1.2295,-1.2579,-1.3013,0.0,-1.3841,-1.3841,-1.3961,-1.4088,-1.4088,-1.4088,-1.4055,-1.3921,-1.3895,-1.385,-1.3772,-1.4252,-1.4796,-1.5038,-1.4958,0.0,0.0,0.0,0.0,-1.5473,-1.5784,-1.5826,0.0,-1.6113,0.0,-1.5825,-1.6298,-1.6386,0.0,-1.648,-1.6574,-1.5825,-1.5784,-1.5784,-1.5784,-1.5784,-1.5784,-1.5784,-1.5784,-1.5784,-1.5784,-1.5784,-1.5784,-1.5784,-1.5784,-1.5784,-1.5784,-1.5784,-1.5784,-1.5784,-1.5784,-1.5784,-1.5784,-1.5784,-1.5784,-1.5784,-1.5784,-1.5784,-1.5784,0.0,0.0,0.0,0.0,0.0,0.0,0.0,0.0,0.0,0.0,0.0,0.0,0.0,0.0,0.0,0.0,0.0,0.0,0.0,0.0,-1.3447,-1.3506,-1.3831,-1.4055,-1.4104,-1.4502,-1.4883,-1.5244,-1.4417,-1.4122,-1.4338,-1.301,-1.2353,-1.2245,-1.2107,-1.2071,-1.2071,-1.2071,-1.2071,-1.2024,-1.1516,-1.1275,-1.1256,0.0,-1.0593,-1.0593,-1.0593,-1.0909,-1.1342,0.0,-1.1442,-1.1608,-1.2238,-1.2636,-1.2965,-1.3527,-1.3881,-1.4088,-1.4088,-1.4088,-1.4088,-1.4088,-1.4088,-1.405,-1.3872,-1.377,-1.3808,-1.4087,0.0,-1.4631,-1.5486,-1.5105,-1.5248,-1.7081,0.0,-1.6039,-1.6373,-1.6692,-1.6566,-1.5691,-1.6821,-1.7318,-1.6379,-1.7131,-1.7225,-1.6157,-1.592,-1.5784,-1.5784,-1.5784,-1.5784,-1.5784,-1.5784,-1.5784,-1.5784,-1.5784,-1.5784,-1.5784,-1.5784,-1.5784,-1.5784,-1.5784,-1.5784,-1.5784,-1.5784,-1.5784,-1.5784,-1.5784,-1.5784,-1.5784,-1.5784,-1.5784,-1.5784,-1.5784,-1.5784,-1.5784,0.0,0.0,0.0,0.0,0.0,0.0,0.0,0.0,0.0,0.0,0.0,0.0,0.0,0.0,0.0,0.0,0.0,0.0,0.0,0.0,0.0,-1.3496,-1.3574,-1.3753,-1.4104,-1.4182,-1.425,-1.4328,-1.4544,-1.4349,-1.3747,-1.3145,-1.2529,-1.186,-1.1205,-1.0894,-1.0894,-1.0894,-1.0894,-1.0888,-1.0787,-1.0747,-1.0734,-1.0633,0.0,0.0,-1.0593,-1.0814,-1.1102,-1.1349,-1.1744,-1.2251,-1.2859,-1.3086,-1.3247,-1.3841,-1.4048,-1.4088,-1.4088,-1.4088,-1.4088,-1.4088,-1.4088,-1.4211,-1.4741,-1.454,0.0,0.0,-1.5155,-1.5418,-1.5379,-1.5128,-1.5126,-1.5712,0.0,0.0,0.0,0.0,-1.569,0.0,0.0,0.0,0.0,0.0,0.0,0.0,-1.6386,-1.5784,-1.5784,-1.5784,-1.5784,-1.5784,-1.5784,-1.5784,-1.5784,-1.5784,-1.5784,-1.5784,-1.5784,-1.5784,-1.5784,-1.5784,-1.5784,-1.5784,-1.5784,-1.5784,-1.5784,-1.5784,-1.5784,-1.5784,-1.5784,-1.5784,-1.5784,-1.5784,-1.5784,-1.5784,0.0,0.0,0.0,0.0,0.0,0.0,0.0,0.0,0.0,0.0,-1.2317,0.0,0.0,0.0,0.0,0.0,0.0,0.0,0.0,0.0,0.0,0.0,-1.2273,-1.2364,-1.2891,-1.2792,-1.3088,-1.3782,0.0,-1.3274,-1.3209,-1.2241,-1.1681,-1.1389,-1.0653,-1.0445,-1.0593,-1.0593,-1.0593,-1.0593,-1.0593,-1.0593,-1.0593,0.0,0.0,0.0,0.0,-1.078,-1.1015,-1.1156,-1.159,-1.2211,-1.2973,-1.3213,-1.3327,-1.3915,-1.4088,-1.4088,-1.4088,-1.4088,-1.4088,-1.4088,-1.4088,-1.4171,-1.4442,0.0,0.0,0.0,-1.5195,-1.5452,-1.5356,-1.5557,0.0,-1.5553,0.0,0.0,0.0,0.0,0.0,0.0,0.0,0.0,0.0,0.0,-1.9039,-1.7777,-1.7131,-1.648,-1.5832,-1.5784,-1.5784,-1.5784,-1.5784,-1.5784,-1.5784,-1.5784,-1.5784,-1.5784,-1.5784,-1.5784,-1.5784,-1.5784,-1.5784,-1.5791,-1.5992,-1.6059,-1.6072,-1.6226,-1.6286,-1.6286,-1.6286,-1.6286,-1.6286,-1.6286,-1.6186,-1.6155,0.0,0.0,0.0,0.0,0.0,0.0,0.0,-1.2002,-1.2574,-1.3643,-1.3497,-1.3086,-1.2469,-1.2182,0.0,0.0,0.0,0.0,0.0,0.0,0.0,0.0,0.0,-1.1191,-1.1591,0.0,0.0,0.0,-1.2172,0.0,0.0,0.0,0.0,0.0,-1.0322,-1.0247,-1.0499,-1.0566,-1.0593,0.0,0.0,-1.0593,0.0,0.0,0.0,0.0,0.0,0.0,-1.0909,-1.0969,-1.1431,-1.21,-1.2917,-1.3209,-1.3313,-1.3841,-1.4035,-1.4088,-1.4088,-1.4088,-1.4088,-1.4088,-1.4088,-1.4138,-1.4279,-1.4224,0.0,0.0,-1.5177,-1.5358,-1.538,-1.5742,-1.5965,0.0,-1.5348,-1.5097,0.0,0.0,0.0,0.0,0.0,0.0,0.0,0.0,0.0,-1.8588,-1.8002,-1.7131,-1.5872,-1.5784,-1.5784,-1.5784,-1.5784,-1.5784,-1.5784,-1.5784,-1.5784,-1.5784,-1.5892,-1.5925,-1.5925,-1.5992,-1.5964,-1.6032,-1.6266,-1.6366,-1.6386,-1.6613,-1.6707,-1.6707,-1.6707,-1.6707,-1.675,-1.7043,-1.6999,-1.6981,0.0,0.0,0.0,0.0,0.0,0.0,0.0,-1.2184,-1.2788,-1.4453,-1.4301,-1.3762,-1.3103,-1.214,0.0,0.0,0.0,0.0,0.0,0.0,0.0,0.0,0.0,0.0,0.0,0.0,0.0,0.0,0.0,0.0,0.0,0.0,0.0,0.0,0.0,0.0,-1.0174,-1.0479,0.0,0.0,0.0,0.0,0.0,0.0,0.0,0.0,0.0,0.0,0.0,0.0,0.0,-1.227,-1.2899,-1.3145,-1.3273,-1.3547,0.0,0.0,-1.4088,-1.4088,-1.4088,-1.4088,-1.4088,-1.4296,-1.5092,0.0,0.0,-1.5791,-1.5652,-1.5381,-1.5391,-1.5086,-1.5028,-1.5622,-1.5321,-1.5041,0.0,0.0,0.0,0.0,0.0,0.0,0.0,-2.18,-2.1203,-2.098,-1.8956,-1.7131,-1.5872,-1.5784,-1.5784,-1.5784,-1.5784,-1.5784,-1.5784,-1.5784,-1.5784,-1.5784,-1.6106,-1.6233,-1.6239,-1.6506,-1.6627,-1.6627,-1.6653,-1.6667,-1.6667,-1.6693,-1.6707,-1.6707,-1.6707,-1.6707,-1.685,-1.8065,-1.8486,-1.8701,0.0,0.0,0.0,0.0,0.0,0.0,0.0,-1.2203,-1.2817,-1.4561,-1.4629,-1.4071,-1.2941,-1.2233,0.0,0.0,0.0,0.0,0.0,0.0,0.0,0.0,0.0,0.0,0.0,0.0,0.0,0.0,0.0,0.0,0.0,0.0,0.0,0.0,0.0,0.0,0.0,-1.0241,0.0,0.0,0.0,0.0,0.0,0.0,0.0,0.0,0.0,0.0,0.0,0.0,0.0,0.0,-1.3034,-1.3554,0.0,0.0,-1.3939,-1.3854,-1.4041,-1.4088,-1.4088,-1.4088,-1.4393,-1.4765,-1.5009,0.0,-1.5405,-1.5626,-1.5527,-1.541,-1.541,-1.5493,-1.5725,-1.6205,-1.6059,-1.5924,-1.6205,0.0,0.0,0.0,0.0,0.0,0.0,0.0,-2.1756,-2.035,-1.794,-1.6339,-1.5832,-1.5784,-1.5784,-1.5784,-1.5784,-1.5784,-1.5784,-1.5784,-1.5784,-1.5784,-1.6132,-1.6321,-1.6335,-1.6573,-1.6707,-1.6714,-1.6894,-1.7025,-1.6987,-1.7161,-1.7235,-1.7235,-1.7235,-1.7235,-1.7286,-1.7832,-1.847,-1.9189,0.0,0.0,0.0,0.0,0.0,0.0,-1.194,-1.2203,-1.2779,-1.4385,-1.459,-1.4109,-1.2889,-1.2265,-1.1602,-1.0769,0.0,0.0,0.0,0.0,0.0,0.0,0.0,0.0,0.0,0.0,0.0,-1.0678,0.0,0.0,0.0,0.0,0.0,0.0,0.0,0.0,0.0,0.0,0.0,0.0,0.0,0.0,0.0,0.0,0.0,0.0,0.0,0.0,0.0,0.0,0.0,0.0,0.0,0.0,0.0,0.0,-1.424,-1.3933,-1.4276,-1.4462,-1.4468,-1.4058,-1.4641,-1.5227,0.0,0.0,-1.5494,-1.5437,-1.541,-1.541,-1.541,-1.5664,-1.6064,-1.6609,-1.6586,-1.6622,-1.6947,-1.6859,0.0,0.0,0.0,-2.0126,0.0,-2.1574,-2.132,-1.9633,-1.7529,-1.6197,-1.5825,-1.5784,-1.5784,-1.5784,-1.5784,-1.5784,-1.5784,-1.5784,-1.5784,-1.5784,-1.6219,-1.64,-1.6413,-1.6794,-1.6967,-1.6974,-1.7239,-1.7326,-1.7347,-1.7502,-1.7582,-1.7582,-1.7582,-1.7582,-1.7635,-1.8042,-1.8676,-1.9487,0.0,0.0,0.0,0.0,0.0,0.0,0.0,-1.2203,-1.2671,-1.3948,-1.4114,-1.3836,-1.3177,-1.2137,-1.1233,-1.057,0.0,0.0,0.0,0.0,0.0,0.0,0.0,0.0,0.0,0.0,0.0,-0.9211,-0.9539,-0.9708,0.0,0.0,0.0,0.0,0.0,0.0,0.0,0.0,0.0,0.0,0.0,0.0,-1.0688,0.0,0.0,0.0,0.0,0.0,0.0,0.0,0.0,0.0,0.0,-1.4432,-1.4736,0.0,-1.4694,-1.4494,-1.4976,-1.5375,-1.534,-1.3954,-1.4813,-1.5686,0.0,-1.4714,-1.5169,-1.535,-1.541,-1.541,-1.541,-1.5391,-1.5703,-1.656,-1.6707,-1.6787,-1.6982,-1.7009,0.0,0.0,0.0,-1.9282,-1.9964,-1.9734,-1.9542,-1.9497,-1.8365,0.0,-1.5872,-1.5784,-1.5784,-1.5784,-1.5784,-1.5784,-1.5784,-1.5784,-1.5784,-1.5791,-1.642,-1.67,-1.672,-1.7308,-1.7575,-1.7575,-1.7575,-1.7582,-1.7582,-1.7582,-1.7582,-1.7582,-1.7582,-1.7582,-1.7733,-1.9065,-1.9576,-1.9775,0.0,0.0,0.0,0.0,0.0,0.0,0.0,-1.1582,-1.2162,-1.3145,-1.3525,-1.3494,-1.3032,-1.2485,-1.1693,-1.047,0.0,0.0,0.0,0.0,0.0,0.0,0.0,0.0,0.0,0.0,-0.9639,-0.981,-1.014,-1.0211,-0.9973,-0.9679,0.0,0.0,0.0,0.0,0.0,0.0,0.0,0.0,0.0,-1.0926,-1.1437,0.0,0.0,0.0,0.0,0.0,0.0,0.0,0.0,0.0,0.0,0.0,0.0,-1.5622,-1.5078,-1.4397,-1.4785,-1.4987,-1.4975,-1.453,-1.5105,-1.5627,-1.4982,-1.5332,-1.5718,-1.5439,-1.541,-1.541,-1.541,-1.541,-1.5801,-1.6982,-1.7178,-1.7387,0.0,0.0,0.0,0.0,0.0,-2.124,0.0,0.0,-1.9177,-1.8319,-1.7124,-1.6251,-1.5825,-1.5784,-1.5784,-1.5784,-1.5784,-1.5784,-1.5784,-1.5784,-1.5784,-1.5791,-1.6426,-1.6707,-1.6727,-1.7315,-1.7582,-1.7582,-1.7582,-1.7582,-1.7582,-1.7582,-1.7582,-1.7582,-1.7582,-1.7582,-1.7635,-1.8094,-1.8812,-1.9679,0.0,0.0,0.0,0.0,0.0,0.0,0.0,-1.1143,-1.1594,-1.2318,-1.2631,-1.2826,-1.2876,-1.2135,-1.1387,-1.0789,0.0,0.0,0.0,0.0,0.0,0.0,0.0,0.0,0.0,-0.9532,-0.988,-1.0281,-1.0613,-1.0628,-1.0441,-1.0177,-0.9793,-0.9364,0.0,0.0,0.0,0.0,0.0,0.0,-1.0546,-1.1006,-1.1661,0.0,0.0,0.0,0.0,0.0,0.0,0.0,0.0,0.0,0.0,0.0,0.0,0.0,-1.53,-1.4765,0.0,-1.5267,-1.5271,-1.4744,-1.5334,0.0,0.0,-1.5399,-1.5693,-1.5264,-1.5176,-1.5127,-1.4933,-1.5068,-1.5547,-1.6731,-1.7031,-1.749,0.0,0.0,0.0,0.0,0.0,0.0,0.0,-2.0129,-1.9177,-1.8457,-1.7217,-1.6298,-1.5832,-1.5784,-1.5784,-1.5784,-1.5784,-1.5784,-1.5784,-1.5784,-1.5784,-1.5791,-1.6426,-1.6707,-1.6727,-1.7315,-1.7582,-1.7582,-1.7582,-1.7582,0.0,-1.7582,-1.7582,-1.7582,-1.7582,-1.7582,-1.7582,-1.7582,-1.8146,-1.8916,0.0,0.0,0.0,0.0,0.0,0.0,0.0,0.0,0.0,0.0,-1.1565,-1.1907,-1.2768,-1.1303,0.0,0.0,0.0,0.0,0.0,0.0,0.0,0.0,0.0,0.0,0.0,-0.9546,-1.0003,-1.0593,-1.0888,-1.0995,-1.0982,-1.0754,-1.0311,-0.9699,-0.9377,0.0,0.0,0.0,0.0,0.0,-1.0542,-1.0993,0.0,0.0,0.0,0.0,0.0,0.0,0.0,0.0,0.0,0.0,0.0,0.0,0.0,0.0,0.0,0.0,0.0,-1.5988,-1.5997,-1.4688,0.0,0.0,-1.504,-1.5087,0.0,-1.4873,-1.4813,-1.4678,-1.427,-1.4561,-1.5165,-1.6075,-1.6572,-1.722,0.0,0.0,0.0,0.0,-1.934,0.0,-2.0679,-2.0009,-1.9451,-1.936,-1.8226,-1.7037,-1.5872,-1.5784,-1.5784,-1.5784,-1.5784,-1.5784,-1.5784,-1.5784,-1.5784,-1.5791,-1.6426,-1.6707,-1.6727,-1.7315,-1.7582,-1.7582,-1.7582,-1.7582,-1.7582,-1.7582,-1.7582,-1.7635,-1.7687,-1.774,-1.7733,-1.7838,-1.7884,-1.8094,0.0,0.0,0.0,0.0,0.0,0.0,0.0,0.0,0.0,0.0,0.0,-1.179,-1.2301,-1.1522,0.0,0.0,0.0,0.0,0.0,0.0,0.0,0.0,0.0,0.0,0.0,-0.9646,-1.0003,-1.0593,-1.0888,-1.0995,-1.0995,-1.0922,-1.0575,-1.0,-0.9713,0.0,0.0,0.0,0.0,0.0,-1.1229,-1.1943,0.0,0.0,0.0,0.0,-1.5108,-1.5235,0.0,0.0,0.0,0.0,0.0,0.0,0.0,0.0,-1.5156,-1.5342,-1.508,0.0,-1.5552,-1.5235,-1.5422,-1.5634,0.0,-1.5332,-1.5293,-1.4873,0.0,-1.4853,-1.5068,-1.5195,-1.5762,-1.7305,-1.7876,-1.8094,-1.7926,0.0,0.0,0.0,-2.1518,-2.1608,-2.1201,-2.0163,-1.9131,-1.8187,-1.6943,-1.6109,-1.5825,-1.5784,-1.5784,-1.5784,-1.5784,-1.5784,-1.5784,-1.5784,-1.5784,-1.5791,-1.6426,-1.6707,-1.6727,-1.7315,-1.7582,-1.7582,-1.7582,-1.7582,-1.7582,-1.7582,-1.7582,-1.7681,-1.8708,-1.9117,-1.9272,-2.0333,-2.0735,-2.0786,0.0,0.0,0.0,0.0,0.0,0.0,0.0,0.0,0.0,0.0,0.0,0.0,0.0,0.0,0.0,0.0,0.0,0.0,0.0,0.0,0.0,0.0,0.0,0.0,-0.9695,-0.9715,-1.007,-1.0787,-1.0915,-1.1062,-1.1189,-1.1056,-1.0755,-1.0294,-0.9733,-0.9552,0.0,0.0,0.0,-1.0965,-1.1558,0.0,0.0,0.0,0.0,0.0,-1.541,-1.541,0.0,-1.541,-1.541,-1.541,0.0,0.0,0.0,0.0,-1.4805,-1.4796,-1.4795,-1.5088,-1.541,-1.541,-1.541,-1.541,-1.541,0.0,0.0,0.0,0.0,-1.4882,-1.5078,-1.5049,-1.5581,-1.7434,-1.7372,0.0,0.0,0.0,0.0,0.0,-2.2015,-2.2174,0.0,-2.0711,-1.9807,-1.8634,-1.735,-1.6433,-1.5832,-1.5784,-1.5784,-1.5784,-1.5784,-1.5784,-1.5784,-1.5784,-1.5784,-1.5832,-1.6293,-1.6573,-1.672,-1.7174,-1.7455,-1.7582,-1.7582,-1.7582,-1.7582,-1.7582,-1.7943,-1.8603,-1.9324,-1.9981,-2.0641,-2.1448,-2.1702,-2.1803,0.0,0.0,0.0,0.0,0.0,0.0,0.0,0.0,0.0,0.0,0.0,0.0,0.0,0.0,0.0,0.0,0.0,0.0,0.0,0.0,0.0,0.0,0.0,-0.9125,-0.9702,-0.9726,-1.014,-1.0929,-1.1062,-1.1256,-1.1455,-1.1289,-1.0975,-1.0486,-0.9659,-0.9446,0.0,0.0,0.0,-1.1428,-1.1959,0.0,0.0,0.0,0.0,0.0,0.0,0.0,0.0,-1.541,-1.541,-1.54,-1.5342,0.0,0.0,0.0,0.0,0.0,-1.4668,-1.5088,-1.541,-1.541,-1.541,-1.541,-1.541,0.0,0.0,0.0,0.0,0.0,0.0,-1.4895,0.0,0.0,0.0,0.0,0.0,0.0,0.0,-2.0989,-2.194,0.0,-2.1399,-2.1114,-2.0531,-1.9314,-1.8095,-1.6943,-1.5879,-1.5784,-1.5784,-1.5784,-1.5784,-1.5784,-1.5784,-1.5784,-1.5784,-1.5784,-1.6132,-1.6426,-1.6714,-1.7065,-1.736,-1.7582,-1.7582,-1.7582,-1.7635,-1.7838,-1.8551,-1.9627,-2.0033,-2.0939,-2.2055,-2.2257,-2.2316,-2.2458,0.0,0.0,0.0,0.0,0.0,0.0,0.0,0.0,0.0,0.0,0.0,0.0,0.0,0.0,0.0,0.0,0.0,0.0,0.0,0.0,0.0,0.0,-0.9011,-0.9304,-0.9708,-0.9927,-1.0241,-1.066,-1.1404,-1.1792,-1.1839,-1.2011,-1.1416,-1.0167,-0.9786,-0.9639,-0.9758,0.0,0.0,-1.1851,-1.327,0.0,0.0,0.0,0.0,0.0,0.0,0.0,0.0,-1.541,-1.541,-1.5352,-1.5,0.0,0.0,0.0,0.0,0.0,-1.4668,-1.5088,-1.541,-1.541,-1.541,-1.541,-1.541,0.0,0.0,0.0,0.0,0.0,0.0,0.0,0.0,0.0,0.0,-1.8556,0.0,0.0,-2.081,-2.2049,0.0,-2.2566,-2.1426,-2.0395,-1.9268,-1.8048,-1.6803,-1.6015,-1.5832,-1.5784,-1.5784,-1.5784,-1.5784,-1.5784,-1.5784,-1.5784,-1.5784,-1.5784,-1.6132,-1.6426,-1.6714,-1.7065,-1.736,-1.7582,-1.7582,-1.7582,-1.7687,-1.8812,-1.942,-1.9834,-2.2165,-2.3176,-2.3534,-2.4658,-2.5079,-2.5118,0.0,0.0,0.0,0.0,0.0,0.0,0.0,0.0,0.0,0.0,0.0,0.0,0.0,0.0,0.0,0.0,0.0,0.0,0.0,0.0,0.0,-0.9004,-0.9297,-0.9546,-0.9708,-1.0157,-1.0581,-1.1029,-1.1625,-1.2348,-1.3243,-1.3042,-1.2269,-1.1075,-1.0726,-1.0704,-1.0929,-1.1699,-1.2425,-1.3174,0.0,0.0,0.0,0.0,0.0,0.0,0.0,0.0,0.0,0.0,-1.5078,-1.5039,-1.4844,0.0,0.0,0.0,0.0,0.0,-1.4289,-1.457,-1.4864,-1.5596,-1.5947,-1.6093,-1.6093,0.0,0.0,0.0,0.0,0.0,0.0,0.0,0.0,0.0,0.0,-1.9155,-2.0469,-2.0916,-2.1535,0.0,0.0,-2.2862,-2.235,-2.1168,-1.9988,-1.8772,-1.7537,-1.6527,-1.5825,-1.5784,-1.5784,-1.5784,-1.5784,-1.5784,-1.5784,-1.5784,-1.5784,-1.5784,-1.5965,-1.6273,-1.6707,-1.6847,-1.7154,-1.7582,-1.7582,-1.7582,-1.7681,-1.9065,-2.0033,-2.0939,-2.2926,-2.4146,-2.4864,-2.5479,-2.5693,-2.5693,0.0,0.0,0.0,0.0,0.0,0.0,0.0,0.0,0.0,0.0,0.0,0.0,0.0,0.0,0.0,0.0,0.0,0.0,0.0,0.0,-0.8905,-0.9098,-0.9486,-0.9775,-0.9916,-1.0425,-1.0949,-1.153,-1.2175,-1.3201,-1.4578,-1.3905,-1.3043,-1.2043,-1.1715,-1.1742,-1.2108,-1.2729,-1.3435,-1.4213,0.0,0.0,0.0,0.0,0.0,0.0,0.0,0.0,0.0,0.0,0.0,0.0,0.0,0.0,0.0,-1.4241,-1.3812,-1.3617,-1.4241,-1.4338,-1.4572,-1.5928,-1.6318,-1.6473,-1.6785,0.0,0.0,0.0,0.0,0.0,0.0,-1.6444,0.0,-1.6782,-1.8339,-1.9758,-2.05,-2.1434,-2.2305,-2.3013,-2.3091,-2.3003,-2.2731,-2.1845,-2.0666,-1.9177,-1.8503,-1.7451,-1.5872,-1.6062,-1.6109,-1.5832,-1.5784,-1.5784,-1.5784,-1.5784,-1.5784,-1.5784,-1.5784,-1.6099,-1.6607,-1.6673,-1.6987,-1.7482,-1.7555,-1.7582,-1.7681,-1.9065,-2.0436,-2.1853,-2.3176,-2.451,-2.5693,-2.5693,-2.5693,-2.5693,0.0,0.0,0.0,0.0,0.0,0.0,0.0,0.0,0.0,0.0,0.0,0.0,0.0,0.0,0.0,0.0,0.0,0.0,0.0,0.0,-0.8818,-0.8838,-0.9379,-0.997,-1.0512,-1.0834,-1.1249,-1.1873,-1.3455,-1.4545,-1.5117,-1.4258,-1.3394,-1.2555,-1.2406,-1.2406,-1.263,-1.3644,-1.4127,-1.4273,-1.5021,0.0,0.0,0.0,0.0,0.0,0.0,0.0,0.0,0.0,0.0,0.0,0.0,0.0,-1.4697,-1.4241,-1.3812,-1.3769,-1.499,-1.5029,-1.5049,-1.6326,-1.6063,0.0,-1.7061,-1.6957,0.0,-1.772,0.0,0.0,0.0,-1.824,-1.9055,-2.006,-2.071,-2.1226,-2.1734,0.0,-2.2637,-2.3042,-2.3091,-2.2677,-2.1525,-2.1337,-2.035,-1.8002,-1.8772,-1.8349,-1.592,-1.6897,-1.7037,-1.5825,-1.5784,-1.5784,-1.5784,-1.5784,-1.5784,-1.5784,-1.5784,-1.5999,-1.6362,-1.6587,-1.6881,-1.7246,-1.7468,-1.7582,-1.7681,-1.9065,-2.0436,-2.1853,-2.3176,-2.451,-2.5693,-2.5693,-2.5693,-2.5693,0.0,0.0,0.0,0.0,0.0,0.0,0.0,0.0,0.0,0.0,0.0,0.0,0.0,0.0,0.0,0.0,0.0,0.0,0.0,0.0,-0.8971,-0.9339,-1.0059,-1.0504,-1.0611,-1.1022,-1.1985,-1.3433,-1.5729,-1.6365,-1.5497,-1.5347,-1.48,-1.3959,-1.3646,-1.3678,-1.4005,-1.4665,-1.4962,-1.4962,-1.5294,-1.541,0.0,0.0,0.0,0.0,0.0,0.0,0.0,0.0,-1.417,-1.4309,-1.4072,-1.4541,-1.5039,-1.4309,-1.3997,-1.4036,-1.4814,-1.4902,-1.5098,-1.6375,-1.6443,0.0,0.0,-1.7392,-1.7345,-1.8576,-1.8485,0.0,0.0,0.0,-1.831,-1.9432,-1.9944,-2.0618,-2.1734,-2.2246,-2.2666,-2.3042,-2.3091,-2.2906,-2.2448,-2.2403,-2.1721,-2.0079,-2.035,-1.9889,-1.8211,-1.8542,-1.8272,-1.7037,-1.699,-1.6622,-1.5832,-1.5784,-1.5784,-1.5784,-1.5784,-1.5985,-1.6335,-1.6573,-1.6867,-1.7213,-1.7455,-1.8094,-1.8961,-2.0333,-2.1702,-2.3076,-2.4402,-2.5274,-2.5693,-2.5693,-2.5693,-2.5693,0.0,0.0,0.0,0.0,0.0,0.0,0.0,0.0,0.0,0.0,0.0,0.0,0.0,0.0,0.0,0.0,0.0,0.0,0.0,-0.8697,-0.8985,-0.9385,-1.001,-1.0523,-1.0822,-1.1272,-1.2279,-1.3848,-1.6286,-1.6982,-1.6023,-1.5928,-1.5631,-1.5186,-1.4637,-1.4705,-1.5224,-1.5352,-1.541,-1.541,-1.541,-1.541,0.0,0.0,0.0,0.0,0.0,0.0,0.0,0.0,-1.3675,-1.3909,-1.3916,-1.4512,-1.5098,-1.4512,-1.4406,-1.4572,-1.4902,-1.5116,-1.5498,0.0,0.0,0.0,-1.8223,-1.8024,-1.8031,-1.943,-1.9192,0.0,0.0,0.0,0.0,0.0,-1.9975,-2.0677,-2.1753,-2.2363,-2.2769,-2.3062,-2.3091,-2.3091,-2.3091,-2.3091,-2.2589,-2.1382,-2.1658,-2.1168,-1.9579,-1.9497,-1.9131,-1.8272,-1.7498,-1.685,-1.6386,-1.6015,-1.6015,-1.6386,-1.6386,-1.6306,-1.6146,-1.6533,-1.7065,-1.7675,-1.8078,-1.9013,-2.0333,-2.1296,-2.2508,-2.384,-2.5177,-2.5693,-2.5693,-2.5693,-2.5693,-2.5693,0.0,0.0,0.0,0.0,0.0,0.0,0.0,0.0,0.0,0.0,0.0,0.0,0.0,0.0,0.0,0.0,0.0,0.0,-0.8804,-0.8804,-0.8804,-0.8811,-0.9064,-0.9868,-1.1286,-1.1654,-1.2101,-1.2714,-1.4748,-1.6046,-1.6677,-1.58,-1.5654,-1.6056,-1.5204,-1.5292,-1.6056,-1.5596,-1.541,-1.541,-1.541,-1.541,-1.541,0.0,0.0,0.0,0.0,0.0,0.0,0.0,-1.3506,-1.3662,-1.4512,-1.4775,-1.4813,-1.4775,-1.5078,-1.5371,-1.5371,-1.5732,-1.631,0.0,0.0,0.0,-1.9102,-1.8965,-1.8978,-2.0341,0.0,-2.0605,-2.0605,-2.0605,0.0,-2.0605,-2.1349,-2.1885,-2.1885,-2.2607,-2.3091,-2.3091,-2.3091,-2.3091,-2.3091,-2.3091,-2.2589,-2.1426,-2.2403,-2.2041,-1.967,-1.9534,-1.9542,-1.9542,-1.7109,-1.6433,-1.7692,-1.6433,-1.6433,-1.7692,-1.7684,-1.7037,-1.5852,-1.6482,-1.7484,-1.8735,-1.9336,-2.0436,-2.1702,-2.1752,-2.2517,-2.384,-2.5177,-2.5693,-2.5693,-2.5693,-2.5693,-2.5693,0.0,0.0,0.0,0.0,0.0,0.0,0.0,0.0,0.0,0.0,0.0,0.0,0.0,0.0,0.0,0.0,0.0,0.0,-0.8543,-0.8697,-0.9104,-0.9816,-1.0202,-1.0818,-1.1712,-1.2374,-1.3314,-1.4541,-1.6416,-1.6971,-1.629,-1.6287,-1.6044,-1.5605,-1.5684,-1.5684,-1.5596,-1.5469,-1.541,-1.541,-1.541,-1.541,-1.5381,0.0,0.0,0.0,0.0,0.0,0.0,0.0,0.0,0.0,-1.3799,-1.4297,-1.4727,-1.4387,-1.4639,-1.4971,-1.4971,-1.5732,0.0,0.0,0.0,0.0,0.0,-1.9629,0.0,0.0,-2.0605,-2.0605,-2.0605,-2.0605,0.0,-2.0605,-2.1349,-2.1885,-2.1885,-2.2607,-2.3091,-2.3091,-2.3091,-2.3091,-2.3091,-2.3091,-2.296,-2.2589,-2.2906,-2.2775,-2.2094,-2.2041,-2.1632,-2.08,-1.9214,-1.8172,-1.7692,-1.7318,-1.7318,-1.7684,-1.8549,-1.8764,-1.8411,-1.88,-1.9326,-2.0071,-2.0422,-2.1562,-2.3176,-2.4097,-2.4766,-2.5177,-2.5538,-2.5693,-2.5693,-2.5693,-2.5693,-2.5693,0.0,0.0,0.0,0.0,0.0,0.0,0.0,0.0,0.0,0.0,-0.8393,0.0,0.0,0.0,0.0,0.0,0.0,0.0,0.0,0.0,-0.953,-1.0272,-1.0844,-1.1598,-1.2625,-1.356,-1.4361,-1.509,-1.6174,-1.6328,-1.5596,-1.6182,-1.6279,-1.5917,-1.6211,-1.6182,-1.5928,-1.5742,-1.5742,-1.5835,-1.5835,-1.5997,-1.6221,0.0,0.0,0.0,0.0,0.0,0.0,0.0,0.0,0.0,-1.3882,-1.4218,-1.4617,-1.4419,-1.4697,-1.5107,-1.5459,-1.6377,0.0,0.0,-1.8838,-1.9648,-2.0078,0.0,0.0,0.0,0.0,-2.0605,-2.0605,-2.0605,0.0,-2.0801,-2.1426,-2.1943,-2.2119,-2.2672,-2.3091,-2.3091,-2.3091,-2.3091,-2.3091,-2.3091,-2.3091,-2.3091,-2.3091,-2.3091,-2.3091,-2.2633,-2.2262,-2.2031,-2.0395,-1.936,-1.9131,-1.8634,-1.868,-1.9131,-1.9852,-2.0486,-2.0917,-2.0231,-2.0459,-2.1475,-2.2447,-2.3466,-2.4559,-2.5382,-2.5693,-2.5693,-2.5693,-2.5693,-2.5693,-2.5693,-2.5693,-2.5693,0.0,0.0,0.0,0.0,0.0,0.0,0.0,0.0,0.0,0.0,-0.787,-0.8067,0.0,0.0,0.0,0.0,0.0,0.0,0.0,0.0,-1.0068,-1.0489,-1.1352,-1.2453,-1.3806,-1.4783,-1.5107,-1.4727,-1.4833,-1.4852,-1.4833,-1.5733,-1.6318,-1.6638,-1.6687,-1.6677,-1.6609,-1.6283,-1.6265,-1.6521,-1.6567,-1.7006,-1.755,-1.6959,0.0,0.0,0.0,0.0,0.0,0.0,0.0,0.0,-1.4474,-1.444,-1.4518,-1.4691,-1.5077,-1.5655,-1.6445,0.0,0.0,-1.9082,-1.9629,0.0,-2.0517,-2.0605,-2.0605,-2.0605,0.0,-2.0605,-2.0605,-2.0635,-2.0762,-2.1132,-2.1631,-2.207,-2.2461,-2.2828,-2.3091,-2.3091,-2.3091,-2.3091,-2.3091,-2.3091,-2.3091,-2.3091,-2.3091,-2.3091,-2.3091,-2.2076,-2.1987,-2.3057,-2.0854,-2.0215,-2.1293,-2.0215,-2.0215,-2.1293,-2.1426,-2.2031,-2.3013,-2.1079,-2.1147,-2.2885,-2.4814,-2.5654,-2.5693,-2.5693,-2.5693,-2.5693,-2.5693,-2.5693,-2.5693,-2.5693,-2.5693,-2.5693,0.0,0.0,0.0,0.0,0.0,0.0,0.0,0.0,0.0,0.0,0.0,0.0,0.0,0.0,0.0,0.0,0.0,0.0,0.0,0.0,-1.1012,-1.1983,-1.334,-1.411,-1.4107,-1.4307,-1.4338,-1.425,-1.4951,-1.5107,-1.4842,-1.6025,-1.6455,-1.6251,-1.6541,-1.6502,-1.6233,-1.6372,-1.6444,-1.6539,-1.7146,-1.7468,-1.7505,-1.6644,-1.6277,0.0,0.0,0.0,0.0,0.0,0.0,0.0,-1.4474,-1.4735,-1.5001,-1.442,-1.5177,-1.6197,-1.6206,-1.7334,0.0,0.0,-1.9863,-2.0488,-2.0586,-2.0605,-2.0605,-2.0605,-2.0605,-2.0605,-2.0605,-2.0859,-2.1083,-2.1181,-2.1875,-2.2412,-2.25,-2.2828,-2.3091,-2.3091,-2.3091,-2.3091,-2.3091,-2.3091,-2.3091,-2.3091,-2.3091,-2.3091,-2.3091,-2.2862,-2.2818,-2.3091,-2.1667,-2.1025,-2.1293,-2.1025,-2.1025,-2.1293,-2.2262,-2.2862,-2.3091,-2.2631,-2.2988,-2.4063,-2.4886,-2.541,-2.5693,-2.5693,-2.5693,-2.5693,-2.5693,-2.5693,-2.5693,-2.5693,-2.5693,-2.5693,0.0,0.0,0.0,0.0,0.0,0.0,0.0,0.0,0.0,0.0,0.0,0.0,0.0,0.0,0.0,0.0,0.0,0.0,0.0,0.0,0.0,-1.2734,-1.3487,-1.4073,-1.4485,-1.4051,-1.3802,-1.3802,-1.4277,-1.4492,0.0,-1.5995,-1.658,-1.6406,-1.6846,-1.6977,-1.6911,-1.6869,-1.7109,-1.7578,-1.7977,-1.8173,-1.8197,-1.744,-1.7014,-1.6658,-1.5885,0.0,0.0,0.0,0.0,0.0,0.0,0.0,-1.5402,-1.5097,-1.5377,-1.597,-1.6901,0.0,0.0,-1.9639,0.0,-2.0605,-2.0605,-2.0605,-2.0605,-2.0605,-2.0605,-2.0605,-2.0605,-2.0752,-2.1055,-2.1484,-2.1924,-2.2353,-2.2711,-2.2955,-2.3091,-2.3091,-2.3091,-2.3091,-2.3091,-2.3091,-2.3091,-2.3091,-2.3091,-2.3091,-2.3091,-2.3091,-2.3091,-2.3091,-2.2492,-2.2173,-2.2173,-2.2173,-2.2173,-2.2164,-2.2818,-2.3091,-2.3101,-2.3315,-2.3691,-2.415,-2.4795,-2.5205,-2.5439,-2.5596,-2.5693,-2.5693,-2.5693,-2.5693,-2.5693,-2.5693,-2.5693,-2.5693,0.0,0.0,0.0,0.0,0.0,0.0,0.0,0.0,0.0,0.0,0.0,0.0,0.0,0.0,0.0,0.0,0.0,0.0,0.0,0.0,0.0,0.0,-1.3132,-1.3607,-1.4668,-1.3906,-1.3506,-1.3506,-1.3506,0.0,0.0,0.0,0.0,-1.6716,-1.7229,-1.7545,-1.7675,-1.7427,-1.7796,-1.8572,-1.8594,-1.8716,-1.8795,-1.8279,-1.7777,-1.7255,-1.6159,-1.6073,-1.6423,-1.593,0.0,0.0,0.0,0.0,-1.5778,-1.5836,-1.572,-1.5892,-1.7532,0.0,-1.8516,-2.0194,-2.0605,0.0,-2.0605,-2.0605,-2.0605,-2.0605,-2.0605,-2.0605,-2.0605,-2.0664,-2.0957,-2.165,-2.1836,-2.2129,-2.2779,-2.2877,-2.2877,-2.2877,-2.2877,-2.2877,-2.2877,-2.2877,-2.2877,-2.2877,-2.2945,-2.2984,-2.2984,-2.3052,-2.3091,-2.3091,-2.3091,-2.3091,-2.3091,-2.3091,-2.3091,-2.3091,-2.3091,-2.3091,-2.311,-2.3516,-2.3721,-2.3838,-2.4666,-2.5047,-2.5145,-2.5557,-2.5693,-2.5693,-2.5693,-2.5693,-2.5693,-2.5693,-2.5693,-2.5693,0.0,0.0,0.0,0.0,0.0,0.0,0.0,0.0,0.0,0.0,0.0,0.0,0.0,0.0,0.0,0.0,0.0,0.0,0.0,0.0,0.0,0.0,-1.3751,-1.4026,-1.4192,-1.3724,-1.3506,-1.3506,0.0,0.0,0.0,0.0,0.0,-1.6728,0.0,-1.7573,-1.7303,-1.765,-1.789,-1.8027,-1.8191,-1.8271,-1.8254,-1.7702,-1.7473,-1.73,-1.6635,-1.6423,-1.65,-1.6402,-1.6423,0.0,0.0,0.0,-1.6252,-1.5597,-1.6307,-1.7247,0.0,0.0,-1.8841,0.0,-2.0605,-2.0605,0.0,0.0,-2.0605,0.0,-2.0605,-2.0605,-2.0605,-2.0879,-2.1142,-2.1259,-2.1641,-2.1924,-2.2041,-2.2051,-2.2051,-2.2051,-2.2051,-2.2051,-2.2051,-2.2051,-2.2051,-2.2051,-2.2393,-2.2598,-2.2598,-2.2896,-2.3091,-2.3091,-2.3091,-2.3091,-2.3091,-2.3091,-2.3091,-2.3091,-2.3091,-2.3091,-2.3091,-2.3149,-2.3437,-2.3818,-2.4297,-2.4717,-2.5145,-2.5557,-2.5693,-2.5693,-2.5693,-2.5693,-2.5693,-2.5693,-2.5693,-2.5693,0.0,0.0,0.0,0.0,0.0,0.0,0.0,0.0,0.0,0.0,0.0,0.0,0.0,0.0,0.0,0.0,0.0,0.0,0.0,0.0,0.0,0.0,-1.3243,-1.3545,-1.3753,-1.3369,-1.3154,-1.3154,0.0,0.0,0.0,-1.5518,-1.6191,0.0,0.0,0.0,0.0,-1.797,-1.8132,-1.8485,-1.8297,-1.8368,-1.8581,-1.8053,-1.784,-1.7765,-1.72,-1.6798,-1.65,-1.65,-1.65,-1.6445,-1.6194,0.0,0.0,0.0,-1.6421,0.0,-1.7368,-1.8524,-1.9761,0.0,-2.0605,-2.0605,-2.0605,0.0,-2.0605,-2.0605,-2.0605,-2.0605,-2.0605,-2.0723,-2.0947,-2.1151,-2.1356,-2.1611,-2.1846,-2.1885,-2.1885,-2.1885,-2.1885,-2.1885,-2.1885,-2.1885,-2.1885,-2.1885,-2.206,-2.2158,-2.2158,-2.2334,-2.2549,-2.2783,-2.274,-2.2857,-2.3091,-2.3091,-2.3091,-2.3091,-2.3091,-2.3091,-2.3091,-2.3091,-2.3198,-2.3447,-2.3877,-2.4307,-2.4736,-2.5176,-2.5508,-2.5693,-2.5693,-2.5693,-2.5693,-2.5693,-2.5693,-2.5693,0.0,0.0,0.0,0.0,0.0,0.0,0.0,0.0,0.0,0.0,0.0,0.0,0.0,0.0,0.0,0.0,0.0,0.0,0.0,0.0,0.0,0.0,0.0,-1.3027,-1.334,-1.3037,-1.2905,0.0,0.0,0.0,-1.541,-1.5742,-1.6606,0.0,-1.8145,0.0,0.0,0.0,0.0,0.0,-1.8556,-1.8556,-1.8782,-1.8668,-1.8706,-1.8744,-1.8041,-1.7601,-1.7265,-1.6873,-1.6735,-1.671,-1.6538,-1.65,0.0,0.0,0.0,0.0,0.0,0.0,-1.9993,-2.0436,-2.0647,-2.0728,0.0,0.0,-2.0605,0.0,-2.0605,-2.0605,-2.0605,-2.0605,-2.0713,-2.1016,-2.1064,-2.1182,-2.1504,-2.1553,-2.1553,-2.1553,-2.1553,-2.1553,-2.1553,-2.1553,-2.1553,-2.1553,-2.165,-2.1719,-2.1719,-2.1826,-2.2031,-2.2344,-2.2353,-2.2549,-2.2925,-2.3042,-2.3091,-2.3091,-2.3091,-2.3091,-2.3091,-2.3091,-2.3091,-2.312,-2.3603,-2.3965,-2.4297,-2.4844,-2.5264,-2.5586,-2.5645,-2.5693,-2.5693,-2.5693,-2.5693,-2.5693,0.0,0.0,0.0,0.0,0.0,0.0,0.0,0.0,0.0,0.0,0.0,0.0,0.0,0.0,-1.1332,-1.1392,0.0,0.0,0.0,0.0,0.0,0.0,0.0,0.0,-1.2935,-1.2915,0.0,0.0,0.0,0.0,-1.542,-1.6688,-1.7985,-1.9213,-1.9486,-1.9579,-1.9563,0.0,0.0,0.0,0.0,0.0,0.0,0.0,-2.0062,0.0,0.0,0.0,0.0,0.0,0.0,0.0,0.0,-1.65,-1.65,0.0,0.0,0.0,0.0,-1.8805,0.0,-2.0076,0.0,0.0,0.0,0.0,-2.0605,-2.0605,-2.0605,-2.0605,-2.0605,-2.0605,-2.0615,-2.0635,-2.0635,-2.0644,-2.0664,-2.0674,-2.0674,-2.0674,-2.0674,-2.0674,-2.0674,-2.0674,-2.0674,-2.0674,-2.1025,-2.1229,-2.1229,-2.166,-2.1894,-2.1924,-2.1924,-2.2119,-2.2539,-2.2896,-2.3091,-2.3091,-2.3091,-2.3091,-2.3091,-2.3091,-2.3091,-2.312,-2.3603,-2.3799,-2.3887,-2.4773,-2.5125,-2.5194,-2.5566,-2.5693,-2.5693,-2.5693,-2.5693,-2.5693,0.0,0.0,0.0,0.0,0.0,0.0,0.0,0.0,0.0,0.0,0.0,0.0,0.0,-1.161,-1.2034,-1.2335,-1.2021,0.0,0.0,0.0,0.0,0.0,0.0,0.0,0.0,0.0,0.0,0.0,0.0,-1.3999,-1.5728,-1.6217,-1.747,-1.9376,-1.981,-2.0006,-1.9968,-1.9486,0.0,0.0,0.0,0.0,0.0,0.0,0.0,0.0,0.0,0.0,0.0,0.0,0.0,0.0,0.0,0.0,0.0,0.0,0.0,0.0,0.0,0.0,0.0,-1.9705,-2.071,-2.1623,-2.1474,-2.1987,-2.2264,-2.1631,-2.1479,-2.1298,-2.0712,-2.0605,-2.0605,-2.0605,-2.0605,-2.0605,-2.0605,-2.0605,-2.0605,-2.0605,-2.0605,-2.0605,-2.0605,-2.0605,-2.0605,-2.0605,-2.0713,-2.0801,-2.0801,-2.0957,-2.1172,-2.1455,-2.1465,-2.167,-2.2109,-2.2529,-2.2691,-2.2744,-2.2964,-2.3091,-2.3091,-2.3091,-2.3091,-2.3101,-2.3257,-2.3525,-2.3809,-2.4121,-2.4404,-2.4697,-2.5137,-2.5303,-2.5342,-2.5586,-2.5693,-2.5693,0.0,0.0,0.0,0.0,0.0,0.0,0.0,0.0,0.0,0.0,0.0,0.0,0.0,0.0,-1.2464,-1.253,-1.208,-1.1996,-1.251,-1.208,0.0,0.0,0.0,0.0,0.0,-1.2905,0.0,0.0,0.0,0.0,0.0,-1.6347,-1.7667,-1.9688,-1.9969,-2.0177,0.0,0.0,0.0,-2.0137,0.0,0.0,-2.2071,0.0,0.0,0.0,0.0,0.0,0.0,0.0,0.0,0.0,0.0,0.0,0.0,0.0,0.0,0.0,-1.7544,0.0,0.0,0.0,0.0,-2.1687,-2.2079,0.0,-2.2797,-2.2114,-2.2253,-2.2113,-2.0828,-2.0867,-2.0972,-2.0634,-2.0605,-2.0605,-2.0605,-2.0605,-2.0605,-2.0605,-2.0605,-2.0605,-2.0605,-2.0605,-2.0605,-2.0605,-2.0605,-2.0605,-2.0605,-2.0605,-2.0742,-2.0996,-2.1112,-2.1337,-2.167,-2.2227,-2.251,-2.2519,-2.2896,-2.3091,-2.3091,-2.3091,-2.3091,-2.3091,-2.3091,-2.3257,-2.3584,-2.373,-2.3955,-2.4248,-2.4678,-2.4941,-2.5145,-2.54,-2.5557,-2.5693,0.0,0.0,0.0,0.0,0.0,0.0,0.0,0.0,0.0,0.0,0.0,0.0,0.0,0.0,0.0,-1.1907,-1.1857,-1.1857,-1.1839,-1.1839,0.0,0.0,0.0,0.0,0.0,-1.2905,-1.2905,-1.2905,-1.3291,0.0,0.0,0.0,-1.8619,-2.0148,-1.9918,-2.0138,-2.0717,0.0,-2.1644,-2.0905,0.0,-2.2523,-2.1845,0.0,0.0,0.0,-2.4054,-2.4054,0.0,-2.2761,0.0,0.0,0.0,0.0,0.0,0.0,0.0,0.0,0.0,0.0,0.0,0.0,0.0,0.0,-2.2433,0.0,-2.2013,-2.2041,-2.284,-2.2962,-2.1049,-2.1451,-2.1735,-2.0828,-2.0644,-2.0644,-2.0644,-2.0644,-2.0644,-2.0644,-2.0605,-2.0605,-2.0605,-2.0605,-2.0605,-2.0605,-2.0605,-2.0605,-2.0605,-2.0605,-2.0605,-2.0605,-2.0986,-2.1171,-2.1171,-2.2009,-2.248,-2.25,-2.2877,-2.3081,-2.3091,-2.3091,-2.3091,-2.3091,-2.3091,-2.3091,-2.313,-2.3594,-2.3769,-2.3809,-2.4228,-2.4658,-2.5077,-2.5086,-2.5332,-2.5664,0.0,0.0,0.0,0.0,0.0,0.0,0.0,0.0,0.0,0.0,0.0,0.0,0.0,0.0,-1.3254,-1.3058,-1.3033,-1.2909,-1.2603,-1.2608,-1.2691,-1.2881,-1.2905,-1.2905,-1.2905,-1.2905,-1.2905,-1.2905,-1.3023,-1.4173,-1.6262,-1.6612,-1.7695,0.0,-1.967,-1.9685,-1.9497,-1.9785,0.0,0.0,-2.292,-2.3634,0.0,0.0,0.0,0.0,0.0,-2.5159,-2.5046,0.0,-2.3559,-2.2518,0.0,0.0,0.0,0.0,0.0,0.0,-1.8091,0.0,0.0,0.0,0.0,0.0,0.0,0.0,-2.3905,-2.3653,-2.4117,-2.4192,-2.2936,-2.2925,-2.2999,-2.2739,-2.2075,-2.1593,-2.1593,-2.1593,-2.1593,-2.1593,-2.1001,-2.0605,-2.0605,-2.0605,-2.0605,-2.0605,-2.0605,-2.0605,-2.0605,-2.0605,-2.0605,-2.0605,-2.0723,-2.0752,-2.0752,-2.1309,-2.1748,-2.206,-2.248,-2.2799,-2.3091,-2.3091,-2.3091,-2.3091,-2.3091,-2.3091,-2.311,-2.3227,-2.3276,-2.3315,-2.3799,-2.4043,-2.418,-2.4482,-2.4873,-2.5254,0.0,0.0,0.0,0.0,0.0,0.0,0.0,0.0,0.0,0.0,0.0,0.0,0.0,0.0,-1.3743,-1.3743,-1.3743,-1.3594,-1.3174,-1.3145,-1.3091,-1.2915,-1.3071,-1.3145,-1.3145,-1.3145,-1.3145,-1.3145,-1.3232,-1.4216,-1.6033,-1.6292,-1.7218,-1.8669,0.0,0.0,0.0,0.0,0.0,0.0,-2.3434,0.0,0.0,-2.5699,-2.5921,0.0,0.0,0.0,-2.5586,-2.5523,-2.4607,0.0,0.0,0.0,0.0,0.0,0.0,0.0,0.0,0.0,0.0,0.0,0.0,0.0,0.0,0.0,0.0,0.0,-2.5118,-2.5182,-2.377,-2.3854,-2.4,-2.3551,-2.3368,-2.311,-2.2702,-2.2627,-2.2627,-2.2627,-2.1773,-2.1183,-2.1183,-2.0828,-2.0605,-2.0605,-2.0972,-2.1375,-2.1783,-2.1821,-2.1821,-2.1821,-2.1821,-2.1821,-2.1821,-2.226,-2.2396,-2.2231,-2.3289,-2.373,-2.3571,-2.372,-2.38,-2.38,-2.3299,-2.3091,-2.3091,-2.3091,-2.3091,-2.312,-2.3418,-2.3633,-2.3818,-2.4062,-2.4424,-2.4795,0.0,0.0,0.0,0.0,0.0,0.0,0.0,0.0,0.0,0.0,0.0,0.0,0.0,0.0,0.0,0.0,-1.4182,-1.3977,-1.3535,-1.3506,-1.332,-1.2925,-1.3281,-1.3506,-1.3506,-1.3555,-1.358,-1.3598,-1.3772,-1.4458,-1.5594,-1.6162,-1.7046,-1.8204,0.0,0.0,0.0,0.0,0.0,-2.1757,-2.3816,-2.4456,0.0,0.0,-2.585,-2.5134,-2.6147,-2.6172,-2.5762,-2.6248,-2.538,0.0,0.0,0.0,0.0,0.0,-1.9648,0.0,0.0,0.0,0.0,0.0,0.0,0.0,0.0,0.0,0.0,0.0,-2.548,-2.5586,-2.38,-2.4225,-2.4602,-2.3712,-2.44,-2.4755,-2.3806,-2.3672,-2.3672,-2.3672,-2.2776,-2.2103,-2.2027,-2.127,-2.075,-2.075,-2.1631,-2.2553,-2.3441,-2.3514,-2.3514,-2.3514,-2.3514,-2.3514,-2.3514,-2.3925,-2.3716,-2.2896,-2.4682,-2.5103,-2.4373,-2.4787,-2.4999,-2.4914,-2.38,-2.3309,-2.3256,-2.3135,-2.3091,-2.3091,-2.3091,-2.3335,-2.3721,-2.3721,-2.3984,-2.4346,0.0,0.0,0.0,0.0,0.0,0.0,0.0,0.0,0.0,0.0,0.0,0.0,0.0,0.0,0.0,0.0,-1.4658,-1.4326,-1.3555,-1.3506,-1.332,-1.2925,-1.3281,-1.3506,-1.3506,-1.3812,-1.4063,-1.4212,-1.4257,-1.4954,-1.6221,-1.6337,-1.7046,-1.8204,-1.8204,0.0,0.0,0.0,0.0,-2.2234,-2.3083,0.0,-2.5372,-2.6197,-2.6361,-2.6197,-2.6411,-2.6424,-2.6273,-2.5921,-2.5272,-2.4424,0.0,0.0,0.0,-2.1204,0.0,0.0,0.0,0.0,0.0,0.0,0.0,0.0,0.0,-2.1907,-2.2539,0.0,-2.3324,-2.3642,-2.3255,-2.3732,-2.4137,-2.3931,-2.4789,-2.5289,-2.4791,-2.4719,-2.4719,-2.4719,-2.3818,-2.2888,-2.2065,-2.1849,-2.1745,-2.1745,-2.2664,-2.3294,-2.3478,-2.3514,-2.3514,-2.3514,-2.3514,-2.3514,-2.3514,-2.3578,-2.3713,-2.3924,-2.4742,-2.5182,-2.533,-2.5909,-2.6182,-2.6099,-2.4967,-2.4457,-2.4414,-2.3464,-2.3091,-2.3091,-2.3091,-2.3149,-2.3218,-2.3218,-2.3545,-2.3906,0.0,0.0,0.0,0.0,0.0,0.0,0.0,0.0,0.0,0.0,0.0,0.0,0.0,0.0,0.0,0.0,0.0,0.0,0.0,-1.3936,-1.3633,-1.3213,-1.3932,-1.4358,-1.4358,-1.4857,-1.5192,-1.53,-1.51,-1.5337,-1.6003,-1.6622,-1.7511,-1.8594,-1.8594,0.0,0.0,0.0,-2.1333,-2.241,-2.3496,0.0,-2.5661,-2.6273,-2.6499,-2.6499,-2.6499,-2.6499,-2.6449,-2.616,-2.5485,0.0,0.0,-2.376,-2.3321,0.0,-2.2498,-2.2975,0.0,0.0,0.0,-2.1619,0.0,0.0,0.0,-2.1707,-2.2146,-2.2987,-2.3108,-2.3195,-2.3484,-2.3803,-2.4004,-2.4004,-2.4895,-2.5432,-2.4973,-2.5391,-2.5734,-2.5734,-2.485,-2.4036,-2.3562,-2.3036,-2.2962,-2.3441,-2.3963,-2.448,-2.4981,-2.4981,-2.4981,-2.4981,-2.4981,-2.4981,-2.4981,-2.4981,-2.4861,-2.462,-2.5649,-2.6118,-2.6108,-2.6667,-2.7048,-2.7238,-2.613,-2.5336,-2.4745,-2.4168,-2.3594,-2.3091,-2.3091,-2.3091,-2.3091,-2.3091,-2.3227,-2.3467,0.0,0.0,0.0,0.0,0.0,0.0,0.0,0.0,0.0,0.0,0.0,0.0,0.0,0.0,0.0,0.0,0.0,0.0,0.0,0.0,-1.4403,-1.4019,-1.4977,-1.5555,-1.5555,-1.6056,-1.6283,-1.6217,-1.601,-1.5905,-1.5967,-1.7047,-1.8129,-1.9158,-1.9271,0.0,0.0,0.0,0.0,-2.2761,0.0,-2.5008,-2.536,-2.6072,-2.6336,-2.6336,-2.6449,-2.6499,-2.6474,-2.6361,-2.5699,-2.4933,-2.472,-2.4494,0.0,0.0,0.0,0.0,0.0,0.0,0.0,0.0,0.0,-2.1807,0.0,0.0,0.0,-2.3075,-2.2987,0.0,0.0,0.0,0.0,-2.3514,0.0,0.0,0.0,-2.5285,0.0,-2.6172,-2.5646,-2.5181,-2.4874,-2.4022,-2.3902,-2.4921,-2.4967,-2.5409,-2.644,-2.6499,-2.6499,-2.6499,-2.6499,-2.6499,-2.6499,-2.6499,-2.6094,-2.5312,-2.6652,-2.7087,-2.6744,-2.7344,-2.7822,-2.8191,-2.7244,-2.6295,-2.541,-2.5199,-2.4595,-2.3724,-2.3256,-2.3091,-2.3091,-2.3091,-2.3091,-2.3091,-1.2891,-1.35,0.0,0.0,0.0,0.0,0.0,0.0,0.0,0.0,0.0,0.0,0.0,0.0,0.0,0.0,0.0,0.0,-1.54,0.0,0.0,-1.5817,-1.6451,-1.68,-1.68,-1.6736,-1.6579,-1.6291,-1.6728,-1.7026,-1.7197,-1.7817,-1.8681,-1.9736,-2.0277,0.0,0.0,0.0,-2.3226,0.0,-2.4512,-2.4537,0.0,-2.5297,-2.5686,-2.5762,-2.6311,-2.6499,-2.6411,0.0,-2.5611,-2.5335,0.0,-2.4707,-2.5109,-2.3484,0.0,0.0,0.0,0.0,0.0,0.0,-2.2272,0.0,0.0,0.0,-2.0842,-2.1031,0.0,0.0,0.0,0.0,0.0,0.0,0.0,0.0,-2.2673,-2.3565,-2.4456,-2.4958,-2.5795,-2.5793,-2.4431,-2.3705,-2.3777,-2.4909,-2.4887,-2.529,-2.6436,-2.6499,-2.6499,-2.6499,-2.6499,-2.6499,-2.6499,-2.6499,-2.6452,-2.6349,-2.6982,-2.727,-2.7251,-2.825,-2.8762,-2.8773,-2.8182,-2.7844,-2.7643,-2.6707,-2.6224,-2.5891,-2.3897,-2.3091,-2.3091,-2.3091,-2.3091,-2.3091,-1.308,-1.3555,0.0,0.0,0.0,0.0,0.0,0.0,0.0,0.0,0.0,0.0,0.0,0.0,0.0,0.0,0.0,-1.6918,0.0,0.0,0.0,0.0,-1.7271,-1.7646,-1.7646,-1.794,-1.8015,-1.7861,-1.7787,-1.777,-1.7865,-1.8406,-1.9409,-2.079,-2.1056,0.0,-2.3427,0.0,-2.3778,0.0,0.0,0.0,0.0,-2.5594,-2.6135,-2.6172,-2.6411,-2.6499,-2.6461,0.0,-2.5674,0.0,0.0,0.0,0.0,0.0,0.0,0.0,0.0,0.0,0.0,0.0,0.0,0.0,-2.0691,0.0,-2.0914,0.0,0.0,0.0,0.0,0.0,0.0,0.0,-2.3057,0.0,0.0,0.0,-2.4532,-2.4362,-2.4757,-2.504,-2.5013,-2.5102,-2.5348,-2.5836,-2.5822,-2.6009,-2.6461,-2.6499,-2.6499,-2.6499,-2.6499,-2.6499,-2.6499,-2.6499,-2.6499,-2.6499,-2.6738,-2.7002,-2.7341,-2.8097,-2.8624,-2.8925,-2.904,-2.8727,-2.8056,-2.7602,-2.7046,-2.6389,-2.5431,-2.4681,-2.4082,-2.4082,-2.3681,-2.3091,0.0,0.0,0.0,0.0,0.0,0.0,0.0,0.0,0.0,0.0,0.0,0.0,-2.0952,-1.9651,0.0,0.0,-1.8218,-1.7486,0.0,0.0,-1.7241,0.0,0.0,0.0,0.0,-1.9017,-1.9146,-1.9008,-1.8607,-1.8481,-1.8656,-1.9033,-2.0049,-2.1506,0.0,-2.2836,-2.4324,0.0,-2.4431,-2.4469,-2.487,-2.4895,-2.4782,-2.5858,-2.6361,-2.6499,-2.6499,-2.6499,-2.6461,-2.6311,-2.5686,-2.5146,-2.5799,-2.5285,-2.4481,0.0,0.0,0.0,-2.3534,0.0,0.0,0.0,0.0,0.0,0.0,0.0,0.0,0.0,0.0,0.0,0.0,0.0,0.0,-2.2976,0.0,-2.3606,0.0,-2.3446,0.0,0.0,-2.4098,-2.4429,-2.5325,-2.5517,-2.577,-2.6223,-2.6122,-2.6172,-2.6474,-2.6499,-2.6499,-2.6499,-2.6499,-2.6499,-2.6499,-2.6499,-2.6499,-2.6499,-2.6499,-2.67,-2.7115,-2.7783,-2.8323,-2.87,-2.9478,-2.9326,-2.8557,-2.8557,-2.8108,-2.7383,-2.7383,-2.6707,-2.5661,-2.5378,-2.4553,-2.3551,-1.4663,-1.4983,0.0,0.0,0.0,0.0,0.0,0.0,0.0,0.0,0.0,0.0,0.0,0.0,0.0,0.0,0.0,-1.7803,-1.7429,0.0,-1.8744,0.0,0.0,-2.0459,0.0,0.0,-1.9509,-1.9008,-1.8983,-1.9233,-1.9748,-1.9773,-2.0388,-2.1543,-2.2581,-2.3095,-2.3258,-2.487,-2.5548,-2.5548,-2.5561,-2.59,-2.6361,0.0,-2.5996,-2.6499,-2.6499,0.0,-2.6411,-2.5812,-2.5598,-2.5485,-2.5021,-2.5184,0.0,0.0,0.0,0.0,0.0,0.0,0.0,-2.2058,0.0,0.0,0.0,0.0,-2.183,0.0,0.0,0.0,0.0,0.0,0.0,-2.3659,-2.359,0.0,0.0,0.0,0.0,0.0,0.0,0.0,-2.487,-2.3879,-2.3873,-2.5498,-2.5159,-2.5335,-2.6436,-2.6499,-2.6499,-2.6499,-2.6499,-2.6499,-2.6499,-2.6499,-2.6499,-2.6499,-2.6499,-2.6499,-2.6562,-2.7607,-2.8109,-2.8197,-2.9315,-2.9792,-2.9753,-2.9753,-2.9714,-2.9702,-2.9702,-2.8988,-2.7884,-2.6842,-2.5714,-2.4745,0.0,0.0,0.0,0.0,0.0,0.0,0.0,-1.9493,0.0,0.0,0.0,0.0,0.0,-2.0597,-2.0226,0.0,0.0,-1.917,-1.8985,-1.9889,0.0,0.0,0.0,-2.2064,0.0,0.0,0.0,-2.0652,-2.0652,-2.074,-2.0916,-2.0916,-2.1317,-2.2071,-2.2782,-2.3521,0.0,0.0,0.0,0.0,0.0,-2.6537,-2.7014,0.0,-2.6864,-2.709,-2.7419,-2.7544,-2.7519,-2.7318,-2.7017,-2.6753,-2.6942,-2.6615,-2.6235,-2.6389,-2.605,-2.5523,-2.5159,-2.5184,-2.4895,-2.3007,-2.3012,0.0,0.0,0.0,0.0,0.0,0.0,0.0,0.0,0.0,-2.538,-2.3854,-2.3981,-2.3829,0.0,-2.325,-2.3903,0.0,0.0,0.0,0.0,-2.4485,-2.4961,-2.5066,-2.5598,-2.6097,-2.6474,-2.6499,-2.6499,-2.6499,-2.6499,-2.6499,-2.6499,-2.6499,-2.6499,-2.6499,-2.6499,-2.6499,-2.6512,-2.7218,-2.7758,-2.8147,-2.89,-2.944,-2.9792,-2.9792,-2.9792,-2.9792,-2.9792,-2.9573,-2.9106,-2.7988,-2.6408,-2.4702,-1.8204,0.0,0.0,0.0,0.0,0.0,0.0,0.0,0.0,0.0,-2.1459,0.0,-2.1496,0.0,-2.0683,0.0,-2.0461,-2.0199,-2.017,-2.1152,0.0,-2.1867,-2.2866,0.0,0.0,0.0,0.0,0.0,-2.1882,-2.1782,-2.1782,-2.1581,-2.1782,-2.2305,-2.2857,-2.3622,-2.4569,-2.5285,-2.5711,0.0,0.0,-2.7115,0.0,0.0,-2.7745,-2.762,-2.7971,-2.8109,-2.8109,-2.8109,-2.7871,-2.7632,-2.7996,-2.762,-2.7153,-2.7469,-2.7055,-2.644,-2.6251,-2.605,-2.5548,-2.4073,-2.3835,-2.3665,-2.2372,0.0,-2.4347,0.0,0.0,0.0,0.0,0.0,-2.5769,-2.4427,-2.4437,-2.4231,0.0,-2.3741,0.0,0.0,0.0,0.0,0.0,-2.4055,-2.4512,-2.5041,-2.5398,-2.5871,-2.6461,-2.6499,-2.6499,-2.6499,-2.6499,-2.6499,-2.6499,-2.6499,-2.6499,-2.6499,-2.6499,-2.6499,-2.6512,-2.7065,-2.7582,-2.8134,-2.865,-2.9252,-2.9792,-2.9792,-2.9792,-2.9792,-2.9792,-2.9792,-2.9702,-2.8976,-2.7319,-2.5252,0.0,0.0,0.0,0.0,-1.83,0.0,0.0,0.0,-2.1678,0.0,-2.1831,-2.147,-2.0669,-2.0598,-2.0473,-2.0053,-2.0576,-2.0924,-2.0924,-2.2103,0.0,0.0,-2.3478,-2.3968,-2.3604,0.0,0.0,0.0,0.0,-2.2334,-2.2297,-2.1807,-2.182,-2.2297,-2.2844,0.0,-2.4067,-2.5121,-2.5925,-2.6587,-2.7165,-2.767,-2.821,-2.8725,-2.8649,-2.8185,-2.8185,-2.8185,-2.8185,-2.8185,-2.8185,-2.8185,-2.8185,-2.8185,-2.8185,-2.8185,-2.8172,-2.8034,-2.7507,-2.7002,-2.6323,-2.5209,-2.4544,-2.4004,-2.3358,-2.3734,-2.436,0.0,0.0,0.0,0.0,0.0,0.0,-2.5243,-2.4877,0.0,0.0,0.0,-2.3655,0.0,0.0,0.0,0.0,-2.2683,-2.2797,-2.5295,-2.462,-2.4777,0.0,-2.6471,-2.6471,-2.6499,-2.6499,-2.6499,-2.6499,-2.6499,-2.6499,-2.6499,-2.6499,-2.6499,-2.6512,-2.7065,-2.7582,-2.8134,-2.865,-2.9252,-2.9792,-2.9792,-2.9792,-2.9792,-2.9792,-2.9792,-2.9792,-2.9753,-2.8343,-2.6359,-1.9472,-1.9849,-2.0174,0.0,-2.0065,-2.0652,0.0,0.0,0.0,0.0,-2.0549,-2.0004,-2.0068,-2.075,-2.1256,-2.1453,-2.231,0.0,0.0,0.0,0.0,-2.4272,-2.5298,-2.5619,-2.5074,-2.4741,0.0,-2.3778,0.0,-2.2681,-2.2322,-2.2556,-2.2347,-2.1744,-2.2681,-2.3421,-2.4042,-2.4732,-2.5812,-2.719,-2.8122,-2.8549,-2.875,-2.9352,-2.9478,-2.9365,-2.9365,-2.9365,-2.9365,-2.9365,-2.9365,-2.9365,-2.9365,-2.9365,-2.9365,-2.9365,-2.9051,-2.865,-2.8549,-2.8109,-2.7519,-2.6829,-2.654,-2.6176,-2.5184,-2.5909,-2.655,-2.5849,-2.6532,-2.6901,-2.5782,-2.6258,-2.6199,0.0,0.0,0.0,0.0,0.0,0.0,-2.4335,0.0,0.0,-2.2464,-2.347,-2.4059,-2.3758,-2.4727,-2.5672,-2.6458,-2.6178,-2.6147,-2.6496,-2.6499,-2.6499,-2.6499,-2.6499,-2.6499,-2.6499,-2.6499,-2.6499,-2.6512,-2.7065,-2.7582,-2.8134,-2.865,-2.9252,-2.9792,-2.9792,-2.9792,-2.9792,-2.9792,-2.9792,-2.9714,-2.8858,-2.7654,-2.6359,-2.0214,0.0,0.0,-2.1408,0.0,0.0,-2.2016,-2.1824,0.0,-2.1554,-2.1314,0.0,-2.1209,-2.1865,-2.2421,-2.2643,-2.3599,0.0,-2.4156,0.0,0.0,-2.5664,-2.6198,-2.6336,-2.6021,-2.5686,0.0,-2.4356,0.0,-2.307,-2.2322,-2.2606,-2.2309,-2.1543,0.0,-2.3421,-2.4079,-2.536,-2.6578,-2.772,-2.8549,-2.9051,0.0,-2.9666,-2.9792,-2.9792,-2.9792,-2.9792,-2.9792,-2.9792,-2.9792,-2.9792,-2.9792,-2.9792,-2.9792,-2.9792,-2.9566,-2.9302,-2.9302,-2.89,-2.8398,-2.8084,-2.7821,-2.7406,-2.6527,-2.6977,-2.7278,-2.6342,-2.6588,-2.6701,-2.5871,-2.5818,-2.5342,0.0,0.0,0.0,0.0,0.0,0.0,0.0,-2.432,0.0,-2.2278,-2.3455,-2.421,-2.3962,-2.4688,-2.5327,-2.5774,-2.6057,-2.6181,-2.6097,-2.6361,-2.6499,-2.6499,-2.6499,-2.6499,-2.6499,-2.6499,-2.6499,-2.6512,-2.7065,-2.7582,-2.8134,-2.865,-2.9252,-2.9792,-2.9792,-2.9792,-2.9792,-2.9792,-2.9792,-2.9702,-2.9067,-2.7867,-2.6359,-2.0717,0.0,0.0,0.0,0.0,0.0,0.0,-2.2746,0.0,-2.2366,0.0,-2.3358,-2.3014,-2.3413,-2.3708,-2.3708,0.0,-2.5194,-2.5194,-2.6025,-2.6499,-2.6499,-2.6499,-2.6499,-2.6499,-2.6411,-2.585,0.0,0.0,-2.3301,-2.2209,-2.2209,-2.1907,-2.143,0.0,0.0,0.0,-2.6402,-2.7645,-2.826,-2.8812,-2.934,-2.9792,-2.9792,-2.9792,-2.9792,-2.9792,-2.9792,-2.9792,-2.9792,-2.9792,-2.9792,-2.9792,-2.9792,-2.9792,-2.9792,-2.9792,-2.9792,-2.9792,-2.9428,-2.9001,-2.9001,-2.8687,-2.8185,-2.762,-2.7494,-2.7379,-2.6826,-2.6276,-2.6038,-2.6424,-2.5229,-2.4139,0.0,0.0,0.0,0.0,0.0,0.0,0.0,0.0,0.0,-2.2965,-2.327,-2.3903,-2.4723,-2.4498,-2.4514,-2.4979,-2.5941,-2.6226,-2.5732,-2.6235,-2.6499,-2.6499,-2.6499,-2.6499,-2.6499,-2.6499,-2.6499,-2.6512,-2.714,-2.7657,-2.8134,-2.8762,-2.9327,-2.9792,-2.9792,-2.9792,-2.9792,-2.9792,-2.9792,-2.9753,-2.9456,-2.8131,-2.6348,0.0,0.0,0.0,0.0,0.0,-2.4335,-2.3857,-2.3489,-2.341,-2.3778,-2.3634,-2.3481,-2.3402,-2.4207,-2.4755,-2.4755,-2.5652,0.0,0.0,0.0,0.0,-2.6499,-2.6499,-2.6499,-2.6499,-2.6021,-2.5435,0.0,-2.376,-2.2694,-2.1631,-2.1631,-2.1343,-2.088,0.0,0.0,-2.5398,-2.6728,0.0,-2.88,-2.9402,-2.9704,-2.9792,-2.9792,-2.9792,-2.9792,-2.9792,-2.9792,-2.9792,-2.9792,-2.9792,-2.9792,-2.9792,-2.9792,-2.9792,-2.9792,-2.9792,-2.9792,-2.9792,-2.9716,-2.9641,-2.9641,-2.9566,-2.9352,-2.8762,-2.8599,-2.8486,-2.7934,-2.7745,-2.7419,-2.6637,-2.555,-2.4978,0.0,0.0,0.0,0.0,0.0,0.0,0.0,0.0,-2.5164,0.0,-2.4391,0.0,-2.3752,-2.4072,-2.4682,-2.5603,-2.5424,-2.5616,-2.6319,-2.6436,-2.6499,-2.6499,-2.6499,-2.6499,-2.6499,-2.6499,-2.6499,-2.6524,-2.7507,-2.8009,-2.816,-2.9189,-2.9691,-2.9792,-2.9792,-2.9792,-2.9792,-2.9792,-2.9792,-2.9585,-2.7758,-2.6853,-2.6483,0.0,0.0,0.0,0.0,0.0,0.0,0.0,-2.4961,-2.4866,-2.4635,-2.4873,-2.5063,-2.5063,-2.5499,-2.5769,-2.5769,-2.6233,-2.6499,-2.6499,-2.6499,-2.6499,-2.6499,-2.6499,-2.6499,-2.6499,-2.6223,-2.5636,-2.4788,-2.396,-2.2862,-2.1493,-2.1493,-2.1219,-2.0779,0.0,-2.4356,0.0,0.0,-2.8448,-2.8938,-2.9566,-2.9792,-2.9792,-2.9792,-2.9792,-2.9792,-2.9792,-2.9792,-2.9792,-2.9792,-2.9792,-2.9792,-2.9792,-2.9792,-2.9792,-2.9792,-2.9792,-2.9792,-2.9792,-2.9792,-2.9792,-2.9792,-2.9792,-2.9716,-2.944,-2.9377,-2.9214,-2.8612,-2.8499,-2.8109,-2.6751,-2.5833,-2.534,-2.5514,-2.5526,0.0,0.0,0.0,0.0,0.0,0.0,0.0,0.0,0.0,0.0,0.0,0.0,-2.4966,-2.5301,-2.545,-2.5691,-2.603,-2.6336,-2.6499,-2.6499,-2.6499,-2.6499,-2.6499,-2.6499,-2.665,-2.6952,-2.7733,-2.826,-2.8574,-2.9428,-2.9792,-2.9792,-2.9792,-2.9792,-2.9792,-2.9792,-2.9792,-2.9585,-2.7947,-2.6964,-2.6348,0.0,-2.472,0.0,0.0,-2.5423,-2.5774,-2.5774,-2.6197,-2.6211,-2.5406,-2.6025,-2.6499,-2.6499,-2.6499,-2.6499,-2.6499,-2.66,-2.6663,-2.6663,-2.6788,-2.6788,-2.6675,-2.6663,-2.6612,-2.6499,-2.6499,-2.6009,0.0,0.0,-2.3263,-2.1832,-2.1594,-2.1443,-2.1496,-2.3791,-2.531,-2.6251,-2.8009,-2.885,-2.9113,-2.9616,-2.9792,-2.9792,-2.9792,-2.9792,-2.9792,-2.9792,-2.9792,-2.9792,-2.9792,-2.9792,-2.9792,-2.9792,-2.9792,-2.9792,-2.9792,-2.9792,-2.9792,-2.9792,-2.9792,-2.9792,-2.9792,-2.9792,-2.9792,-2.9792,-2.9792,-2.9666,-2.9202,-2.8976,-2.8499,-2.7102,-2.6339,-2.579,-2.5335,-2.5335,0.0,0.0,0.0,0.0,0.0,0.0,0.0,-2.4345,-2.4756,-2.4855,-2.4295,-2.477,-2.5032,-2.4919,-2.5608,-2.5959,-2.5846,-2.6295,-2.6523,-2.6523,-2.6492,-2.6499,-2.6499,-2.6499,-2.6788,-2.7341,-2.7858,-2.8411,-2.8925,-2.9541,-2.9792,-2.9792,-2.9792,-2.9792,-2.9792,-2.9792,-2.9792,-2.9624,-2.8267,-2.725,-2.6182,0.0,0.0,0.0,0.0,0.0,-2.6411,-2.6411,-2.6461,-2.6452,-2.6383,-2.6452,-2.6499,-2.6499,-2.6499,-2.6499,-2.6499,-2.6952,-2.7241,-2.7241,-2.767,-2.772,-2.7266,-2.7241,-2.7002,-2.6499,-2.6499,-2.6185,0.0,0.0,-2.3653,-2.2932,-2.1958,-2.2272,-2.3715,-2.4481,-2.5929,-2.7883,-2.8097,-2.8775,-2.9716,-2.9767,-2.9792,-2.9792,-2.9792,-2.9792,-2.9792,-2.9792,-2.9792,-2.9792,-2.9792,-2.9792,-2.9792,-2.9792,-2.9792,-2.9792,-2.9792,-2.9792,-2.9792,-2.9792,-2.9792,-2.9792,-2.9792,-2.9792,-2.9792,-2.9792,-2.9792,-2.9779,-2.9729,-2.9289,-2.87,-2.8072,-2.7494,-2.6964,-2.6451,-2.6362,-2.6371,0.0,0.0,-2.6059,-2.493,0.0,0.0,-2.4281,-2.5897,-2.6224,-2.4285,-2.4297,-2.4587,-2.498,-2.5637,-2.6185,-2.6575,-2.6667,-2.6661,-2.6661,-2.6548,-2.6499,-2.6499,-2.6499,-2.6788,-2.7341,-2.7858,-2.8411,-2.8925,-2.9541,-2.9792,-2.9792,-2.9792,-2.9792,-2.9792,-2.9792,-2.9792,-2.9546,-2.7424,-2.6607,-2.6182,0.0,0.0,0.0,0.0,0.0,-2.6097,-2.6436,-2.6776,-2.6989,-2.6989,-2.6989,-2.6989,-2.6989,-2.7291,-2.7444,-2.7444,-2.7657,-2.777,-2.777,-2.7984,-2.8009,-2.7783,-2.777,-2.767,-2.7457,-2.7118,-2.6713,0.0,-2.5335,-2.433,-2.3108,-2.3346,-2.4017,-2.5008,-2.6239,-2.7281,-2.8147,-2.8825,-2.9377,-2.9792,-2.9792,-2.9792,-2.9792,-2.9792,-2.9792,-2.9792,-2.9792,-2.9792,-2.9792,-2.9792,-2.9792,-2.9792,-2.9792,-2.9792,-2.9792,-2.9792,-2.9792,-2.9792,-2.9792,-2.9792,-2.9792,-2.9792,-2.9792,-2.9792,-2.9792,-2.9792,-2.9792,-2.9792,-2.9616,-2.9277,-2.8699,-2.8147,-2.7708,-2.7482,-2.6927,-2.6612,-2.6939,0.0,0.0,-2.585,0.0,-2.5788,0.0,-2.6033,-2.6288,-2.5487,-2.5965,-2.575,-2.4532,-2.5817,-2.6462,-2.6167,-2.6419,-2.6593,-2.6593,-2.6544,-2.6499,-2.6499,-2.6839,-2.7278,-2.7795,-2.8348,-2.8875,-2.9465,-2.9691,-2.9792,-2.9792,-2.9792,-2.9792,-2.9792,-2.9792,-2.9792,-2.9546,-2.7302,-2.6524,-2.6182,-2.6499,-2.6172,-2.6009,-2.6424,-2.6285,-2.6226,-2.6675,-2.7203,-2.7519,-2.7519,-2.767,-2.7708,-2.7544,-2.7871,-2.8109,-2.8109,-2.8247,-2.8348,-2.8348,-2.8511,-2.8524,-2.8348,-2.8348,0.0,-2.8109,-2.772,-2.7331,-2.6977,-2.6377,-2.5498,-2.4336,-2.5008,-2.5674,-2.6389,-2.7582,-2.8298,-2.8649,-2.9453,-2.9792,-2.9792,-2.9792,-2.9792,-2.9817,-2.998,-3.003,-3.0055,-3.0206,-3.0269,-3.0269,-3.0269,-3.0269,-3.0206,-2.9892,-2.9792,-2.9792,-2.9792,-2.9792,-2.9792,-2.9792,-2.9792,-2.9792,-2.9792,-2.9792,-2.9792,-2.9792,-2.9792,-2.9792,-2.9792,-2.9792,-2.9666,-2.9252,-2.8725,-2.8348,-2.8348,-2.7419,-2.6876,-2.7266,-2.6839,0.0,-2.626,-2.585,-2.5633,-2.5723,-2.6152,-2.627,-2.5883,-2.7204,-2.7121,-2.5065,-2.6201,-2.6653,-2.607,-2.6392,-2.6548,-2.6548,-2.6535,-2.6499,-2.6499,-2.7052,-2.757,-2.8134,-2.885,-2.9402,-2.9792,-2.9792,-2.9792,-2.9792,-2.9792,-2.9792,-2.9792,-2.9792,-2.9792,-2.9546,-2.7302,-2.6524,-2.6182,-2.6499,-2.6487,-2.6487,-2.6499,-2.6939,-2.7268,-2.7268,-2.7745,-2.8097,-2.8097,-2.8561,-2.8662,-2.816,-2.8109,-2.8109,-2.8109,-2.8562,-2.8888,-2.8888,-2.9453,-2.9515,-2.8913,-2.8888,-2.8624,-2.8109,-2.8097,-2.8097,-2.8084,-2.7532,-2.7291,-2.7218,-2.6725,-2.7065,-2.8072,-2.8097,-2.8725,-2.9779,-2.9779,-2.9792,-2.9792,-2.9792,-2.9792,-2.9854,-3.0407,-3.0608,-3.067,-3.1185,-3.1373,-3.1373,-3.1373,-3.1373,-3.1185,-3.0131,-2.9792,-2.9792,-2.9792,-2.9792,-2.9792,-2.9792,-2.9792,-2.9792,-2.9792,-2.9792,-2.9792,-2.9792,-2.9792,-2.9792,-2.9792,-2.9792,-2.9792,-2.9779,-2.9315,-2.8888,-2.8888,-2.7996,-2.7268,-2.7281,-2.6839,0.0,-2.5674,-2.5598,-2.5586,-2.5586,-2.6369,0.0,0.0,-2.7399,-2.8377,-2.7031,-2.6796,-2.6698,-2.6698,-2.6698,-2.6692,-2.6692,-2.6557,-2.6499,-2.6499,-2.7052,-2.757,-2.8147,-2.9264,-2.9779,-2.9792,-2.9792,-2.9792,-2.9792,-2.9792,-2.9792,-2.9792,-2.9792,-2.9792,-2.9546,-2.7302,-2.6524,-2.6182,-2.6499,-2.6801,-2.7052,-2.7052,-2.7482,-2.7846,-2.7846,-2.831,-2.8662,-2.8662,-2.9164,-2.9453,-2.9277,-2.9252,-2.9252,-2.9252,-2.9415,-2.9515,-2.9515,-2.9691,-2.9704,-2.9528,-2.9515,-2.9428,-2.9264,-2.8875,-2.8662,-2.8662,-2.8109,-2.8034,-2.8398,-2.7846,-2.8185,-2.9252,-2.9252,-2.9453,-2.9792,-2.9792,-2.9792,-2.9829,-3.0206,-3.0357,-3.0407,-3.0947,-3.1148,-3.1173,-3.1336,-3.1386,-3.1386,-3.1386,-3.1386,-3.1336,-3.0984,-3.0884,-3.0884,-3.0884,-3.0633,-3.0357,-3.0357,-3.008,-2.9792,-2.9792,-2.9792,-2.9792,-2.9792,-2.9792,-2.9792,-2.9792,-2.9792,-2.9792,-2.9792,-2.9641,-2.9515,-2.9515,-2.8888,-2.8273,-2.7896,-2.7369,-2.6851,-2.6285,-2.6223,-2.6223,-2.6223,-2.6945,-2.6952,-2.5761,-2.6854,-2.6799,-2.5118,-2.6521,-2.6993,-2.6109,-2.638,-2.6557,-2.6557,-2.6535,-2.6688,-2.7065,-2.7582,-2.8335,-2.9264,-2.9628,-2.9792,-2.9792,-2.9792,-2.9792,-2.9792,-2.9792,-2.9792,-2.9792,-2.9792,-2.9792,-2.9546,-2.7302,-2.6524,-2.6182,-2.7115,-2.7356,-2.7595,-2.7595,-2.8047,-2.8411,-2.8411,-2.8888,-2.9252,-2.9252,-2.9566,-2.9792,-2.9792,-2.9792,-2.9792,-2.9792,-2.9792,-2.9792,-2.9792,-2.9792,-2.9792,-2.9792,-2.9792,-2.9792,-2.9792,-2.944,-2.9252,-2.9252,-2.8913,-2.8913,-2.9252,-2.89,-2.9114,-2.9792,-2.9792,-2.9792,-2.9792,-2.9792,-2.9917,-3.0131,-3.0482,-3.0733,-3.0972,-3.1499,-3.17,-3.1725,-3.1951,-3.2026,-3.2026,-3.2026,-3.2026,-3.2026,-3.2026,-3.2026,-3.1938,-3.1512,-3.116,-3.0909,-3.0909,-3.052,-3.0105,-3.0105,-2.9942,-2.9792,-2.9792,-2.9792,-2.9792,-2.9792,-2.9792,-2.9792,-2.9792,-2.9792,-2.9792,-2.9792,-2.9302,-2.8762,-2.8461,-2.7758,-2.7115,-2.6562,-2.6298,-2.6172,-2.6172,-2.6606,-2.6719,-2.6272,-2.6557,-2.6238,-2.5064,-2.6231,-2.664,-2.6097,-2.6358,-2.6499,-2.6499,-2.67,-2.6977,-2.7329,-2.8047,-2.89,-2.9792,-2.9792,-2.9792,-2.9792,-2.9792,-2.9792,-2.9792,-2.9792,-2.9792,-2.9792,-2.9792,-2.9792,-2.9546,-2.7302,-2.6524,-2.6182,-2.8109,-2.8134,-2.816,-2.816,-2.8612,-2.895,-2.895,-2.9453,-2.9792,-2.9792,-2.9792,-2.9792,-2.9792,-2.9792,-2.9792,-2.9792,-2.9792,-2.9792,-2.9792,-2.9792,-2.9792,-2.9792,-2.9792,-2.9792,-2.9792,-2.9792,-2.9792,-2.9792,-2.9792,-2.9792,-2.9792,-2.9792,-2.9792,-2.9792,-2.9792,-2.9817,-2.9854,-2.9854,-3.0168,-3.067,-3.0708,-3.1022,-3.1499,-3.2064,-3.2277,-3.234,-3.288,-3.3124,-3.3124,-3.3124,-3.3124,-3.3068,-3.2982,-3.2982,-3.2769,-3.1813,-3.1486,-3.1449,-3.1449,-3.1072,-3.0658,-3.062,-3.0206,-2.9792,-2.9792,-2.9792,-2.9792,-2.9792,-2.9792,-2.9792,-2.9792,-2.9792,-2.9792,-2.9792,-2.934,-2.8938,-2.89,-2.8047,-2.7228,-2.6675,-2.6063,-2.5711,-2.5711,-2.5674,-2.585,-2.6348,-2.6411,-2.6411,-2.6386,-2.59,-2.59,-2.6474,-2.6537,-2.6549,-2.6549,-2.7102,-2.7356,-2.7406,-2.8486,-2.9277,-2.9792,-2.9792,-2.9792,-2.9792,-2.9792,-2.9792,-2.9792,-2.9792,-2.9792,-2.9792,-2.9792,-2.9792,-2.9546,-2.7383,-2.6554,-2.6182,-2.8109,-2.8448,-2.87,-2.87,-2.9214,-2.9591,-2.9591,-2.9704,-2.9792,-2.9792,-2.9792,-2.9792,-2.9792,-2.9792,-2.9792,-2.9792,-2.9792,-2.9792,-2.9792,-2.9792,-2.9792,-2.9792,-2.9792,-2.9792,-2.9792,-2.9792,-2.9792,-2.9792,-2.9792,-2.9792,-2.9792,-2.9792,-2.9792,-2.9792,-2.9792,-3.003,-3.0419,-3.0419,-3.0721,-3.1248,-3.1662,-3.1913,-3.2077,-3.2654,-3.2867,-3.2893,-3.3074,-3.3124,-3.3124,-3.3124,-3.3124,-3.2939,-3.1965,-3.1633,-3.1772,-3.2473,-3.2365,-3.2014,-3.2014,-3.1625,-3.111,-3.0721,-3.0206,-2.9792,-2.9792,-2.9792,-2.9792,-2.9792,-2.9792,-2.9792,-2.9792,-2.9792,-2.9792,-2.9792,-2.9679,-2.9428,-2.895,-2.8662,-2.8335,-2.7783,-2.7218,-2.6892,-2.6892,-2.6537,-2.5996,-2.5259,-2.5573,-2.5624,-2.5222,-2.5908,-2.6348,-2.6487,-2.6901,-2.7115,-2.7115,-2.7632,-2.8122,-2.8512,-2.9252,-2.9666,-2.9792,-2.9792,-2.9792,-2.9792,-2.9792,-2.9792,-2.9792,-2.9792,-2.9792,-2.9792,-2.9792,-2.9792,-2.9624,-2.8227,-2.7197,-2.6307,-2.8875,-2.9114,-2.9327,-2.9327,-2.9578,-2.9792,-2.9792,-2.9792,-2.9792,-2.9792,-2.9792,-2.9792,-2.9792,-2.9792,-2.9792,-2.9792,-2.9792,-2.9792,-2.9792,-2.9792,-2.9792,-2.9792,-2.9792,-2.9792,-2.9792,-2.9792,-2.9792,-2.9792,-2.9792,-2.9792,-2.9792,-2.9792,-2.9792,-2.9804,-3.0055,-3.0331,-3.0633,-3.0871,-3.1286,-3.1788,-3.2089,-3.2365,-3.2641,-3.2998,-3.3124,-3.3124,-3.3124,-3.3124,-3.3124,-3.3124,-3.3124,-3.2884,-3.1589,-3.1223,-3.1223,-3.1368,-3.1571,-3.173,-3.173,-3.1744,-3.1587,-3.0809,-3.0394,-3.0105,-2.9854,-2.9792,-2.9792,-2.9792,-2.9792,-2.9792,-2.9792,-2.9792,-2.9792,-2.9792,-2.9566,-2.9377,-2.934,-2.8875,-2.8536,-2.8486,-2.7996,-2.7657,-2.7657,-2.7394,-2.6967,-2.6364,-2.659,-2.6628,-2.6339,-2.6892,-2.7128,-2.6876,-2.7369,-2.7657,-2.7657,-2.821,-2.8762,-2.9327,-2.9641,-2.9792,-2.9792,-2.9792,-2.9792,-2.9792,-2.9792,-2.9792,-2.9792,-2.9792,-2.9792,-2.9792,-2.9792,-2.9792,-2.9585,-2.7988,-2.7005,-2.6265,-2.9792,-2.9792,-2.9792,-2.9792,-2.9792,-2.9792,-2.9792,-2.9792,-2.9792,-2.9792,-2.9792,-2.9792,-2.9792,-2.9792,-2.9792,-2.9792,-2.9792,-2.9792,-2.9792,-2.9792,-2.9792,-2.9792,-2.9792,-2.9792,-2.9792,-2.9792,-2.9792,-2.9792,-2.9792,-2.9792,-2.9792,-2.988,-2.9917,-2.9942,-3.0482,-3.0783,-3.0884,-3.1323,-3.1838,-3.234,-3.234,-3.2641,-3.3124,-3.3124,-3.3124,-3.3124,-3.3124,-3.3124,-3.3124,-3.3124,-3.3124,-3.2853,-3.1412,-3.1033,-3.0944,-2.9544,-3.0135,-3.1223,-3.1223,-3.1693,-3.1976,-3.0984,-3.067,-3.047,-2.9917,-2.9792,-2.9792,-2.9792,-2.9792,-2.9792,-2.9792,-2.9792,-2.9729,-2.9566,-2.9264,-2.9126,-2.9503,-2.8863,-2.8536,-2.8963,-2.8561,-2.8235,-2.8235,-2.816,-2.8109,-2.8109,-2.8109,-2.8109,-2.8109,-2.8185,-2.8009,-2.7544,-2.7984,-2.8273,-2.836,-2.8625,-2.9137,-2.9792,-2.9624,-2.9624,-2.9792,-2.9792,-2.9792,-2.9792,-2.9792,-2.9792,-2.9792,-2.9792,-2.9792,-2.9792,-2.9792,-2.9702,-2.9326,-2.7424,-2.6513,-2.5975,-2.9792,-2.9792,-2.9792,-2.9792,-2.9792,-2.9792,-2.9792,-2.9792,-2.9792,-2.9792,-2.9792,-2.9792,-2.9792,-2.9792,-2.9792,-2.9792,-2.9792,-2.9792,-2.9792,-2.9792,-2.9792,-2.9792,-2.9792,-2.9792,-2.9792,-2.9792,-2.9792,-2.9792,-2.9792,-2.9792,-2.9804,-3.0269,-3.0482,-3.0507,-3.1035,-3.1524,-3.1976,-3.2051,-3.2416,-3.2943,-3.2943,-3.3006,-3.3124,-3.3124,-3.3124,-3.3124,-3.3124,-3.3124,-3.3124,-3.3124,-3.3124,-3.2711,-3.0406,-3.0406,-3.0765,-2.8541,-2.9453,-3.1223,-3.1223,-3.1693,-3.2064,-3.1424,-3.0947,-3.047,-2.9917,-2.9792,-2.9792,-2.9792,-2.9792,-2.9792,-2.9792,-2.9792,-2.9478,-2.8524,-2.9089,-2.9365,-2.8499,-2.9038,-2.9566,-2.9641,-2.9151,-2.8762,-2.8762,-2.8386,-2.8109,-2.8109,-2.8109,-2.8109,-2.8109,-2.8512,-2.8725,-2.8637,-2.8712,-2.9038,-2.9528,-2.8636,-2.876,-2.9792,-2.8806,-2.8858,-2.9792,-2.9792,-2.9792,-2.9792,-2.9792,-2.9792,-2.9792,-2.9792,-2.9792,-2.9792,-2.9792,-2.9197,-2.8307,-2.7976,-2.6655,-2.4999,-2.9792,-2.9792,-2.9792,-2.9792,-2.9792,-2.9792,-2.9792,-2.9792,-2.9792,-2.9792,-2.9792,-2.9792,-2.9792,-2.9792,-2.9792,-2.9792,-2.9792,-2.9792,-2.9792,-2.9792,-2.9792,-2.9792,-2.9792,-2.9792,-2.9792,-2.9792,-2.9942,-3.0231,-3.0231,-3.0382,-3.0658,-3.0922,-3.1035,-3.1047,-3.1587,-3.1976,-3.2227,-3.2554,-3.283,-3.3124,-3.3124,-3.3124,-3.3124,-3.3124,-3.3124,-3.3124,-3.3124,-3.3124,-3.3124,-3.3124,-3.3124,-3.2797,-3.0956,-3.0765,-3.0855,-2.9096,-2.9818,-3.1356,-3.2052,-3.2469,-3.2466,-3.1612,-3.121,-3.0809,-2.998,-2.9792,-2.9792,-2.9792,-2.9792,-2.9792,-2.9792,-2.9792,-2.9628,-2.9101,-2.9189,-2.9252,-2.9038,-2.9202,-2.9453,-2.9754,-2.9553,-2.939,-2.939,-2.9164,-2.9013,-2.9013,-2.9013,-2.9013,-2.9013,-2.9252,-2.939,-2.939,-2.939,-2.9528,-2.9792,-2.9287,-2.8976,-2.8897,-2.8976,-2.8976,-2.8897,-2.9534,-2.9792,-2.9792,-2.9792,-2.9792,-2.9792,-2.9792,-2.9792,-2.9792,-2.9792,-2.9495,-2.8858,-2.7695,-2.6584,-2.5557,-2.9792,-2.9792,-2.9792,-2.9792,-2.9792,-2.9792,-2.9792,-2.9792,-2.9792,-2.9792,-2.9792,-2.9792,-2.9792,-2.9792,-2.9792,-2.9792,-2.9792,-2.9792,-2.9792,-2.9792,-2.9792,-2.9792,-2.9792,-2.9854,-2.998,-2.998,-3.0244,-3.0796,-3.0796,-3.0997,-3.1386,-3.1524,-3.1587,-3.1599,-3.2164,-3.2416,-3.2441,-3.288,-3.3124,-3.3124,-3.3124,-3.3124,-3.3124,-3.3124,-3.3124,-3.3124,-3.3124,-3.3124,-3.3124,-3.3124,-3.3124,-3.2884,-3.1589,-3.14,-3.1412,-3.0181,-3.0676,-3.1865,-3.284,-3.3124,-3.2847,-3.1662,-3.1386,-3.111,-3.003,-2.9792,-2.9792,-2.9792,-2.9792,-2.9792,-2.9792,-2.9792,-2.9704,-2.9453,-2.9252,-2.9189,-2.9377,-2.9239,-2.9289,-2.9741,-2.9792,-2.9792,-2.9792,-2.9792,-2.9792,-2.9792,-2.9792,-2.9792,-2.9792,-2.9792,-2.9792,-2.9792,-2.9792,-2.9792,-2.9792,-2.93,-2.874,-2.8096,-2.874,-2.87,-2.8136,-2.9287,-2.9792,-2.9792,-2.9792,-2.9792,-2.9792,-2.9792,-2.9792,-2.9792,-2.9792,-2.9624,-2.9197,-2.7504,-2.6719,-2.6224,-2.9792,-2.9792,-2.9792,-2.9792,-2.9792,-2.9792,-2.9792,-2.9792,-2.9792,-2.9792,-2.9792,-2.9792,-2.9792,-2.9792,-2.9792,-2.9792,-2.9792,-2.9792,-2.9792,-2.9792,-2.9792,-2.9792,-2.9792,-3.003,-3.0545,-3.0557,-3.0809,-3.1336,-3.1336,-3.1348,-3.1399,-3.1913,-3.2152,-3.2177,-3.2754,-3.3018,-3.3061,-3.3056,-3.3124,-3.3124,-3.3124,-3.3124,-3.3124,-3.3124,-3.3124,-3.3124,-3.3124,-3.3124,-3.3124,-3.3124,-3.3124,-3.2884,-3.1589,-3.2008,-3.2711,-3.1456,-3.1965,-3.2982,-3.3068,-3.3124,-3.2847,-3.1662,-3.1386,-3.111,-3.003,-2.9792,-2.9792,-2.9792,-2.9792,-2.9792,-2.9792,-2.9792,-2.9453,-2.8398,-2.9076,-2.9377,-2.8373,-2.9101,-2.9741,-2.9779,-2.9792,-2.9792,-2.9792,-2.9792,-2.9792,-2.9792,-2.9792,-2.9792,-2.9792,-2.9792,-2.9792,-2.9792,-2.9792,-2.9792,-2.9792,-2.7758,-2.7209,-2.8096,-2.7168,-2.7209,-2.8136,-2.9287,-2.9792,-2.9792,-2.9792,-2.9792,-2.9792,-2.9792,-2.9792,-2.9792,-2.9792,-2.9157,-2.8215,-2.8056,-2.736,-2.6348,-2.9792,-2.9792,-2.9792,-2.9792,-2.9792,-2.9792,-2.9792,-2.9792,-2.9917,-3.0256,-3.0306,-3.0419,-3.0746,-3.0783,-3.0783,-3.0783,-3.0783,-3.0783,-3.0783,-3.0783,-3.0633,-3.0319,-3.0306,-3.0545,-3.1085,-3.1097,-3.1361,-3.1901,-3.1901,-3.2089,-3.2441,-3.2654,-3.2754,-3.2754,-3.298,-3.3124,-3.3124,-3.3124,-3.3124,-3.3124,-3.3124,-3.3124,-3.3124,-3.3124,-3.3124,-3.3124,-3.3124,-3.3124,-3.3124,-3.3124,-3.3124,-3.3025,-3.2513,-3.2711,-3.2982,-3.2513,-3.2698,-3.3124,-3.3124,-3.3124,-3.2847,-3.1662,-3.0881,-3.031,-2.9874,-2.9236,-2.8937,-2.9663,-2.9792,-2.9792,-2.9792,-2.9792,-2.9654,-2.9214,-2.9515,-2.9641,-2.9214,-2.9528,-2.9792,-2.9792,-2.9792,-2.9792,-2.9792,-2.9792,-2.9792,-2.9792,-2.9792,-2.9792,-2.9792,-2.9792,-2.9792,-2.9792,-2.9792,-2.9456,-2.8767,-2.8621,-2.8039,-2.7128,-2.8079,-2.841,-2.8136,-2.9287,-2.9792,-2.9792,-2.9792,-2.9792,-2.9792,-2.9792,-2.9792,-2.9792,-2.9792,-2.9534,-2.9067,-2.8347,-2.7844,-2.7238,-3.0121,-3.0181,-3.0294,-3.0294,-3.0294,-3.0294,-3.0294,-3.0294,-3.0432,-3.0809,-3.0859,-3.0997,-3.1348,-3.1386,-3.1386,-3.1386,-3.1386,-3.1386,-3.1386,-3.1386,-3.1235,-3.0871,-3.0859,-3.1097,-3.1637,-3.165,-3.1913,-3.2478,-3.2478,-3.2692,-3.3124,-3.3124,-3.3124,-3.3124,-3.3124,-3.3124,-3.3124,-3.3124,-3.3124,-3.3124,-3.3124,-3.3124,-3.3124,-3.3124,-3.3124,-3.3124,-3.3124,-3.3124,-3.3124,-3.3124,-3.3124,-3.3124,-3.3124,-3.3124,-3.3124,-3.3124,-3.284,-3.2612,-3.2982,-3.2445,-3.1589,-3.1021,-3.0457,-2.9898,-2.9406,-2.8937,-2.8858,-2.9624,-2.9792,-2.9792,-2.9792,-2.9792,-2.9792,-2.9792,-2.9792,-2.9792,-2.9792,-2.9792,-2.9792,-2.9792,-2.9792,-2.9792,-2.9792,-2.9495,-2.9404,-2.9753,-2.9495,-2.9404,-2.9792,-2.9792,-2.9792,-2.9792,-2.9792,-2.9236,-2.8124,-2.8897,-2.849,-2.7005,-2.853,-2.8858,-2.8136,-2.9287,-2.9792,-2.9792,-2.9792,-2.9792,-2.9792,-2.9792,-2.9792,-2.9792,-2.9792,-2.9792,-2.9702,-2.8937,-2.8636,-2.8319,-3.0794,-3.1035,-3.1386,-3.1386,-3.1386,-3.1386,-3.1386,-3.1386,-3.1386,-3.1399,-3.1399,-3.1399,-3.1399,-3.1399,-3.1399,-3.1399,-3.1399,-3.1399,-3.1399,-3.1399,-3.1399,-3.1399,-3.1399,-3.165,-3.2202,-3.2227,-3.2503,-3.3124,-3.3124,-3.3124,-3.3124,-3.3124,-3.3124,-3.3124,-3.3124,-3.3124,-3.3124,-3.3124,-3.3124,-3.3124,-3.3124,-3.3124,-3.3124,-3.3124,-3.3124,-3.3124,-3.3124,-3.3124,-3.3124,-3.3124,-3.3124,-3.3124,-3.3124,-3.3068,-3.3081,-3.3081,-3.2196,-3.1456,-3.2754,-3.0998,-2.8966,-2.9638,-3.02,-3.0127,-2.8467,-2.8976,-2.9792,-2.9792,-2.9792,-2.9792,-2.9792,-2.9792,-2.9792,-2.9792,-2.9792,-2.9792,-2.9792,-2.9792,-2.9792,-2.9792,-2.9792,-2.9792,-2.9792,-2.8767,-2.8557,-2.9702,-2.8727,-2.8597,-2.9753,-2.9792,-2.9792,-2.9792,-2.9792,-2.9275,-2.8124,-2.8124,-2.8124,-2.8096,-2.8124,-2.8124,-2.8136,-2.9287,-2.9804,-2.9804,-2.9804,-2.9804,-2.9804,-2.9804,-2.9804,-2.9804,-2.9804,-2.9804,-2.9804,-2.9804,-2.9804,-2.9507,-3.2346,-3.1826,-3.1386,-3.1386,-3.1386,-3.1386,-3.1386,-3.1386,-3.1537,-3.1913,-3.1964,-3.2114,-3.2528,-3.2566,-3.2566,-3.2566,-3.2566,-3.2566,-3.2566,-3.2566,-3.2566,-3.2566,-3.219,-3.224,-3.2805,-3.2817,-3.2905,-3.3124,-3.3124,-3.3124,-3.3124,-3.3124,-3.3124,-3.3124,-3.3124,-3.3124,-3.3124,-3.3124,-3.3124,-3.3124,-3.3124,-3.3124,-3.3124,-3.3124,-3.3124,-3.3124,-3.3124,-3.3124,-3.3124,-3.3124,-3.3124,-3.3124,-3.3124,-3.2469,-3.1777,-3.1777,-3.0911,-3.0226,-3.1412,-3.0581,-2.9429,-2.9725,-2.9034,-2.8257,-2.8134,-2.8347,-2.8819,-2.9624,-2.9792,-2.9792,-2.9792,-2.9792,-2.9792,-2.9792,-2.9792,-2.9792,-2.9792,-2.9792,-2.9495,-2.8688,-2.9326,-2.917,-2.7637,-2.7855,-2.7936,-2.7516,-2.7855,-2.8597,-2.9753,-2.9792,-2.9792,-2.9792,-2.9792,-2.9624,-2.9287,-2.9275,-2.8897,-2.8124,-2.8897,-2.9275,-2.9339,-3.0024,-3.0369,-3.0394,-3.0758,-3.0909,-3.0909,-3.0909,-3.0909,-3.0909,-3.0909,-3.0909,-3.0871,-3.0507,-3.0369,-2.9978,-3.3997,-3.3263,-3.2716,-3.2716,-3.2371,-3.2051,-3.2051,-3.2051,-3.2177,-3.2503,-3.2554,-3.2692,-3.3043,-3.3124,-3.3124,-3.3124,-3.3124,-3.3124,-3.3124,-3.3124,-3.3124,-3.3124,-3.2742,-3.2717,-3.3111,-3.3124,-3.3124,-3.3124,-3.3124,-3.3124,-3.3124,-3.3124,-3.3124,-3.3124,-3.3124,-3.3124,-3.3124,-3.3124,-3.3124,-3.3124,-3.3124,-3.3124,-3.3124,-3.3124,-3.3124,-3.3124,-3.3124,-3.3124,-3.3124,-3.3124,-3.3124,-3.3124,-3.3124,-3.2568,-3.1965,-3.1965,-3.1089,-3.0361,-3.1645,-3.0462,-2.906,-2.9635,-2.9047,-2.8268,-2.8127,-2.8466,-2.8976,-2.9663,-2.9792,-2.9792,-2.9792,-2.9792,-2.9792,-2.9792,-2.9792,-2.9792,-2.9792,-2.9404,-2.8858,-2.8176,-2.8727,-2.8609,-2.725,-2.7319,-2.6994,-2.5922,-2.7654,-2.8897,-2.9106,-2.9585,-2.9792,-2.9792,-2.9792,-2.9792,-2.9792,-2.9792,-2.9443,-2.8767,-2.9495,-2.9905,-3.0131,-3.047,-3.0733,-3.0934,-3.1248,-3.1386,-3.1386,-3.1386,-3.1386,-3.1386,-3.1386,-3.1386,-3.1348,-3.1035,-3.0922,-3.0617,-3.577,-3.5209,-3.4828,-3.4705,-3.3869,-3.324,-3.324,-3.3154,-3.3111,-3.324,-3.3154,-3.3124,-3.3124,-3.3124,-3.3124,-3.3124,-3.3124,-3.3124,-3.3124,-3.3124,-3.3124,-3.3124,-3.3124,-3.3124,-3.3124,-3.3124,-3.3124,-3.3124,-3.3124,-3.3124,-3.3124,-3.3124,-3.3124,-3.3124,-3.3124,-3.3124,-3.3124,-3.3124,-3.3124,-3.3124,-3.3124,-3.3124,-3.3124,-3.3124,-3.3124,-3.3124,-3.3124,-3.3124,-3.3124,-3.3124,-3.3124,-3.3124,-3.3124,-3.3025,-3.2939,-3.2939,-3.2052,-3.1323,-3.2612,-3.0596,-2.843,-2.9706,-2.9951,-2.9557,-2.8359,-2.8976,-2.9792,-2.9792,-2.9792,-2.9792,-2.9792,-2.9792,-2.9792,-2.9792,-2.9792,-2.9792,-2.9792,-2.8897,-2.8176,-2.7964,-2.8044,-2.8004,-2.7844,-2.6912,-2.5975,-2.4999,-2.7706,-2.8988,-2.8136,-2.9067,-2.9702,-2.9792,-2.9792,-2.9792,-2.9792,-2.9792,-2.9792,-2.9792,-2.9842,-3.0131,-3.062,-3.0721,-3.1022,-3.1461,-3.1512,-3.1537,-3.1537,-3.1537,-3.1537,-3.1537,-3.1537,-3.1537,-3.1537,-3.1486,-3.1461,-3.1285,-3.731,-3.6535,-3.5628,-3.4815,-3.4511,-3.4345,-3.4345,-3.3641,-3.3398,-3.4233,-3.3641,-3.3124,-3.3124,-3.3124,-3.3124,-3.3124,-3.3124,-3.3124,-3.3124,-3.3124,-3.3124,-3.3124,-3.3124,-3.3124,-3.3124,-3.3124,-3.3124,-3.3124,-3.3124,-3.3124,-3.3124,-3.3124,-3.3124,-3.3124,-3.3124,-3.3124,-3.3124,-3.3124,-3.3124,-3.3124,-3.3124,-3.3124,-3.3124,-3.3124,-3.3124,-3.3124,-3.3124,-3.3124,-3.3124,-3.3124,-3.3124,-3.3124,-3.3124,-3.2426,-3.1589,-3.1589,-3.0732,-3.0045,-3.1267,-3.0759,-3.013,-3.1373,-3.106,-3.0017,-2.8483,-2.8976,-2.9792,-2.9792,-2.9792,-2.9792,-2.9792,-2.9792,-2.9792,-2.9792,-2.9792,-2.9792,-2.9792,-2.9585,-2.8791,-2.7046,-2.7602,-2.7429,-2.5692,-2.5294,-2.542,-2.6099,-2.5964,-2.6532,-2.8004,-2.8347,-2.8897,-2.9753,-2.9792,-2.9792,-2.9792,-2.9792,-2.9792,-2.9804,-3.0231,-3.0507,-3.0645,-3.1486,-3.1926,-3.2051,-3.2516,-3.2717,-3.2717,-3.2717,-3.2717,-3.2717,-3.2717,-3.2717,-3.2654,-3.2202,-3.2039,-3.1659,-3.8546,-3.7701,-3.6788,-3.6279,-3.5762,-3.544,-3.544,-3.454,-3.4079,-3.4622,-3.3755,-3.3124,-3.3124,-3.3124,-3.3124,-3.3124,-3.3124,-3.3124,-3.3124,-3.3124,-3.3124,-3.3124,-3.3124,-3.3124,-3.3124,-3.3124,-3.3124,-3.3124,-3.3124,-3.3124,-3.3124,-3.3124,-3.3124,-3.3124,-3.3124,-3.3124,-3.3124,-3.3124,-3.3124,-3.3124,-3.3124,-3.3124,-3.3124,-3.3124,-3.3124,-3.3124,-3.3124,-3.3124,-3.3124,-3.3124,-3.3124,-3.3124,-3.3124,-3.2655,-3.2096,-3.2096,-3.1645,-3.1279,-3.1909,-3.1693,-3.1418,-3.2034,-3.1599,-3.0673,-2.957,-2.9551,-2.9792,-2.9792,-2.9792,-2.9792,-2.9792,-2.9792,-2.9792,-2.9792,-2.9792,-2.9792,-2.9792,-2.9326,-2.8569,-2.7412,-2.7319,-2.6655,-2.4957,-2.5734,-2.5953,-2.4935,-2.5786,-2.6655,-2.7279,-2.7804,-2.8636,-2.9753,-2.9792,-2.9917,-3.0181,-3.0181,-3.0306,-3.0557,-3.0595,-3.0884,-3.1399,-3.1964,-3.2365,-3.2641,-3.2943,-3.3124,-3.3124,-3.3124,-3.3124,-3.3124,-3.3124,-3.3124,-3.3043,-3.2742,-3.2251,-3.1447,-3.9388,-3.8671,-3.8032,-3.7829,-3.706,-3.6487,-3.6487,-3.5588,-3.4979,-3.4979,-3.4024,-3.3313,-3.3124,-3.3124,-3.3124,-3.3124,-3.3124,-3.3124,-3.3124,-3.3124,-3.3124,-3.3124,-3.3124,-3.3124,-3.3124,-3.3124,-3.3197,-3.3356,-3.3197,-3.3197,-3.3356,-3.3197,-3.3124,-3.3124,-3.3124,-3.3124,-3.3124,-3.3124,-3.3124,-3.3124,-3.3124,-3.3124,-3.3124,-3.3124,-3.3124,-3.3124,-3.3124,-3.3124,-3.3124,-3.3124,-3.3124,-3.3124,-3.3124,-3.3124,-3.3124,-3.3124,-3.3124,-3.3124,-3.3124,-3.2717,-3.2353,-3.2353,-3.1938,-3.1424,-3.0984,-3.047,-3.0068,-3.0068,-3.0068,-3.0068,-3.0068,-2.9993,-2.9891,-2.9683,-2.9725,-2.974,-2.9534,-2.8688,-2.8096,-2.8096,-2.7168,-2.6058,-2.4914,-2.6479,-2.6438,-2.3887,-2.5911,-2.7023,-2.6524,-2.7319,-2.8395,-2.9592,-2.9852,-3.0193,-3.0746,-3.0746,-3.1009,-3.1524,-3.1097,-3.1361,-3.2215,-3.2315,-3.2616,-3.3124,-3.3124,-3.3124,-3.3124,-3.3124,-3.3124,-3.3124,-3.3124,-3.3124,-3.3124,-3.3124,-3.2152,-3.0765,-3.9388,-3.9265,-3.8907,-3.7956,-3.7663,-3.7587,-3.7587,-3.6696,-3.6013,-3.6013,-3.5129,-3.4108,-3.3197,-3.3124,-3.3124,-3.3124,-3.3124,-3.3124,-3.3124,-3.3124,-3.3124,-3.3124,-3.3124,-3.3124,-3.3124,-3.3124,-3.3556,-3.447,-3.3556,-3.3556,-3.447,-3.3513,-3.3124,-3.3124,-3.3124,-3.3124,-3.3124,-3.3124,-3.3124,-3.3124,-3.3124,-3.3124,-3.3124,-3.3124,-3.3124,-3.3124,-3.3124,-3.3124,-3.3124,-3.3124,-3.3124,-3.3124,-3.3124,-3.3124,-3.3124,-3.3124,-3.3124,-3.3124,-3.3124,-3.3061,-3.2998,-3.2998,-3.2528,-3.2077,-3.2014,-3.1574,-3.1173,-3.1173,-3.1173,-3.1173,-3.1173,-3.0809,-3.0152,-2.9193,-2.9453,-2.9456,-2.8466,-2.8215,-2.8096,-2.8096,-2.7168,-2.6058,-2.4914,-2.5073,-2.5462,-2.6016,-2.4638,-2.4553,-2.64,-2.6648,-2.7405,-2.8966,-2.9979,-3.0758,-3.1286,-3.1286,-3.1562,-3.2102,-3.2026,-3.2077,-3.2227,-3.2729,-3.3006,-3.3124,-3.3124,-3.3124,-3.3124,-3.3124,-3.3124,-3.3124,-3.3124,-3.3124,-3.3124,-3.3124,-3.1645,-2.9636,-3.9388,-3.9388,-3.9265,-3.8782,-3.8708,-3.8708,-3.8708,-3.7776,-3.7098,-3.7098,-3.5695,-3.4511,-3.4037,-3.3484,-3.3124,-3.3124,-3.3124,-3.3124,-3.3124,-3.3124,-3.3356,-3.3953,-3.3441,-3.3628,-3.4802,-3.4262,-3.4787,-3.645,-3.4191,-3.3641,-3.4705,-3.4233,-3.367,-3.3111,-3.3713,-3.367,-3.3124,-3.3124,-3.3124,-3.3124,-3.3124,-3.3124,-3.3124,-3.3124,-3.3124,-3.3124,-3.3124,-3.3124,-3.3124,-3.3124,-3.3124,-3.3124,-3.3124,-3.3124,-3.3124,-3.3124,-3.3124,-3.3124,-3.3124,-3.3124,-3.3124,-3.3124,-3.288,-3.2692,-3.2692,-3.2503,-3.2152,-3.1512,-3.1386,-3.1386,-3.1386,-3.1198,-3.0658,-2.9487,-2.9513,-2.9179,-2.7741,-2.8076,-2.8174,-2.7325,-2.6213,-2.5094,-2.3963,-2.4414,-2.4755,-2.4606,-2.4851,-2.555,-2.6875,-2.75,-2.861,-3.0229,-3.0779,-3.1298,-3.1838,-3.1851,-3.2139,-3.2692,-3.2692,-3.2692,-3.2704,-3.2968,-3.3124,-3.3124,-3.3124,-3.3124,-3.3124,-3.3124,-3.3124,-3.3124,-3.3124,-3.3124,-3.3124,-3.3124,-3.1965,-3.0316]},{"header":{"parameterUnit":"m.s-1","parameterCategory":1,"la1":30.6,"la2":28.766,"lo1":-90.7593,"lo2":-88.6598,"dy":0.0162,"dx":0.0183,"nx":116,"ny":114,"refTime":"2023-11-15T18:00:00:Z","depth":0,"parameterNumber":3,"parameterNumberName":"V-component_of_WINDS"},"data":[0.0,0.0,0.0,0.0,0.0,0.0,0.0,0.0,0.0,0.0,0.0,0.0,0.0,0.0,0.0,0.0,0.0,0.0,0.0,0.0,0.0,0.0,0.0,0.0,0.0,0.0,0.0,0.0,0.0,0.0,0.0,0.0,0.0,0.0,0.0,0.0,0.0,0.0,0.0,0.0,0.0,0.0,0.0,0.0,0.0,0.0,0.0,0.0,0.0,0.0,0.0,0.0,0.0,0.0,0.0,0.0,0.0,0.0,0.0,0.0,0.0,0.0,0.0,0.0,0.0,0.0,0.0,0.0,0.0,0.0,0.0,0.0,0.0,0.0,0.0,0.0,0.0,0.0,0.0,0.0,0.0,0.0,0.0,0.0,0.0,0.0,0.0,0.0,0.0,0.0,0.0,0.0,0.0,0.0,0.0,0.0,0.0,0.0,0.0,0.0,0.0,0.0,0.0,0.0,0.0,0.0,0.0,0.0,0.0,0.0,0.0,0.0,0.0,0.0,0.0,0.0,0.0,0.0,0.0,0.0,0.0,0.0,0.0,0.0,0.0,0.0,0.0,0.0,0.0,0.0,0.0,0.0,0.0,0.0,0.0,0.0,0.0,0.0,0.0,0.0,0.0,0.0,0.0,0.0,0.0,0.0,0.0,0.0,0.0,0.0,0.0,0.0,0.0,0.0,0.0,0.0,0.0,0.0,0.0,0.0,0.0,0.0,0.0,0.0,0.0,0.0,0.0,0.0,0.0,0.0,0.0,0.0,0.0,0.0,0.0,0.0,0.0,0.0,0.0,0.0,0.0,0.0,0.0,0.0,0.0,0.0,0.0,0.0,0.0,0.0,0.0,0.0,0.0,0.0,0.0,0.0,0.0,0.0,0.0,0.0,0.0,0.0,0.0,0.0,0.0,0.0,0.0,0.0,0.0,0.0,0.0,0.0,0.0,0.0,0.0,0.0,0.0,0.0,0.0,0.0,0.0,0.0,0.0,0.0,0.0,0.0,0.0,0.0,0.0,0.0,0.0,0.0,0.0,0.0,0.0,0.0,0.0,0.0,0.0,0.0,0.0,0.0,0.0,0.0,0.0,0.0,0.0,0.0,0.0,0.0,0.0,0.0,0.0,0.0,0.0,0.0,0.0,0.0,0.0,0.0,0.0,0.0,0.0,0.0,0.0,0.0,0.0,0.0,0.0,0.0,0.0,0.0,0.0,0.0,0.0,0.0,0.0,0.0,0.0,0.0,0.0,0.0,0.0,0.0,0.0,0.0,0.0,0.0,0.0,0.0,0.0,0.0,0.0,0.0,0.0,0.0,0.0,0.0,0.0,0.0,0.0,0.0,0.0,0.0,0.0,0.0,0.0,0.0,0.0,0.0,0.0,0.0,0.0,0.0,0.0,0.0,0.0,0.0,0.0,0.0,0.0,0.0,0.0,0.0,0.0,0.0,0.0,0.0,0.0,0.0,0.0,0.0,0.0,0.0,0.0,0.0,0.0,0.0,0.0,0.0,0.0,0.0,0.0,0.0,0.0,0.0,0.0,0.0,0.0,0.0,0.0,0.0,0.0,0.0,0.0,0.0,0.0,0.0,0.0,0.0,0.0,0.0,0.0,0.0,0.0,0.0,0.0,0.0,0.0,0.0,0.0,0.0,0.0,0.0,0.0,0.0,0.0,0.0,0.0,0.0,0.0,0.0,0.0,0.0,0.0,0.0,0.0,0.0,0.0,0.0,0.0,0.0,0.0,0.0,0.0,0.0,0.0,0.0,0.0,0.0,0.0,0.0,0.0,0.0,0.0,0.0,0.0,0.0,0.0,0.0,0.0,0.0,0.0,0.0,0.0,0.0,0.0,0.0,0.0,0.0,0.0,0.0,0.0,0.0,0.0,0.0,0.0,0.0,0.0,0.0,0.0,0.0,0.0,0.0,0.0,0.0,0.0,0.0,0.0,0.0,0.0,0.0,0.0,0.0,0.0,0.0,0.0,0.0,0.0,0.0,0.0,0.0,0.0,0.0,0.0,0.0,0.0,0.0,0.0,0.0,0.0,0.0,0.0,0.0,0.0,0.0,0.0,0.0,0.0,0.0,0.0,0.0,0.0,0.0,0.0,0.0,0.0,0.0,0.0,0.0,0.0,0.0,0.0,0.0,0.0,0.0,0.0,0.0,0.0,0.0,0.0,0.0,0.0,0.0,0.0,0.0,0.0,0.0,0.0,0.0,0.0,0.0,0.0,0.0,0.0,0.0,0.0,0.0,0.0,0.0,0.0,0.0,0.0,0.0,0.0,0.0,0.0,0.0,0.0,0.0,0.0,0.0,0.0,0.0,0.0,0.0,0.0,0.0,0.0,0.0,0.0,0.0,0.0,0.0,0.0,0.0,0.0,0.0,0.0,0.0,0.0,0.0,0.0,0.0,0.0,0.0,0.0,0.0,0.0,0.0,0.0,0.0,0.0,0.0,0.0,0.0,0.0,0.0,0.0,0.0,0.0,0.0,0.0,0.0,0.0,0.0,0.0,0.0,0.0,0.0,0.0,0.0,0.0,0.0,0.0,0.0,0.0,0.0,0.0,0.0,0.0,0.0,0.0,0.0,0.0,0.0,0.0,0.0,0.0,0.0,0.0,0.0,0.0,0.0,0.0,0.0,0.0,0.0,0.0,0.0,0.0,0.0,0.0,0.0,0.0,0.0,0.0,0.0,0.0,0.0,0.0,0.0,0.0,0.0,0.0,0.0,0.0,0.0,0.0,0.0,0.0,0.0,0.0,0.0,0.0,0.0,0.0,0.0,0.0,0.0,0.0,0.0,0.0,0.0,0.0,0.0,0.0,0.0,0.0,0.0,0.0,0.0,0.0,0.0,0.0,0.0,0.0,0.0,0.0,0.0,0.0,0.0,0.0,0.0,0.0,0.0,0.0,0.0,0.0,0.0,0.0,0.0,0.0,0.0,0.0,0.0,0.0,0.0,0.0,0.0,0.0,0.0,0.0,0.0,0.0,0.0,0.0,0.0,0.0,0.0,0.0,0.0,0.0,0.0,0.0,0.0,0.0,0.0,0.0,0.0,0.0,0.0,0.0,0.0,0.0,0.0,0.0,0.0,0.0,0.0,0.0,0.0,0.0,0.0,0.0,0.0,0.0,0.0,0.0,0.0,0.0,0.0,0.0,0.0,0.0,0.0,0.0,0.0,0.0,0.0,0.0,0.0,0.0,0.0,0.0,0.0,0.0,0.0,0.0,0.0,0.0,0.0,0.0,0.0,0.0,0.0,0.0,0.0,0.0,0.0,0.0,0.0,0.0,0.0,0.0,0.0,0.0,0.0,0.0,0.0,0.0,0.0,0.0,0.0,0.0,0.0,0.0,0.0,0.0,0.0,0.0,0.0,0.0,0.0,0.0,0.0,0.0,0.0,0.0,0.0,0.0,0.0,0.0,0.0,0.0,0.0,0.0,0.0,0.0,0.0,0.0,0.0,0.0,0.0,0.0,0.0,0.0,0.0,0.0,0.0,0.0,0.0,0.0,0.0,0.0,0.0,0.0,0.0,0.0,0.0,0.0,0.0,0.0,0.0,0.0,0.0,0.0,0.0,0.0,0.0,0.0,0.0,0.0,0.0,0.0,0.0,0.0,0.0,0.0,0.0,0.0,0.0,0.0,0.0,0.0,0.0,0.0,0.0,0.0,0.0,0.0,0.0,0.0,0.0,0.0,0.0,0.0,0.0,0.0,0.0,0.0,0.0,0.0,0.0,0.0,0.0,0.0,0.0,0.0,0.0,0.0,0.0,0.0,0.0,0.0,0.0,0.0,0.0,0.0,0.0,0.0,0.0,0.0,0.0,0.0,0.0,0.0,0.0,0.0,0.0,0.0,0.0,0.0,0.0,0.0,0.0,0.0,0.0,0.0,0.0,0.0,0.0,0.0,0.0,0.0,0.0,0.0,0.0,0.0,0.0,0.0,0.0,0.0,0.0,0.0,0.0,0.0,0.0,0.0,0.0,0.0,0.0,0.0,0.0,0.0,0.0,0.0,0.0,0.0,0.0,0.0,0.0,0.0,0.0,0.0,0.0,0.0,0.0,0.0,0.0,0.0,0.0,0.0,0.0,0.0,0.0,0.0,0.0,0.0,0.0,0.0,0.0,0.0,0.0,0.0,0.0,0.0,0.0,0.0,0.0,0.0,0.0,0.0,0.0,0.0,0.0,0.0,0.0,0.0,0.0,0.0,0.0,0.0,0.0,0.0,0.0,0.0,0.0,0.0,0.0,0.0,0.0,0.0,0.0,0.0,0.0,0.0,0.0,0.0,0.0,0.0,0.0,0.0,0.0,0.0,0.0,0.0,0.0,0.0,0.0,0.0,0.0,0.0,0.0,0.0,0.0,0.0,0.0,0.0,0.0,0.0,0.0,0.0,0.0,0.0,0.0,0.0,0.0,0.0,0.0,0.0,0.0,0.0,0.0,0.0,0.0,0.0,0.0,0.0,0.0,0.0,0.0,0.0,0.0,0.0,0.0,0.0,0.0,0.0,0.0,0.0,0.0,0.0,0.0,0.0,0.0,0.0,0.0,0.0,0.0,0.0,0.0,0.0,0.0,0.0,0.0,0.0,0.0,0.0,0.0,0.0,0.0,0.0,0.0,0.0,0.0,0.0,0.0,0.0,0.0,0.0,0.0,0.0,0.0,0.0,0.0,0.0,0.0,0.0,0.0,0.0,0.0,0.0,0.0,0.0,0.0,0.0,0.0,0.0,0.0,0.0,0.0,0.0,0.0,0.0,0.0,0.0,0.0,0.0,0.0,0.0,0.0,0.0,0.0,0.0,0.0,0.0,0.0,0.0,0.0,0.0,0.0,0.0,0.0,0.0,0.0,0.0,0.0,0.0,0.0,0.0,0.0,0.0,0.0,0.0,0.0,0.0,0.0,0.0,0.0,0.0,0.0,0.0,0.0,0.0,0.0,0.0,0.0,0.0,0.0,0.0,0.0,0.0,0.0,0.0,0.0,0.0,0.0,0.0,0.0,0.0,0.0,0.0,0.0,0.0,0.0,0.0,0.0,0.0,0.0,0.0,0.0,0.0,0.0,0.0,0.0,0.0,0.0,0.0,0.0,0.0,0.0,0.0,0.0,0.0,0.0,0.0,0.0,0.0,0.0,0.0,0.0,0.0,0.0,0.0,0.0,0.0,0.0,0.0,0.0,0.0,0.0,0.0,0.0,0.0,0.0,0.0,0.0,0.0,0.0,0.0,0.0,0.0,0.0,0.0,0.0,0.0,0.0,0.0,0.0,0.0,0.0,0.0,0.0,0.0,0.0,0.0,0.0,0.0,0.0,0.0,0.0,0.0,0.0,0.0,0.0,0.0,0.0,0.0,0.0,0.0,0.0,0.0,0.0,0.0,0.0,0.0,0.0,0.0,0.0,0.0,0.0,0.0,0.0,0.0,0.0,0.0,0.0,0.0,0.0,0.0,0.0,0.0,0.0,0.0,0.0,0.0,0.0,0.0,0.0,0.0,0.0,0.0,0.0,0.0,0.0,0.0,0.0,0.0,0.0,0.0,0.0,0.0,0.0,0.0,0.0,0.0,0.0,0.0,0.0,0.0,0.0,0.0,0.0,0.0,0.0,0.0,0.0,0.0,0.0,0.0,0.0,0.0,0.0,0.0,0.0,0.0,0.0,0.0,0.0,0.0,0.0,0.0,0.0,0.0,0.0,0.0,0.0,0.0,0.0,0.0,0.0,0.0,0.0,0.0,0.0,0.0,0.0,0.0,0.0,0.0,0.0,0.0,0.0,0.0,0.0,0.0,0.0,0.0,0.0,0.0,0.0,0.0,0.0,0.0,0.0,0.0,0.0,0.0,0.0,0.0,0.0,0.0,0.0,0.0,0.0,0.0,0.0,0.0,0.0,0.0,0.0,0.0,0.0,0.0,0.0,0.0,0.0,0.0,0.0,0.0,0.0,0.0,0.0,0.0,0.0,0.0,0.0,0.0,0.0,0.0,0.0,0.0,0.0,0.0,0.0,0.0,0.0,0.0,0.0,0.0,0.0,0.0,0.0,0.0,0.0,0.0,0.0,0.0,0.0,0.0,0.0,0.0,0.0,0.0,0.0,0.0,0.0,0.0,0.0,2.5064,0.0,0.0,0.0,0.0,0.0,0.0,0.0,0.0,0.0,0.0,0.0,0.0,0.0,0.0,0.0,0.0,0.0,0.0,0.0,0.0,0.0,0.0,0.0,0.0,0.0,0.0,0.0,0.0,0.0,0.0,0.0,0.0,0.0,0.0,0.0,0.0,0.0,2.4384,2.5147,2.5921,2.7105,2.8634,2.7995,2.7302,2.6531,0.0,0.0,0.0,0.0,0.0,0.0,0.0,0.0,0.0,0.0,0.0,0.0,0.0,0.0,0.0,0.0,0.0,0.0,0.0,0.0,0.0,0.0,0.0,0.0,0.0,0.0,0.0,0.0,0.0,0.0,0.0,0.0,0.0,0.0,0.0,0.0,0.0,0.0,0.0,0.0,0.0,0.0,0.0,0.0,0.0,0.0,0.0,0.0,0.0,0.0,0.0,0.0,0.0,0.0,0.0,0.0,0.0,0.0,0.0,0.0,0.0,0.0,0.0,0.0,0.0,0.0,0.0,0.0,0.0,0.0,2.6853,2.5553,0.0,0.0,0.0,0.0,0.0,0.0,0.0,0.0,0.0,0.0,0.0,0.0,0.0,0.0,0.0,0.0,0.0,0.0,0.0,0.0,0.0,0.0,0.0,2.2209,2.3444,2.3579,2.3594,2.3543,0.0,0.0,0.0,0.0,0.0,0.0,0.0,2.4275,2.5392,2.6338,2.796,2.9465,3.0834,3.098,3.0338,2.8998,2.7769,0.0,0.0,0.0,0.0,0.0,0.0,0.0,0.0,0.0,0.0,0.0,0.0,0.0,0.0,0.0,0.0,0.0,0.0,0.0,0.0,0.0,0.0,0.0,0.0,0.0,0.0,0.0,0.0,0.0,0.0,0.0,0.0,0.0,0.0,0.0,0.0,0.0,0.0,0.0,0.0,0.0,0.0,0.0,0.0,0.0,0.0,0.0,0.0,0.0,0.0,0.0,0.0,0.0,0.0,0.0,0.0,0.0,0.0,0.0,0.0,0.0,0.0,0.0,3.1079,3.1194,3.1188,3.098,3.1259,3.1819,2.8989,2.8243,2.8847,2.6462,0.0,0.0,0.0,0.0,0.0,0.0,0.0,0.0,0.0,0.0,0.0,0.0,0.0,0.0,0.0,0.0,0.0,0.0,0.0,0.0,0.0,2.2835,2.3661,2.4305,2.4355,2.4085,2.3427,0.0,2.3932,2.3274,2.3892,0.0,2.4262,2.4798,2.5785,2.7215,3.0826,3.2834,3.333,3.4032,3.4252,3.3922,3.1005,2.9335,2.8638,0.0,0.0,0.0,0.0,0.0,0.0,0.0,0.0,0.0,0.0,0.0,0.0,0.0,0.0,0.0,0.0,0.0,0.0,0.0,0.0,0.0,0.0,0.0,0.0,0.0,0.0,0.0,0.0,0.0,0.0,0.0,0.0,0.0,0.0,0.0,0.0,0.0,0.0,0.0,0.0,0.0,2.6404,2.7253,0.0,0.0,0.0,0.0,0.0,0.0,0.0,0.0,0.0,0.0,0.0,0.0,0.0,2.938,2.9811,3.1231,3.2156,3.2583,3.3808,3.4391,3.4382,3.4065,3.3618,3.3062,3.26,0.0,2.9834,2.8737,0.0,0.0,0.0,0.0,0.0,0.0,0.0,0.0,0.0,0.0,0.0,0.0,0.0,0.0,0.0,0.0,0.0,0.0,0.0,0.0,0.0,2.3714,2.4763,2.5084,2.5118,2.4983,2.4661,2.4558,2.4355,2.4034,2.4321,2.4491,2.4491,2.5967,2.8142,3.1002,3.3687,3.5056,3.5202,3.5569,3.5734,3.5679,3.4266,3.2669,3.0931,2.9677,0.0,0.0,0.0,0.0,0.0,0.0,0.0,0.0,0.0,0.0,0.0,0.0,0.0,0.0,0.0,0.0,0.0,0.0,0.0,0.0,0.0,0.0,0.0,0.0,0.0,0.0,0.0,0.0,0.0,0.0,0.0,0.0,0.0,0.0,0.0,0.0,0.0,0.0,0.0,2.6282,2.756,2.8164,2.7733,2.6981,0.0,0.0,0.0,0.0,0.0,0.0,0.0,0.0,0.0,3.0893,3.1911,3.2713,3.3298,3.4027,3.468,3.5275,3.5893,3.6185,3.6174,3.6031,3.5778,3.5402,3.4913,3.4166,3.3118,3.0779,2.927,2.8388,0.0,0.0,0.0,0.0,2.7291,2.695,0.0,0.0,0.0,0.0,0.0,0.0,0.0,0.0,0.0,0.0,0.0,0.0,2.3006,2.478,2.5964,2.615,2.6353,2.6387,2.6167,2.5828,2.5557,2.5338,2.5354,2.5439,2.5642,2.7977,3.0797,3.4119,3.5789,3.6611,3.6611,3.6817,3.6909,3.6909,3.6688,3.5459,3.344,3.1806,3.0656,2.9757,0.0,0.0,0.0,0.0,0.0,0.0,0.0,0.0,0.0,0.0,0.0,0.0,0.0,0.0,0.0,0.0,0.0,0.0,0.0,0.0,0.0,0.0,0.0,0.0,0.0,0.0,0.0,0.0,0.0,0.0,0.0,0.0,0.0,0.0,0.0,0.0,0.0,2.7769,2.8785,2.8799,2.9003,2.8659,0.0,0.0,0.0,0.0,0.0,0.0,3.0937,3.2106,3.2881,3.3153,3.4459,3.5485,3.6128,3.6346,3.676,3.7412,3.7539,3.7617,3.7617,3.7541,3.7392,3.718,3.6512,3.6108,3.5696,3.2809,3.1438,3.1139,3.0334,2.9865,2.9684,3.0283,3.0136,2.9702,0.0,0.0,0.0,0.0,0.0,0.0,0.0,0.0,0.0,0.0,0.0,2.3071,2.5187,2.6167,2.6928,2.7638,2.8383,2.8501,2.7739,2.8366,2.8416,2.7672,2.7638,2.7994,2.8756,3.113,3.3212,3.4949,3.6615,3.7437,3.7456,3.8212,3.8579,3.856,3.7786,3.696,3.5991,3.4321,3.3146,3.2216,2.9831,0.0,0.0,0.0,0.0,0.0,0.0,0.0,0.0,0.0,0.0,0.0,0.0,0.0,0.0,0.0,0.0,0.0,0.0,0.0,0.0,0.0,0.0,0.0,0.0,0.0,0.0,0.0,0.0,0.0,0.0,0.0,0.0,0.0,0.0,0.0,0.0,0.0,0.0,2.9758,3.0364,0.0,0.0,0.0,0.0,3.1183,3.1978,3.324,3.51,3.5261,3.5773,3.6795,3.6919,3.6986,3.7024,3.78,3.8207,3.8245,3.8764,3.8995,3.8982,3.8729,3.8198,3.7478,3.7426,3.6985,3.6163,3.4846,3.3735,3.2876,3.2827,3.2181,3.1286,3.1323,3.1323,3.1286,0.0,0.0,0.0,0.0,0.0,0.0,0.0,0.0,1.9447,2.1004,2.2257,2.3849,2.6065,2.6979,2.7723,2.8501,2.884,2.8891,2.8586,2.884,2.9076,2.9261,2.9277,2.9986,3.1534,3.3231,3.4734,3.61,3.8089,3.9053,3.9071,3.9882,3.9974,3.946,3.9182,3.8597,3.7734,3.6101,3.4926,3.3977,3.2087,3.0433,0.0,0.0,0.0,0.0,0.0,0.0,0.0,0.0,0.0,0.0,0.0,0.0,0.0,0.0,0.0,0.0,0.0,0.0,0.0,0.0,0.0,0.0,0.0,0.0,0.0,0.0,0.0,0.0,0.0,0.0,0.0,0.0,0.0,0.0,0.0,0.0,0.0,3.2072,3.2656,0.0,3.2287,3.3062,3.3728,3.4025,3.4778,3.5539,3.6242,3.6604,3.6962,3.7349,3.7854,3.8132,3.8132,3.8405,3.8568,3.8554,3.8755,3.8844,3.8844,3.8732,3.8542,3.8267,3.8267,3.8102,3.7804,3.7377,3.637,3.5127,3.5127,3.4894,3.4541,3.4541,3.4541,3.4468,0.0,0.0,0.0,0.0,0.0,0.0,0.0,0.0,1.9824,2.1376,2.3071,2.4898,2.686,2.8179,2.9161,2.9704,3.0211,3.048,3.048,3.0262,3.033,3.0818,3.0835,3.1726,3.3612,3.5012,3.6292,3.748,3.938,4.0205,4.002,4.0754,4.0836,4.0304,4.0304,4.001,3.9423,3.8083,3.6908,3.5841,3.4104,3.2828,3.1682,0.0,0.0,0.0,0.0,0.0,0.0,0.0,0.0,0.0,0.0,0.0,0.0,0.0,0.0,0.0,0.0,0.0,0.0,0.0,0.0,0.0,0.0,0.0,0.0,0.0,0.0,0.0,0.0,0.0,0.0,0.0,0.0,0.0,0.0,0.0,3.3193,3.3507,3.4435,3.4809,3.4256,3.5401,3.6163,3.6163,3.6928,3.7488,3.7766,3.8125,3.8429,3.8707,3.9239,3.9515,3.9515,3.9515,3.9515,3.9515,3.9515,3.9368,3.9093,3.9093,3.8964,3.8707,3.8707,3.8707,3.8707,3.8707,3.8065,3.7074,3.6798,3.6541,3.6303,3.6303,3.6303,3.6211,0.0,0.0,0.0,0.0,0.0,0.0,0.0,1.9051,2.0542,2.2093,2.4206,2.615,2.7672,2.982,3.1157,3.1224,3.2544,3.3389,3.3406,3.2716,3.231,3.2327,3.2378,3.3203,3.4925,3.6503,3.7862,3.9031,4.0423,4.0808,4.0275,4.0878,4.115,4.1132,4.1132,4.1113,4.104,4.0267,3.9191,3.7838,3.5883,3.4983,3.4565,0.0,0.0,0.0,0.0,0.0,0.0,0.0,0.0,0.0,0.0,0.0,0.0,0.0,0.0,0.0,0.0,0.0,0.0,0.0,0.0,0.0,0.0,0.0,0.0,0.0,0.0,0.0,0.0,0.0,0.0,0.0,0.0,0.0,3.1679,3.3136,3.4228,3.3952,3.561,3.6329,3.5252,3.6615,3.7584,3.7603,3.8322,3.9129,3.99,3.9937,4.0286,4.1077,4.1095,4.1095,4.1095,4.1095,4.1095,4.1095,4.1095,4.0689,3.9937,3.9937,3.9496,3.8744,3.8744,3.8726,3.8707,3.8707,3.8707,3.8615,3.7841,3.707,3.6376,3.6376,3.6376,3.6376,0.0,0.0,0.0,0.0,0.0,0.0,1.78,1.9051,2.0542,2.2093,2.3765,2.5794,2.84,2.923,3.0262,3.1853,3.2378,3.2831,3.3372,3.2716,3.2547,3.3068,3.4117,3.5183,3.6242,3.7026,3.8058,3.9352,4.0671,4.1451,4.1751,4.2492,4.2525,4.1974,4.1974,4.1662,4.1077,4.0857,4.0705,4.0389,3.8042,3.6602,3.5725,0.0,0.0,0.0,0.0,0.0,0.0,0.0,0.0,0.0,0.0,0.0,0.0,0.0,0.0,0.0,0.0,0.0,0.0,0.0,0.0,0.0,0.0,0.0,0.0,0.0,0.0,0.0,0.0,0.0,0.0,0.0,0.0,3.4434,3.4389,3.582,3.6855,3.6782,3.7595,3.8262,3.8539,3.8964,3.9478,4.0084,4.0322,4.0543,4.0763,4.0781,4.0873,4.1095,4.1095,4.1095,4.1095,4.1095,4.1095,4.1095,4.1095,4.0967,4.0781,4.0781,4.0341,3.957,3.957,3.9239,3.8707,3.8707,3.8707,3.8689,3.8469,3.823,3.8046,3.8046,3.8046,3.8046,0.0,0.0,0.0,0.0,0.0,0.0,1.78,1.9051,2.0542,2.2093,2.3849,2.5997,2.8705,2.9551,3.0567,3.2158,3.2869,3.3254,3.3389,3.3,3.3085,3.3829,3.4996,3.6073,3.7069,3.7991,3.8838,3.9575,4.0915,4.1763,4.2102,4.2832,4.303,4.28,4.28,4.2543,4.2084,4.1754,4.1719,4.1752,4.0109,3.9035,3.8184,3.6276,3.5462,3.511,3.3495,3.2838,3.2602,3.1737,0.0,0.0,0.0,0.0,0.0,0.0,0.0,0.0,0.0,0.0,0.0,0.0,0.0,0.0,0.0,0.0,0.0,0.0,0.0,0.0,0.0,0.0,0.0,0.0,3.522,3.6227,3.6767,3.7368,3.7979,3.8668,3.9009,3.9515,4.0322,4.0396,4.0598,4.1058,4.1095,4.1242,4.1572,4.159,4.1772,4.2084,4.2121,4.2121,4.2121,4.2121,4.2121,4.2121,4.2121,4.1937,4.159,4.159,4.1167,4.0396,4.0396,3.9955,3.9203,3.9203,3.9001,3.8707,0.0,0.0,0.0,0.0,3.8707,3.8707,0.0,0.0,0.0,0.0,0.0,0.0,1.78,1.9051,2.0542,2.2093,2.4154,2.6336,2.862,3.0127,3.1275,3.2107,3.3508,3.4134,3.3558,3.3609,3.3947,3.459,3.5351,3.6338,3.7633,3.9007,3.9755,3.9842,4.1091,4.1729,4.1793,4.242,4.2958,4.341,4.3572,4.3626,4.3589,4.2965,4.2653,4.254,4.2008,4.1603,4.0967,3.8183,3.7597,3.8011,3.6148,3.5151,3.4576,3.3635,0.0,0.0,0.0,0.0,0.0,0.0,0.0,0.0,0.0,0.0,0.0,0.0,0.0,0.0,0.0,0.0,0.0,0.0,0.0,0.0,0.0,0.0,0.0,0.0,3.7052,3.7933,3.8726,3.8212,3.83,3.9717,3.9974,4.0359,4.115,4.1242,4.126,4.1352,4.137,4.168,4.2396,0.0,0.0,0.0,0.0,4.3515,4.3515,4.3515,4.3515,4.3515,4.3515,4.313,4.2433,4.2433,4.2011,4.1242,4.1242,4.0781,4.0029,4.0029,3.9606,3.8946,3.8781,3.8707,3.8707,3.8707,3.8707,3.8707,0.0,0.0,0.0,0.0,0.0,0.0,1.78,1.9051,2.0542,2.2093,2.3714,2.5558,2.779,2.8873,2.9974,3.1292,3.2763,3.3795,3.4252,3.4844,3.5228,3.538,3.6146,3.7248,3.8683,3.9013,3.9645,4.0672,4.0949,4.1335,4.1793,4.242,4.2769,4.2901,4.398,4.447,4.4507,4.4984,4.4837,4.4176,4.3418,4.2334,4.1089,4.058,4.0174,3.9739,3.8791,3.8224,3.7721,3.6404,3.5423,3.4577,3.3545,3.2295,0.0,0.0,0.0,0.0,0.0,0.0,0.0,0.0,0.0,0.0,0.0,0.0,0.0,0.0,0.0,0.0,0.0,0.0,0.0,3.6248,3.7514,3.8744,3.9551,3.9533,3.9549,3.9845,4.0469,4.1185,4.1992,4.2066,4.2341,4.2983,4.3039,4.3094,4.3259,4.3276,4.3332,4.3515,4.3515,4.3515,4.3515,4.3515,4.3515,4.3515,4.3515,0.0,4.3276,4.3276,4.2818,4.2066,4.2066,4.1607,4.0873,4.0873,4.0765,4.0508,3.9221,3.8707,3.8707,3.8707,3.8707,3.8707,0.0,0.0,0.0,0.0,0.0,0.0,1.78,1.9051,2.042,2.16,2.3357,2.5202,2.7063,2.7943,2.8856,3.0008,3.1444,3.2763,3.388,3.4641,3.5385,3.6163,3.6941,3.7872,3.8971,3.9343,3.9855,4.0497,4.0497,4.1004,4.1971,4.2565,4.3212,4.3904,4.4875,4.5296,4.5333,4.5736,4.5443,4.4654,4.4268,4.3387,4.2187,4.1041,4.0672,4.0663,3.9586,3.9138,3.8916,3.8046,3.7026,3.5942,3.5103,3.3987,3.2622,0.0,0.0,0.0,0.0,0.0,0.0,0.0,0.0,0.0,0.0,0.0,0.0,0.0,0.0,3.3727,0.0,0.0,3.7019,3.7441,3.8505,3.9441,3.9827,4.0579,4.1093,4.1093,4.146,4.2029,4.2818,4.2892,4.3057,4.3478,4.3515,4.3515,4.3515,4.3515,4.3515,4.3515,4.3515,4.3515,4.3515,4.3515,4.3515,4.3515,4.3515,4.3515,4.3515,4.3515,4.3277,4.2892,4.2892,4.2433,4.168,4.126,4.1095,4.1022,4.0196,3.9662,3.9239,3.8854,3.8707,3.8707,0.0,0.0,0.0,0.0,0.0,0.0,0.0,1.8932,2.0132,2.1072,2.2883,2.4626,2.6116,2.6928,2.7807,2.8908,3.0209,3.1664,3.3305,3.4083,3.5204,3.6728,3.7499,3.8261,3.8971,3.9723,4.0096,4.0096,4.0096,4.0709,4.1867,4.2647,4.3643,4.4843,4.5734,4.614,4.614,4.614,4.5681,4.4929,4.4746,4.4121,4.3039,4.0928,4.0635,4.1173,3.9783,3.9353,3.9372,3.8837,3.789,3.6769,3.5808,3.5026,3.3981,3.154,3.1198,0.0,0.0,0.0,0.0,0.0,0.0,0.0,0.0,0.0,3.3237,3.3569,3.4673,3.5804,3.6629,3.7309,3.7936,3.8597,3.9386,3.9937,4.0102,4.1387,4.2359,4.2506,4.2525,4.2782,4.3441,4.3515,4.3515,4.3515,4.3515,4.3515,4.3515,4.3515,4.3515,4.3515,4.3515,4.3515,4.3515,4.3515,4.3515,4.3515,4.3515,4.3515,4.3515,4.3515,4.3515,4.3515,4.3515,4.313,4.2488,4.1827,4.1572,4.1535,4.1389,4.0946,4.0267,3.946,3.9166,3.9132,0.0,0.0,0.0,0.0,0.0,0.0,0.0,0.0,1.9549,2.1004,2.1989,2.3105,2.4592,2.5406,2.6708,2.8824,2.9753,3.114,3.3271,3.4083,3.5204,3.6728,3.7499,3.8261,3.8971,3.9723,4.0096,4.0096,4.0096,4.0419,4.1059,4.2366,4.3379,4.4104,4.6081,4.6966,4.6966,4.6966,4.6507,4.57,4.5002,4.3791,4.2323,4.135,4.1228,4.1426,4.0374,3.9995,3.9804,3.853,3.7985,3.7584,3.6,3.5423,3.4953,3.2943,3.2405,3.2172,3.0868,3.1343,3.1995,3.1169,3.203,3.3515,0.0,0.0,3.5572,3.7015,3.7461,3.7757,3.8327,3.8505,3.8597,3.8689,3.9386,4.0139,4.0873,4.1754,4.2561,4.3277,4.3369,4.3387,4.3496,4.3515,4.3515,4.3515,4.3515,4.3515,4.3515,4.3515,4.3515,4.3515,4.3515,4.3515,4.3515,4.3515,4.3515,4.3515,4.3515,4.3515,4.3515,4.3515,4.3515,4.3515,4.3515,4.346,4.3368,4.3276,4.3222,4.3149,4.2433,4.2103,4.1937,4.1132,4.082,4.0728,0.0,0.0,0.0,0.0,0.0,0.0,0.0,0.0,0.0,1.9786,2.0906,2.207,2.3105,2.4255,2.5507,2.6894,2.8518,3.0209,3.2002,3.3609,3.5204,3.6728,3.7117,3.7804,3.8971,3.9317,3.9673,4.0096,4.0417,4.092,4.1631,4.2928,4.3901,4.459,4.5843,4.6416,4.6416,4.6416,4.5938,4.5131,4.4323,4.3314,4.2158,4.0891,4.0277,4.0006,3.8962,3.8809,0.0,3.7663,3.7033,3.6671,3.5948,3.5062,3.4025,3.2743,3.2698,3.3173,3.3676,3.3422,3.3138,0.0,3.4531,3.5366,3.5506,3.6116,3.6842,3.7525,3.8028,3.8427,3.8649,3.8707,3.8707,0.0,3.9772,4.0726,4.104,4.2194,4.3112,4.346,4.3515,4.3515,4.3515,4.3515,4.3515,4.3515,4.3515,4.3515,4.3515,4.3515,4.3515,4.3515,4.3515,4.3515,4.3515,4.3515,4.3515,4.3515,4.3515,4.3515,4.3515,4.3515,4.3515,4.3515,4.3515,4.3515,4.3515,4.3515,4.3515,4.3478,4.313,4.3002,4.2837,4.1572,4.1095,4.104,0.0,0.0,0.0,0.0,0.0,0.0,0.0,0.0,0.0,0.0,2.0056,2.1228,2.2195,2.3241,2.4188,2.4932,2.686,2.879,3.048,3.2459,3.4375,3.6101,3.6349,3.706,3.8362,3.8582,3.8954,3.9503,3.9881,4.0516,4.1411,4.2507,4.3574,4.4607,4.5041,4.5351,4.5535,4.5094,4.458,4.3975,4.3167,4.2359,4.146,3.9845,3.8866,3.8229,3.7525,3.7479,3.7535,3.6257,3.5555,3.5198,3.4961,3.4054,3.2949,3.2269,3.2613,3.3433,3.4667,3.4494,0.0,3.5254,3.6261,3.6798,3.5984,3.6853,3.7841,3.7841,3.8285,3.8707,3.8707,3.8707,3.8707,3.8707,3.9863,4.0855,4.1058,4.2286,4.324,4.3478,4.3515,4.3515,4.3515,4.3515,4.3515,4.3515,4.3515,4.3515,4.3515,4.3515,4.3515,4.3515,4.3515,4.3515,4.3515,4.3515,4.3515,4.3515,4.3515,4.3515,4.3515,4.3515,4.3515,4.3515,4.3515,4.3515,4.3515,4.3515,4.3515,4.3515,4.3515,4.3515,4.3368,4.2194,4.1772,4.1735,0.0,0.0,0.0,0.0,0.0,0.0,0.0,0.0,0.0,0.0,0.0,0.0,0.0,2.233,2.2651,2.3393,2.4847,2.6657,2.8925,3.0463,3.2273,3.4455,3.5245,3.6028,3.6846,3.7567,3.7939,3.7973,3.7997,3.8539,3.9595,4.0418,4.1781,4.3553,4.3552,4.4011,4.4635,4.3075,4.2396,4.2304,4.1515,4.0689,3.9806,3.819,3.707,3.6411,3.6636,3.6433,3.5814,3.4169,3.3592,3.3422,3.259,3.2278,3.2175,3.1898,3.221,3.264,3.2695,0.0,3.546,3.5485,3.6689,3.7849,3.7817,3.826,3.867,3.867,3.8689,3.8707,3.8707,3.8707,3.8707,3.8707,3.9405,4.0212,4.0985,4.1809,4.2635,4.3423,4.3515,4.3515,0.0,4.3515,4.3515,4.3515,4.3515,4.3515,4.3515,4.3515,4.3515,4.3515,4.3515,4.3515,4.3515,4.3515,4.3515,4.3515,4.3515,4.3515,4.3515,4.3515,4.3515,4.3515,4.3515,4.3515,4.3515,4.3515,4.3515,4.3515,4.3515,4.3515,4.3496,4.346,4.3441,4.3331,0.0,0.0,0.0,0.0,0.0,0.0,0.0,0.0,0.0,0.0,0.0,0.0,0.0,0.0,0.0,0.0,2.4305,2.5812,2.8061,2.9879,3.1523,3.297,3.4523,3.5548,3.5994,3.7091,3.787,3.8351,3.908,3.9613,3.9979,4.0655,4.1302,4.1919,4.1919,4.2066,4.2269,4.1719,4.1515,4.1425,4.0634,3.9827,3.8982,3.7915,3.6317,3.4573,0.0,3.3876,3.3591,3.2477,3.2105,3.205,3.176,3.1303,3.0947,3.1399,3.2041,3.2949,3.4614,0.0,3.6284,3.7372,3.8022,3.8427,3.8427,3.8563,3.8707,3.8707,3.8707,3.8707,3.8707,3.8707,3.8707,3.8707,3.9386,4.0175,4.0985,4.1791,4.2598,4.3387,4.3515,0.0,0.0,0.0,0.0,4.3462,4.3178,4.3105,4.3479,4.3515,4.3515,4.3515,4.3515,4.3515,4.3515,4.3515,4.3515,4.3515,4.3515,4.3515,4.3515,4.3515,4.3515,4.3515,4.3515,4.3515,4.3515,4.3515,4.3515,4.3515,4.3515,4.3515,4.3515,4.3515,4.3515,4.346,0.0,0.0,0.0,0.0,0.0,0.0,0.0,0.0,0.0,0.0,0.0,0.0,0.0,0.0,0.0,0.0,0.0,2.4829,2.6522,2.8288,2.9829,3.1077,3.2559,3.3567,3.4032,3.4835,3.5607,3.6346,3.7494,3.8291,3.8725,3.9564,4.0213,4.0671,4.0361,4.0398,4.0653,4.0361,4.0233,4.0141,3.9056,3.8303,3.7661,3.5968,3.4334,0.0,3.1702,3.1317,3.1225,3.0723,3.054,3.054,3.054,3.0779,3.1219,3.2008,3.3054,3.4339,3.6225,3.674,3.7052,3.8377,3.8707,3.8707,3.8707,3.8707,3.8707,3.8707,3.8469,3.8221,3.806,3.8156,3.8248,3.8181,3.8957,3.9967,4.1062,4.1646,4.2354,4.337,4.3515,4.3515,0.0,0.0,0.0,4.3444,4.3178,4.3142,4.3479,4.3515,4.3515,4.3515,4.3515,4.3515,4.3515,4.3515,4.3515,4.3515,4.3515,4.3515,4.3515,4.3515,4.3515,4.3515,4.3515,4.3515,4.3515,4.3515,4.3515,4.3515,4.3515,4.3515,4.3515,4.3515,4.3515,4.3515,0.0,0.0,0.0,0.0,0.0,0.0,0.0,0.0,0.0,0.0,0.0,0.0,0.0,0.0,0.0,0.0,0.0,0.0,2.4389,2.581,2.73,2.8824,2.9636,3.0398,3.1123,3.1213,3.1588,3.2283,3.3522,3.4716,3.5864,3.7092,3.8328,3.9536,3.8765,3.8872,3.9533,3.8781,3.845,3.8322,3.678,3.6156,3.5771,3.2664,3.1415,3.114,2.961,2.9023,2.9005,2.906,2.9097,2.9133,2.917,3.0785,3.2821,3.3642,3.5055,3.6523,3.729,3.7529,3.7749,3.8505,3.8707,3.8707,3.8707,3.8707,3.8689,3.8652,3.7995,3.732,3.6834,0.0,3.7403,3.72,3.8205,3.9535,4.1106,4.1359,4.1905,0.0,0.0,0.0,0.0,0.0,0.0,4.3462,0.0,4.3462,4.3515,4.3515,4.3515,4.3515,4.3515,4.3515,4.3515,4.3515,4.3515,4.3515,4.3515,4.3515,4.3515,4.3515,4.3515,4.3515,4.3515,4.3515,4.3515,4.3515,4.3515,4.3515,4.3515,4.3515,4.3515,4.3515,4.3515,4.3515,0.0,0.0,0.0,0.0,0.0,0.0,0.0,0.0,0.0,0.0,0.0,0.0,0.0,0.0,0.0,0.0,0.0,0.0,2.363,2.4871,2.6086,2.725,2.8853,2.9933,3.0362,3.1253,3.1801,3.1991,3.2739,3.3242,3.3571,3.4191,3.4658,3.4978,3.503,3.5165,3.533,3.5147,3.5055,3.5018,3.4596,3.4082,3.3445,3.2601,3.1549,3.0448,3.0044,2.95,2.9097,0.0,0.0,0.0,0.0,3.2509,3.366,3.4454,3.5881,3.7235,3.7437,3.7951,3.8432,3.8652,3.8707,3.8707,3.8707,3.8707,3.8524,3.7933,3.7356,3.6755,3.6027,3.649,0.0,3.6908,3.7967,0.0,4.0125,4.0801,0.0,4.2489,0.0,4.3515,4.3515,4.3375,0.0,0.0,4.3142,4.3069,4.3479,4.3515,4.3515,4.3515,4.3515,4.3515,4.3515,4.3515,4.3515,4.3515,4.3515,4.3515,4.3515,4.3515,4.3515,4.3515,4.3515,4.3515,4.3515,4.3515,4.3515,4.3515,4.3515,4.3515,4.3515,4.3515,4.3515,4.3515,0.0,0.0,0.0,0.0,0.0,0.0,0.0,0.0,0.0,0.0,0.0,0.0,0.0,0.0,0.0,0.0,0.0,0.0,0.0,2.3856,2.4655,2.5218,2.6596,2.745,2.7639,2.8613,2.9283,2.9627,3.0995,3.1813,3.2151,3.3096,3.3522,3.3522,3.3721,3.3807,3.3807,3.3807,3.3807,0.0,0.0,3.2467,3.2008,3.128,3.0454,2.9666,2.9666,2.9831,3.0118,0.0,0.0,3.1599,3.2761,3.3665,3.4559,3.5752,0.0,3.8028,3.8028,3.8358,3.8707,3.8707,3.8707,3.8615,3.8248,3.8175,3.7796,3.6471,3.595,3.5285,3.3776,3.5026,0.0,0.0,0.0,0.0,3.9918,4.072,4.1499,0.0,4.281,0.0,4.3479,4.3304,4.325,0.0,4.3214,4.3178,4.3479,4.3515,4.3515,4.3515,4.3515,4.3515,4.3515,4.3515,4.3515,4.3515,4.3515,4.3515,4.3515,4.3515,4.3515,4.3515,4.3515,4.3515,4.3515,4.3515,4.3515,4.3515,4.3515,4.3515,4.3515,4.3515,4.3515,4.3515,0.0,0.0,0.0,0.0,0.0,0.0,0.0,0.0,0.0,0.0,0.0,0.0,0.0,0.0,0.0,0.0,0.0,0.0,0.0,0.0,2.3291,2.3393,2.4017,2.4406,2.4491,2.5118,2.5778,2.6404,2.8603,3.0028,3.0747,3.2303,3.304,3.308,3.3151,3.3164,3.3164,3.3164,3.3164,3.3036,3.1641,3.1085,3.0925,0.0,2.9005,2.9005,2.9005,2.9971,3.1268,0.0,3.1544,3.2003,3.3623,3.4601,3.55,3.7165,3.8138,3.8707,3.8707,3.8707,3.8707,3.8707,3.8707,3.8472,3.7601,3.7326,3.6687,3.4648,0.0,3.3251,3.106,3.3146,3.4964,3.4259,0.0,3.9083,3.9896,4.08,4.1524,4.1967,4.2432,4.2864,4.3232,4.2939,4.2902,4.3357,4.3444,4.3515,4.3515,4.3515,4.3515,4.3515,4.3515,4.3515,4.3515,4.3515,4.3515,4.3515,4.3515,4.3515,4.3515,4.3515,4.3515,4.3515,4.3515,4.3515,4.3515,4.3515,4.3515,4.3515,4.3515,4.3515,4.3515,4.3515,4.3515,4.3515,0.0,0.0,0.0,0.0,0.0,0.0,0.0,0.0,0.0,0.0,0.0,0.0,0.0,0.0,0.0,0.0,0.0,0.0,0.0,0.0,0.0,2.3376,2.3511,2.3881,2.4491,2.4626,2.4745,2.488,2.5903,2.6635,2.7126,2.8351,2.9075,2.9355,2.9673,2.9831,2.9831,2.9831,2.9831,2.9812,2.9537,2.9427,2.939,2.9115,0.0,0.0,2.9005,2.961,3.0503,3.1182,3.2265,3.366,3.533,3.5954,3.6395,3.8028,3.8597,3.8707,3.8707,3.8707,3.8707,3.8707,3.8707,3.8392,3.7185,3.6445,0.0,0.0,3.2133,3.1094,3.0021,3.1627,3.3287,3.3791,0.0,0.0,0.0,0.0,4.1007,0.0,0.0,0.0,0.0,0.0,0.0,0.0,4.325,4.3515,4.3515,4.3515,4.3515,4.3515,4.3515,4.3515,4.3515,4.3515,4.3515,4.3515,4.3515,4.3515,4.3515,4.3515,4.3515,4.3515,4.3515,4.3515,4.3515,4.3515,4.3515,4.3515,4.3515,4.3515,4.3515,4.3515,4.3515,4.3515,0.0,0.0,0.0,0.0,0.0,0.0,0.0,0.0,0.0,0.0,2.2626,0.0,0.0,0.0,0.0,0.0,0.0,0.0,0.0,0.0,0.0,0.0,2.3204,2.3377,2.3559,2.4123,2.423,2.3932,0.0,2.5568,2.5646,2.6552,2.7271,2.7838,2.8212,2.8601,2.9005,2.9005,2.9005,2.9005,2.9005,2.9005,2.9005,0.0,0.0,0.0,0.0,2.9519,3.0265,3.065,3.1843,3.355,3.5642,3.6303,3.6615,3.823,3.8707,3.8707,3.8707,3.8707,3.8707,3.8707,3.8707,3.8156,3.6084,0.0,0.0,0.0,3.0311,2.9763,2.8355,3.0368,0.0,3.2246,0.0,0.0,0.0,0.0,0.0,0.0,0.0,0.0,0.0,0.0,4.2021,4.2655,4.2939,4.3214,4.3497,4.3515,4.3515,4.3515,4.3515,4.3515,4.3515,4.3515,4.3515,4.3515,4.3515,4.3515,4.3515,4.3515,4.3515,4.3533,4.3938,4.4121,4.4158,4.458,4.4745,4.4745,4.4745,4.4745,4.4745,4.4745,4.447,4.4086,0.0,0.0,0.0,0.0,0.0,0.0,0.0,2.0788,2.1833,2.363,2.4474,2.4165,2.2208,2.192,0.0,0.0,0.0,0.0,0.0,0.0,0.0,0.0,0.0,2.3009,2.281,0.0,0.0,0.0,2.4616,0.0,0.0,0.0,0.0,0.0,2.7606,2.8154,2.8748,2.8932,2.9005,0.0,0.0,2.9005,0.0,0.0,0.0,0.0,0.0,0.0,2.9971,3.0136,3.0986,3.2363,3.4664,3.5805,3.6578,3.8028,3.856,3.8707,3.8707,3.8707,3.8707,3.8707,3.8707,3.794,3.5013,3.4233,0.0,0.0,2.8694,2.8509,2.6978,2.9145,3.1081,0.0,3.3679,3.6112,0.0,0.0,0.0,0.0,0.0,0.0,0.0,0.0,0.0,4.2244,4.2539,4.2939,4.3462,4.3515,4.3515,4.3515,4.3515,4.3515,4.3515,4.3515,4.3515,4.3515,4.3663,4.3754,4.3754,4.3938,4.401,4.4048,4.469,4.4966,4.5021,4.5645,4.5902,4.5902,4.5902,4.5902,4.5865,4.5736,4.5315,4.4674,0.0,0.0,0.0,0.0,0.0,0.0,0.0,2.1156,2.2206,2.5033,2.4896,2.4573,2.4643,2.4283,0.0,0.0,0.0,0.0,0.0,0.0,0.0,0.0,0.0,0.0,0.0,0.0,0.0,0.0,0.0,0.0,0.0,0.0,0.0,0.0,0.0,0.0,2.7952,2.8693,0.0,0.0,0.0,0.0,0.0,0.0,0.0,0.0,0.0,0.0,0.0,0.0,0.0,3.0179,3.1926,3.4243,3.6468,3.7345,0.0,0.0,3.8707,3.8707,3.8707,3.8707,3.8707,3.7859,3.4606,0.0,0.0,2.8562,2.7386,2.6911,2.6725,2.7857,2.9257,3.0576,3.2032,3.3882,0.0,0.0,0.0,0.0,0.0,0.0,0.0,4.0679,4.0949,4.1064,4.208,4.2939,4.3462,4.3515,4.3515,4.3515,4.3515,4.3515,4.3515,4.3515,4.3515,4.3515,4.425,4.4599,4.4617,4.5351,4.5681,4.5681,4.5755,4.5792,4.5792,4.5865,4.5902,4.5902,4.5902,4.5902,4.5828,4.5279,4.5046,4.4872,0.0,0.0,0.0,0.0,0.0,0.0,0.0,2.119,2.2257,2.522,2.5338,2.5384,2.5957,2.5433,0.0,0.0,0.0,0.0,0.0,0.0,0.0,0.0,0.0,0.0,0.0,0.0,0.0,0.0,0.0,0.0,0.0,0.0,0.0,0.0,0.0,0.0,0.0,2.8136,0.0,0.0,0.0,0.0,0.0,0.0,0.0,0.0,0.0,0.0,0.0,0.0,0.0,0.0,3.0155,3.1739,0.0,0.0,3.7159,3.8065,3.8579,3.8707,3.8707,3.8707,3.8115,3.6775,3.381,0.0,3.073,2.776,2.6894,2.6691,2.6691,2.7453,2.8442,2.9538,3.1098,3.2739,3.4359,0.0,0.0,0.0,0.0,0.0,0.0,0.0,4.0703,4.138,4.2523,4.3268,4.3497,4.3515,4.3515,4.3515,4.3515,4.3515,4.3515,4.3515,4.3515,4.3515,4.4323,4.4691,4.4728,4.5535,4.5902,4.592,4.6416,4.6617,4.6673,4.715,4.7352,4.7352,4.7352,4.7352,4.7333,4.7067,4.6442,4.5621,0.0,0.0,0.0,0.0,0.0,0.0,2.0733,2.119,2.2189,2.4915,2.527,2.5519,2.6135,2.557,2.4739,2.3768,0.0,0.0,0.0,0.0,0.0,0.0,0.0,0.0,0.0,0.0,0.0,2.4705,0.0,0.0,0.0,0.0,0.0,0.0,0.0,0.0,0.0,0.0,0.0,0.0,0.0,0.0,0.0,0.0,0.0,0.0,0.0,0.0,0.0,0.0,0.0,0.0,0.0,0.0,0.0,0.0,3.5807,3.7141,3.793,3.8298,3.8442,3.8365,3.7287,3.5548,0.0,0.0,2.9763,2.7216,2.6691,2.6691,2.6691,2.7131,2.7824,2.884,3.0154,3.1509,3.2904,3.4282,0.0,0.0,0.0,3.8559,0.0,4.0468,4.0955,4.1746,4.2715,4.3321,4.3479,4.3515,4.3515,4.3515,4.3515,4.3515,4.3515,4.3515,4.3515,4.3515,4.4562,4.5057,4.5094,4.614,4.6617,4.6636,4.7204,4.7443,4.7498,4.8086,4.8306,4.8306,4.8306,4.8306,4.8287,4.8094,4.7411,4.647,0.0,0.0,0.0,0.0,0.0,0.0,0.0,2.119,2.2003,2.422,2.4508,2.4643,2.498,2.4611,2.4436,2.4751,0.0,0.0,0.0,0.0,0.0,0.0,0.0,0.0,0.0,0.0,0.0,2.5393,2.6209,2.6583,0.0,0.0,0.0,0.0,0.0,0.0,0.0,0.0,0.0,0.0,0.0,0.0,2.897,0.0,0.0,0.0,0.0,0.0,0.0,0.0,0.0,0.0,0.0,2.7872,2.9077,0.0,3.4098,3.5874,3.6606,3.735,3.7849,3.7571,3.6208,3.432,0.0,3.059,2.914,2.7131,2.6691,2.6691,2.6691,2.6725,2.7199,2.8756,2.901,2.9975,3.271,3.3114,0.0,0.0,0.0,3.704,3.8556,4.0573,4.1789,4.181,4.2362,0.0,4.3462,4.3515,4.3515,4.3515,4.3515,4.3515,4.3515,4.3515,4.3515,4.3533,4.5112,4.5883,4.5938,4.7553,4.8288,4.8288,4.8288,4.8306,4.8306,4.8306,4.8306,4.8306,4.8306,4.8306,4.823,4.7635,4.7406,4.7302,0.0,0.0,0.0,0.0,0.0,0.0,0.0,2.0061,2.1011,2.2767,2.3427,2.4096,2.4968,2.4437,2.4241,2.4815,0.0,0.0,0.0,0.0,0.0,0.0,0.0,0.0,0.0,0.0,2.6484,2.7045,2.786,2.7959,2.7402,2.6594,0.0,0.0,0.0,0.0,0.0,0.0,0.0,0.0,0.0,2.8839,2.8577,0.0,0.0,0.0,0.0,0.0,0.0,0.0,0.0,0.0,0.0,0.0,0.0,2.8922,3.1,3.3013,3.3802,3.4162,3.4338,3.4231,3.3146,3.1775,3.0547,2.9297,2.8066,2.6945,2.6691,2.6691,2.6691,2.6691,2.7368,2.9414,2.9753,3.0421,0.0,0.0,0.0,0.0,0.0,3.8716,0.0,0.0,4.1958,4.2382,4.2921,4.3322,4.3479,4.3515,4.3515,4.3515,4.3515,4.3515,4.3515,4.3515,4.3515,4.3533,4.5131,4.5902,4.5957,4.7572,4.8306,4.8306,4.8306,4.8306,4.8306,4.8306,4.8306,4.8306,4.8306,4.8306,4.8287,4.8075,4.7756,4.7363,0.0,0.0,0.0,0.0,0.0,0.0,0.0,1.9299,2.0031,2.1282,2.1823,2.2612,2.3901,2.3562,2.3608,2.4593,0.0,0.0,0.0,0.0,0.0,0.0,0.0,0.0,0.0,2.619,2.7145,2.8246,2.906,2.92,2.8686,2.7868,2.6906,2.5815,0.0,0.0,0.0,0.0,0.0,0.0,2.8877,2.8579,2.798,0.0,0.0,0.0,0.0,0.0,0.0,0.0,0.0,0.0,0.0,0.0,0.0,0.0,2.8474,3.0023,0.0,3.2188,3.238,3.2259,3.1179,0.0,0.0,2.8287,2.7182,2.6437,2.6285,2.6201,2.5929,2.6099,2.6928,2.8906,2.9499,3.0294,0.0,0.0,0.0,0.0,0.0,0.0,0.0,4.1271,4.1958,4.2322,4.2884,4.3304,4.3497,4.3515,4.3515,4.3515,4.3515,4.3515,4.3515,4.3515,4.3515,4.3533,4.5131,4.5902,4.5957,4.7572,4.8306,4.8306,4.8306,4.8306,0.0,4.8306,4.8306,4.8306,4.8306,4.8306,4.8306,4.8306,4.8055,4.7715,0.0,0.0,0.0,0.0,0.0,0.0,0.0,0.0,0.0,0.0,1.998,2.0572,2.206,2.2124,0.0,0.0,0.0,0.0,0.0,0.0,0.0,0.0,0.0,0.0,0.0,2.6227,2.7391,2.9005,2.9812,3.021,3.0173,2.9445,2.8235,2.6649,2.5852,0.0,0.0,0.0,0.0,0.0,2.867,2.827,0.0,0.0,0.0,0.0,0.0,0.0,0.0,0.0,0.0,0.0,0.0,0.0,0.0,0.0,0.0,0.0,0.0,3.0959,3.1481,3.123,0.0,0.0,2.8435,2.75,0.0,2.5761,2.5592,2.5423,2.4778,2.522,2.6201,2.7773,2.8704,2.9976,0.0,0.0,0.0,0.0,3.7251,0.0,3.9725,4.1025,4.1832,4.1874,4.2422,4.2976,4.3462,4.3515,4.3515,4.3515,4.3515,4.3515,4.3515,4.3515,4.3515,4.3533,4.5131,4.5902,4.5957,4.7572,4.8306,4.8306,4.8306,4.8306,4.8306,4.8306,4.8306,4.8287,4.8267,4.8248,4.823,4.8191,4.8153,4.8075,0.0,0.0,0.0,0.0,0.0,0.0,0.0,0.0,0.0,0.0,0.0,2.0369,2.136,2.1613,0.0,0.0,0.0,0.0,0.0,0.0,0.0,0.0,0.0,0.0,0.0,2.6502,2.7391,2.9005,2.9812,3.021,3.021,3.0008,2.9053,2.7475,2.6686,0.0,0.0,0.0,0.0,0.0,2.8597,2.8221,0.0,0.0,0.0,0.0,2.6841,2.6791,0.0,0.0,0.0,0.0,0.0,0.0,0.0,0.0,2.6251,2.6708,2.679,0.0,2.7913,2.7842,2.7538,2.7216,0.0,2.6894,2.6488,2.5761,0.0,2.5727,2.6099,2.6319,2.73,2.9973,3.1041,3.2063,3.3537,0.0,0.0,0.0,3.8227,3.9183,4.051,4.1341,4.1979,4.246,4.3014,4.3375,4.3479,4.3515,4.3515,4.3515,4.3515,4.3515,4.3515,4.3515,4.3515,4.3533,4.5131,4.5902,4.5957,4.7572,4.8306,4.8306,4.8306,4.8306,4.8306,4.8306,4.8306,4.8249,4.7797,4.7614,4.7551,4.7044,4.6847,4.6824,0.0,0.0,0.0,0.0,0.0,0.0,0.0,0.0,0.0,0.0,0.0,0.0,0.0,0.0,0.0,0.0,0.0,0.0,0.0,0.0,0.0,0.0,0.0,0.0,2.6547,2.6602,2.7574,2.9537,2.9989,3.0393,3.0742,3.0375,2.9549,2.8282,2.6741,2.6245,0.0,0.0,0.0,2.8197,2.8339,0.0,0.0,0.0,0.0,0.0,2.6691,2.6691,0.0,2.6691,2.6691,2.6691,0.0,0.0,0.0,0.0,2.5642,2.5692,2.5625,2.6133,2.6691,2.6691,2.6691,2.6691,2.6691,0.0,0.0,0.0,0.0,2.5711,2.6116,2.6941,2.8254,3.0349,3.1994,0.0,0.0,0.0,0.0,0.0,3.8911,3.9494,0.0,4.1201,4.1643,4.2223,4.2809,4.3232,4.3497,4.3515,4.3515,4.3515,4.3515,4.3515,4.3515,4.3515,4.3515,4.3497,4.4764,4.5535,4.5938,4.7186,4.7957,4.8306,4.8306,4.8306,4.8306,4.8306,4.8152,4.7838,4.753,4.7216,4.691,4.6524,4.6407,4.6359,0.0,0.0,0.0,0.0,0.0,0.0,0.0,0.0,0.0,0.0,0.0,0.0,0.0,0.0,0.0,0.0,0.0,0.0,0.0,0.0,0.0,0.0,0.0,2.5071,2.6565,2.6722,2.786,3.0026,3.0393,3.0925,3.158,3.1017,3.0051,2.8712,2.6539,2.5952,0.0,0.0,0.0,2.7421,2.8003,0.0,0.0,0.0,0.0,0.0,0.0,0.0,0.0,2.6691,2.6691,2.6674,2.6573,0.0,0.0,0.0,0.0,0.0,2.5406,2.6133,2.6691,2.6691,2.6691,2.6691,2.6691,0.0,0.0,0.0,0.0,0.0,0.0,2.7649,0.0,0.0,0.0,0.0,0.0,0.0,0.0,3.9474,3.9378,0.0,4.0781,4.0995,4.1291,4.1895,4.25,4.3014,4.348,4.3515,4.3515,4.3515,4.3515,4.3515,4.3515,4.3515,4.3515,4.3515,4.4323,4.5131,4.592,4.6727,4.7535,4.8306,4.8306,4.8306,4.8287,4.8191,4.7858,4.7385,4.7194,4.6756,4.624,4.6143,4.6136,4.6046,0.0,0.0,0.0,0.0,0.0,0.0,0.0,0.0,0.0,0.0,0.0,0.0,0.0,0.0,0.0,0.0,0.0,0.0,0.0,0.0,0.0,0.0,2.4842,2.565,2.6583,2.7273,2.8136,2.9189,3.1225,3.2289,3.2417,3.2999,3.1366,2.7934,2.6888,2.6484,2.6628,0.0,0.0,2.8175,2.7666,0.0,0.0,0.0,0.0,0.0,0.0,0.0,0.0,2.6691,2.6691,2.659,2.5981,0.0,0.0,0.0,0.0,0.0,2.5406,2.6133,2.6691,2.6691,2.6691,2.6691,2.6691,0.0,0.0,0.0,0.0,0.0,0.0,0.0,0.0,0.0,0.0,3.5457,0.0,0.0,3.8528,3.9071,0.0,4.0192,4.0833,4.1358,4.1916,4.2519,4.3069,4.341,4.3497,4.3515,4.3515,4.3515,4.3515,4.3515,4.3515,4.3515,4.3515,4.3515,4.4323,4.5131,4.592,4.6727,4.7535,4.8306,4.8306,4.8306,4.8267,4.7756,4.747,4.7299,4.6209,4.5732,4.5571,4.5062,4.4896,4.4852,0.0,0.0,0.0,0.0,0.0,0.0,0.0,0.0,0.0,0.0,0.0,0.0,0.0,0.0,0.0,0.0,0.0,0.0,0.0,0.0,0.0,2.4824,2.5631,2.6227,2.6583,2.7813,2.9072,3.0301,3.183,3.2916,3.3513,3.3005,3.0559,2.6573,2.68,2.6578,2.6063,2.6668,2.7263,2.7776,0.0,0.0,0.0,0.0,0.0,0.0,0.0,0.0,0.0,0.0,2.6116,2.6048,2.571,0.0,0.0,0.0,0.0,0.0,2.4812,2.5236,2.5811,2.7012,2.7621,2.7943,2.7943,0.0,0.0,0.0,0.0,0.0,0.0,0.0,0.0,0.0,0.0,3.6312,3.7602,3.8026,3.8553,0.0,0.0,4.0204,4.0424,4.099,4.1556,4.2162,4.2733,4.3196,4.3479,4.3515,4.3515,4.3515,4.3515,4.3515,4.3515,4.3515,4.3515,4.3515,4.3864,4.4709,4.5902,4.6287,4.7131,4.8306,4.8306,4.8306,4.8249,4.7635,4.7194,4.6756,4.5858,4.5294,4.4971,4.4692,4.4615,4.4615,0.0,0.0,0.0,0.0,0.0,0.0,0.0,0.0,0.0,0.0,0.0,0.0,0.0,0.0,0.0,0.0,0.0,0.0,0.0,0.0,2.4465,2.5081,2.6062,2.6767,2.7152,2.8546,3.0081,3.1678,3.2564,3.3299,3.3829,3.2268,2.9469,2.5826,2.6703,2.6606,2.5818,2.6539,2.702,2.7303,0.0,0.0,0.0,0.0,0.0,0.0,0.0,0.0,0.0,0.0,0.0,0.0,0.0,0.0,0.0,2.4728,2.3983,2.3644,2.4728,2.4897,2.5303,2.7519,2.8264,2.8604,2.9145,0.0,0.0,0.0,0.0,0.0,0.0,3.3528,0.0,3.7039,3.6884,3.6965,3.8252,3.8274,3.8633,3.996,4.0096,4.0146,4.0279,4.0655,4.1223,4.1958,4.2302,4.2789,4.3462,4.3392,4.3375,4.3497,4.3515,4.3515,4.3515,4.3515,4.3515,4.3515,4.3515,4.4232,4.5626,4.581,4.6673,4.8031,4.8233,4.8306,4.8249,4.7635,4.6999,4.6336,4.5732,4.5142,4.4615,4.4615,4.4615,4.4615,0.0,0.0,0.0,0.0,0.0,0.0,0.0,0.0,0.0,0.0,0.0,0.0,0.0,0.0,0.0,0.0,0.0,0.0,0.0,0.0,2.4226,2.4281,2.5768,2.7299,2.8785,2.9666,3.0907,3.2509,3.3618,3.3651,3.2603,3.1107,2.9053,2.6621,2.6756,2.6756,2.6629,2.7068,2.7282,2.7272,2.689,0.0,0.0,0.0,0.0,0.0,0.0,0.0,0.0,0.0,0.0,0.0,0.0,0.0,2.5456,2.4728,2.3983,2.3849,2.5964,2.6031,2.6065,2.835,2.7893,0.0,2.955,2.9519,0.0,3.077,0.0,0.0,0.0,3.5226,3.6122,3.582,3.6327,3.7045,3.7835,0.0,3.9208,4.0011,4.0096,4.0286,4.0803,4.088,4.138,4.2539,4.2162,4.2327,4.3444,4.3032,4.2976,4.3479,4.3515,4.3515,4.3515,4.3515,4.3515,4.3515,4.3515,4.3956,4.4801,4.5571,4.6379,4.7223,4.7994,4.8306,4.8249,4.7635,4.6999,4.6336,4.5732,4.5142,4.4615,4.4615,4.4615,4.4615,0.0,0.0,0.0,0.0,0.0,0.0,0.0,0.0,0.0,0.0,0.0,0.0,0.0,0.0,0.0,0.0,0.0,0.0,0.0,0.0,2.4649,2.5658,2.6034,2.7098,2.8957,3.0283,3.1843,3.3669,3.4514,3.374,3.1426,3.0781,2.8891,2.6046,2.6782,2.67,2.6065,2.6662,2.6923,2.6923,2.6758,2.6691,0.0,0.0,0.0,0.0,0.0,0.0,0.0,0.0,2.4543,2.4846,2.4374,2.5186,2.6048,2.4846,2.4305,2.4372,2.5659,2.5812,2.615,2.8434,2.8553,0.0,0.0,3.1136,3.1697,3.2418,3.3008,0.0,0.0,0.0,3.6724,3.6165,3.6732,3.7387,3.7835,3.8531,3.9259,4.0011,4.0096,4.0179,4.0392,4.0417,4.0744,4.1512,4.138,4.1582,4.2386,4.2264,4.2402,4.2976,4.2995,4.316,4.3497,4.3515,4.3515,4.3515,4.3515,4.392,4.4728,4.5535,4.6342,4.7131,4.7957,4.8075,4.7677,4.7044,4.6407,4.5783,4.5178,4.4786,4.4615,4.4615,4.4615,4.4615,0.0,0.0,0.0,0.0,0.0,0.0,0.0,0.0,0.0,0.0,0.0,0.0,0.0,0.0,0.0,0.0,0.0,0.0,0.0,2.3896,2.4685,2.5786,2.5823,2.6629,2.8377,2.9753,3.1374,3.3226,3.367,3.2622,3.0214,2.9644,2.8271,2.6302,2.6611,2.6596,2.6302,2.659,2.6691,2.6691,2.6691,2.6691,0.0,0.0,0.0,0.0,0.0,0.0,0.0,0.0,2.3746,2.4152,2.4103,2.5135,2.615,2.5135,2.5015,2.5303,2.5812,2.6116,2.6776,0.0,0.0,0.0,3.1562,3.2349,3.3036,3.391,3.4358,0.0,0.0,0.0,0.0,0.0,3.6981,3.7689,3.7868,3.8734,3.9537,4.0045,4.0096,4.0096,4.0096,4.0096,4.0336,4.0856,4.0733,4.099,4.175,4.181,4.1979,4.2402,4.277,4.305,4.325,4.341,4.341,4.325,4.325,4.3614,4.436,4.5424,4.6103,4.65,4.7559,4.7656,4.7044,4.6594,4.6021,4.5433,4.4841,4.4615,4.4615,4.4615,4.4615,4.4615,0.0,0.0,0.0,0.0,0.0,0.0,0.0,0.0,0.0,0.0,0.0,0.0,0.0,0.0,0.0,0.0,0.0,0.0,2.419,2.419,2.419,2.4208,2.4989,2.5961,2.7163,2.7962,2.9214,3.0884,3.0834,3.0179,2.8959,2.7436,2.7114,2.7739,2.6269,2.6421,2.7739,2.7012,2.6691,2.6691,2.6691,2.6691,2.6691,0.0,0.0,0.0,0.0,0.0,0.0,0.0,2.3393,2.3663,2.5135,2.5592,2.5592,2.5592,2.6116,2.6691,2.6691,2.7249,2.8179,0.0,0.0,0.0,3.3085,3.2848,3.2953,3.5143,0.0,3.56,3.56,3.56,0.0,3.56,3.6884,3.7905,3.7905,3.9157,4.0096,4.0096,4.0096,4.0096,4.0096,4.0096,4.0336,4.0833,4.0417,4.0594,4.1707,4.1771,4.1789,4.1789,4.2885,4.3232,4.2711,4.3232,4.3232,4.2711,4.2693,4.2976,4.3552,4.5131,4.5548,4.5091,4.6681,4.6999,4.6407,4.6383,4.6039,4.5433,4.4841,4.4615,4.4615,4.4615,4.4615,4.4615,0.0,0.0,0.0,0.0,0.0,0.0,0.0,0.0,0.0,0.0,0.0,0.0,0.0,0.0,0.0,0.0,0.0,0.0,2.3391,2.3896,2.435,2.4682,2.5411,2.5877,2.5999,2.6016,2.7297,2.998,3.0712,3.0073,2.8145,2.8282,2.7859,2.7029,2.7097,2.7097,2.7012,2.6793,2.6691,2.6691,2.6691,2.6691,2.664,0.0,0.0,0.0,0.0,0.0,0.0,0.0,0.0,0.0,2.39,2.4763,2.5507,2.4982,2.5355,2.593,2.593,2.7249,0.0,0.0,0.0,0.0,0.0,3.3998,0.0,0.0,3.56,3.56,3.56,3.56,0.0,3.56,3.6884,3.7905,3.7905,3.9157,4.0096,4.0096,4.0096,4.0096,4.0096,4.0096,4.0171,4.0336,4.0179,4.0254,4.0587,4.0594,4.0791,4.1155,4.1919,4.2424,4.2711,4.2864,4.2864,4.2693,4.2282,4.2144,4.2342,4.3366,4.4052,4.4426,4.5468,4.5847,4.5732,4.532,4.5025,4.4841,4.4682,4.4615,4.4615,4.4615,4.4615,4.4615,0.0,0.0,0.0,0.0,0.0,0.0,0.0,0.0,0.0,0.0,1.9245,0.0,0.0,0.0,0.0,0.0,0.0,0.0,0.0,0.0,2.427,2.4877,2.5165,2.545,2.5743,2.5705,2.645,2.801,2.8661,2.8281,2.6945,2.8027,2.8197,2.7639,2.8078,2.8027,2.7588,2.7266,2.6859,2.6419,2.6419,2.6298,2.6022,0.0,0.0,0.0,0.0,0.0,0.0,0.0,0.0,0.0,2.2989,2.3722,2.4507,2.485,2.5456,2.6167,2.6776,2.8366,0.0,0.0,3.2628,3.4032,3.4776,0.0,0.0,0.0,0.0,3.56,3.56,3.56,0.0,3.6028,3.711,3.8007,3.8311,3.9368,4.0096,4.0096,4.0096,4.0096,4.0096,4.0096,4.0096,4.0096,4.0096,4.0096,4.0096,4.0311,4.0473,4.0577,4.1358,4.1874,4.1979,4.2223,4.2203,4.1979,4.1621,4.1313,4.1162,4.2414,4.3257,4.3787,4.4656,4.5078,4.5115,4.4748,4.4615,4.4615,4.4615,4.4615,4.4615,4.4615,4.4615,4.4615,0.0,0.0,0.0,0.0,0.0,0.0,0.0,0.0,0.0,0.0,1.9001,1.9596,0.0,0.0,0.0,0.0,0.0,0.0,0.0,0.0,2.401,2.4786,2.4554,2.4978,2.6172,2.6396,2.6167,2.5507,2.5626,2.566,2.5626,2.7181,2.8264,2.8891,2.8976,2.8959,2.884,2.7991,2.7003,2.5995,2.5943,2.5633,2.5122,2.439,0.0,0.0,0.0,0.0,0.0,0.0,0.0,0.0,2.2342,2.2666,2.301,2.494,2.6049,2.6978,2.8484,0.0,0.0,3.3051,3.3998,0.0,3.5447,3.56,3.56,3.56,0.0,3.56,3.56,3.565,3.596,3.6694,3.7466,3.8227,3.8903,3.9639,4.0096,4.0096,4.0096,4.0096,4.0096,4.0096,4.0096,4.0096,4.0096,4.0096,4.0096,4.0552,4.0601,4.0138,4.115,4.1446,4.0903,4.1446,4.1446,4.0903,4.0833,4.0577,4.0163,4.1934,4.2882,4.3155,4.4082,4.4547,4.4615,4.4615,4.4615,4.4615,4.4615,4.4615,4.4615,4.4615,4.4615,4.4615,0.0,0.0,0.0,0.0,0.0,0.0,0.0,0.0,0.0,0.0,0.0,0.0,0.0,0.0,0.0,0.0,0.0,0.0,0.0,0.0,2.3548,2.4099,2.4893,2.5853,2.7028,2.5678,2.4897,2.4745,2.5896,2.6167,2.5643,2.7757,2.8501,2.8077,2.8722,2.8654,2.7975,2.6847,2.6252,2.5961,2.554,2.5297,2.5058,2.3825,2.3247,0.0,0.0,0.0,0.0,0.0,0.0,0.0,2.2342,2.2475,2.2557,2.4238,2.5447,2.6496,2.7719,3.0023,0.0,0.0,3.4404,3.5397,3.5566,3.56,3.56,3.56,3.56,3.56,3.56,3.6129,3.6609,3.6778,3.7889,3.8819,3.8971,3.9639,4.0096,4.0096,4.0096,4.0096,4.0096,4.0096,4.0096,4.0096,4.0096,4.0096,4.0096,4.0204,4.0229,4.0096,4.075,4.1041,4.0903,4.1041,4.1041,4.0903,4.0473,4.0204,4.0096,4.0514,4.1366,4.2532,4.3322,4.4012,4.4615,4.4615,4.4615,4.4615,4.4615,4.4615,4.4615,4.4615,4.4615,4.4615,0.0,0.0,0.0,0.0,0.0,0.0,0.0,0.0,0.0,0.0,0.0,0.0,0.0,0.0,0.0,0.0,0.0,0.0,0.0,0.0,0.0,2.4396,2.5036,2.5718,2.6472,2.4836,2.3966,2.3966,2.4729,2.5101,0.0,2.7774,2.879,2.8416,2.9178,2.8966,2.7937,2.693,2.6034,2.5221,2.4914,2.4504,2.3876,2.2831,2.2223,2.1807,2.0702,0.0,0.0,0.0,0.0,0.0,0.0,0.0,2.1593,2.3358,2.4431,2.5557,2.792,0.0,0.0,3.4015,0.0,3.56,3.56,3.56,3.56,3.56,3.56,3.56,3.56,3.5943,3.6468,3.7212,3.7973,3.8717,3.9436,3.9859,4.0096,4.0096,4.0096,4.0096,4.0096,4.0096,4.0096,4.0096,4.0096,4.0096,4.0096,4.0096,4.0096,4.0096,4.0368,4.0521,4.0521,4.0521,4.0521,4.0504,4.0229,4.0096,4.0113,4.0485,4.1035,4.183,4.2946,4.3656,4.4062,4.4445,4.4615,4.4615,4.4615,4.4615,4.4615,4.4615,4.4615,4.4615,0.0,0.0,0.0,0.0,0.0,0.0,0.0,0.0,0.0,0.0,0.0,0.0,0.0,0.0,0.0,0.0,0.0,0.0,0.0,0.0,0.0,0.0,2.4893,2.5126,2.5406,2.4086,2.3393,2.3393,2.3393,0.0,0.0,0.0,0.0,2.9027,2.9542,2.9128,2.7946,2.6899,2.5593,2.4203,2.4014,2.3371,2.2448,2.1784,2.1186,2.0655,2.0314,1.9982,1.9747,2.0072,0.0,0.0,0.0,0.0,2.0562,2.2459,2.3416,2.4589,2.7921,0.0,3.207,3.489,3.56,0.0,3.56,3.56,3.56,3.56,3.56,3.56,3.56,3.5701,3.6208,3.7499,3.7821,3.8328,3.9554,3.9723,3.9723,3.9723,3.9723,3.9723,3.9723,3.9723,3.9723,3.9723,3.9842,3.991,3.991,4.0028,4.0096,4.0096,4.0096,4.0096,4.0096,4.0096,4.0096,4.0096,4.0096,4.0096,4.013,4.073,4.1085,4.1288,4.2615,4.3274,4.3443,4.4265,4.4615,4.4615,4.4615,4.4615,4.4615,4.4615,4.4615,4.4615,0.0,0.0,0.0,0.0,0.0,0.0,0.0,0.0,0.0,0.0,0.0,0.0,0.0,0.0,0.0,0.0,0.0,0.0,0.0,0.0,0.0,0.0,2.4243,2.4603,2.4643,2.3831,2.3393,2.3393,0.0,0.0,0.0,0.0,0.0,2.8975,0.0,2.7987,2.7095,2.4859,2.3741,2.344,2.2464,2.1969,2.1754,2.1096,2.0778,2.0617,2.0002,1.9747,1.9708,1.9764,1.9747,0.0,0.0,0.0,2.0114,2.1766,2.2915,2.4068,0.0,0.0,3.2716,0.0,3.56,3.56,0.0,0.0,3.56,0.0,3.56,3.56,3.56,3.6163,3.6711,3.6914,3.7483,3.7973,3.8176,3.8193,3.8193,3.8193,3.8193,3.8193,3.8193,3.8193,3.8193,3.8193,3.8785,3.914,3.914,3.9757,4.0096,4.0096,4.0096,4.0096,4.0096,4.0096,4.0096,4.0096,4.0096,4.0096,4.0096,4.0197,4.0595,4.1255,4.2083,4.2811,4.3443,4.4265,4.4615,4.4615,4.4615,4.4615,4.4615,4.4615,4.4615,4.4615,0.0,0.0,0.0,0.0,0.0,0.0,0.0,0.0,0.0,0.0,0.0,0.0,0.0,0.0,0.0,0.0,0.0,0.0,0.0,0.0,0.0,0.0,2.3408,2.346,2.3881,2.3156,2.2784,2.2784,0.0,0.0,0.0,2.6877,2.8044,0.0,0.0,0.0,0.0,2.4508,2.326,2.293,2.2049,2.1939,2.2194,2.1515,2.1261,2.1171,2.0498,2.0019,1.9708,1.9708,1.9708,1.9729,1.9909,0.0,0.0,0.0,2.1546,0.0,2.6937,3.0155,3.2969,0.0,3.56,3.56,3.56,0.0,3.56,3.56,3.56,3.56,3.56,3.5893,3.6282,3.6728,3.7083,3.7432,3.7838,3.7905,3.7905,3.7905,3.7905,3.7905,3.7905,3.7905,3.7905,3.7905,3.821,3.8379,3.8379,3.8684,3.9056,3.9462,3.9486,3.969,4.0096,4.0096,4.0096,4.0096,4.0096,4.0096,4.0096,4.0096,4.0282,4.0612,4.1356,4.21,4.2844,4.3606,4.4181,4.4615,4.4615,4.4615,4.4615,4.4615,4.4615,4.4615,0.0,0.0,0.0,0.0,0.0,0.0,0.0,0.0,0.0,0.0,0.0,0.0,0.0,0.0,0.0,0.0,0.0,0.0,0.0,0.0,0.0,0.0,0.0,2.2564,2.3105,2.2581,2.2296,0.0,0.0,0.0,2.6691,2.6724,2.7982,0.0,2.8827,0.0,0.0,0.0,0.0,0.0,2.2164,2.2164,2.2433,2.2248,2.2293,2.2338,2.15,2.0976,2.0621,2.0109,1.9944,1.9914,1.9753,1.9708,0.0,0.0,0.0,0.0,0.0,0.0,3.161,3.4181,3.4964,3.5189,0.0,0.0,3.56,0.0,3.56,3.56,3.56,3.56,3.5785,3.64,3.6485,3.6688,3.7246,3.733,3.733,3.733,3.733,3.733,3.733,3.733,3.733,3.733,3.7499,3.7618,3.7618,3.7804,3.8159,3.87,3.8717,3.9056,3.9808,4.0011,4.0096,4.0096,4.0096,4.0096,4.0096,4.0096,4.0096,4.0146,4.0882,4.1508,4.2083,4.3031,4.3758,4.4316,4.453,4.4615,4.4615,4.4615,4.4615,4.4615,0.0,0.0,0.0,0.0,0.0,0.0,0.0,0.0,0.0,0.0,0.0,0.0,0.0,0.0,2.1426,2.1483,0.0,0.0,0.0,0.0,0.0,0.0,0.0,0.0,2.2347,2.2313,0.0,0.0,0.0,0.0,2.6708,2.6836,2.8096,3.0231,2.8957,2.7322,2.5437,0.0,0.0,0.0,0.0,0.0,0.0,0.0,2.3909,0.0,0.0,0.0,0.0,0.0,0.0,0.0,0.0,1.9708,1.9708,0.0,0.0,0.0,0.0,2.6243,0.0,3.1742,0.0,0.0,0.0,0.0,3.56,3.56,3.56,3.56,3.56,3.56,3.5616,3.565,3.565,3.5667,3.5701,3.5718,3.5718,3.5718,3.5718,3.5718,3.5718,3.5718,3.5718,3.5718,3.6417,3.6863,3.6863,3.7516,3.7922,3.7973,3.7973,3.8311,3.9039,3.9757,4.0096,4.0096,4.0096,4.0096,4.0096,4.0096,4.0096,4.0146,4.0882,4.1221,4.1373,4.2801,4.3409,4.3527,4.4282,4.4615,4.4615,4.4615,4.4615,4.4615,0.0,0.0,0.0,0.0,0.0,0.0,0.0,0.0,0.0,0.0,0.0,0.0,0.0,2.1054,2.1489,2.1969,2.2431,0.0,0.0,0.0,0.0,0.0,0.0,0.0,0.0,0.0,0.0,0.0,0.0,2.3647,2.5478,2.5517,2.6146,2.7227,2.7204,2.6792,2.5964,2.3903,0.0,0.0,0.0,0.0,0.0,0.0,0.0,0.0,0.0,0.0,0.0,0.0,0.0,0.0,0.0,0.0,0.0,0.0,0.0,0.0,0.0,0.0,0.0,2.9491,3.1215,3.2438,3.291,3.3695,3.4447,3.4871,3.4965,3.5098,3.5515,3.56,3.56,3.56,3.56,3.56,3.56,3.56,3.56,3.56,3.56,3.56,3.56,3.56,3.56,3.56,3.5876,3.6028,3.6028,3.6299,3.6671,3.7161,3.7178,3.7533,3.8294,3.9022,3.9402,3.9394,3.9876,4.0096,4.0096,4.0096,4.0096,4.0113,4.0383,4.0747,4.1238,4.1779,4.2269,4.2777,4.3538,4.3826,4.3893,4.4429,4.4615,4.4615,0.0,0.0,0.0,0.0,0.0,0.0,0.0,0.0,0.0,0.0,0.0,0.0,0.0,0.0,2.1807,2.2375,2.2599,2.2621,2.2453,2.2599,0.0,0.0,0.0,0.0,0.0,2.2296,0.0,0.0,0.0,0.0,0.0,2.4875,2.523,2.5833,2.5617,2.5652,0.0,0.0,0.0,2.3999,0.0,0.0,2.6303,0.0,0.0,0.0,0.0,0.0,0.0,0.0,0.0,0.0,0.0,0.0,0.0,0.0,0.0,0.0,2.2455,0.0,0.0,0.0,0.0,3.0545,3.1678,0.0,3.3247,3.4381,3.4431,3.4544,3.5447,3.5424,3.5339,3.556,3.56,3.56,3.56,3.56,3.56,3.56,3.56,3.56,3.56,3.56,3.56,3.56,3.56,3.56,3.56,3.56,3.5836,3.6366,3.666,3.7049,3.7533,3.8497,3.8988,3.9005,3.9757,4.0096,4.0096,4.0096,4.0096,4.0096,4.0096,4.0383,4.0849,4.1102,4.1491,4.1999,4.2743,4.32,4.3443,4.3995,4.4378,4.4615,0.0,0.0,0.0,0.0,0.0,0.0,0.0,0.0,0.0,0.0,0.0,0.0,0.0,0.0,0.0,2.2691,2.2717,2.2717,2.2682,2.2682,0.0,0.0,0.0,0.0,0.0,2.2296,2.2296,2.2296,2.3021,0.0,0.0,0.0,2.551,2.6317,2.4433,2.3947,2.4634,0.0,2.5794,2.4859,0.0,2.6841,2.6033,0.0,0.0,0.0,2.8667,2.8667,0.0,2.7126,0.0,0.0,0.0,0.0,0.0,0.0,0.0,0.0,0.0,0.0,0.0,0.0,0.0,0.0,3.1668,0.0,3.2104,3.4103,3.4021,3.3962,3.5293,3.5005,3.4783,3.5447,3.5577,3.5577,3.5577,3.5577,3.5577,3.5577,3.56,3.56,3.56,3.56,3.56,3.56,3.56,3.56,3.56,3.56,3.56,3.56,3.6349,3.6761,3.6761,3.8217,3.8937,3.8971,3.9723,4.0079,4.0096,4.0096,4.0096,4.0096,4.0096,4.0096,4.0163,4.0865,4.117,4.1238,4.1965,4.2709,4.3325,4.3341,4.3876,4.4564,0.0,0.0,0.0,0.0,0.0,0.0,0.0,0.0,0.0,0.0,0.0,0.0,0.0,0.0,2.3132,2.3198,2.3213,2.2991,2.2446,2.2398,2.2374,2.231,2.2296,2.2296,2.2296,2.2296,2.2296,2.2296,2.2499,2.2903,2.3496,2.356,2.3643,0.0,2.3651,2.346,2.3236,2.3631,0.0,0.0,2.7375,2.8229,0.0,0.0,0.0,0.0,0.0,2.9983,2.9849,0.0,2.8139,2.6896,0.0,0.0,0.0,0.0,0.0,0.0,2.156,0.0,0.0,0.0,0.0,0.0,0.0,0.0,3.0597,3.2112,3.2667,3.3145,3.4003,3.3987,3.3937,3.4112,3.4568,3.4894,3.4894,3.4894,3.4894,3.4894,3.5299,3.56,3.56,3.56,3.56,3.56,3.56,3.56,3.56,3.56,3.56,3.56,3.5802,3.5943,3.5943,3.6907,3.7669,3.821,3.8937,3.9588,4.0096,4.0096,4.0096,4.0096,4.0096,4.0096,4.013,4.0333,4.0417,4.0485,4.1221,4.1644,4.188,4.2405,4.3081,4.3741,0.0,0.0,0.0,0.0,0.0,0.0,0.0,0.0,0.0,0.0,0.0,0.0,0.0,0.0,2.3864,2.3864,2.3864,2.3545,2.2818,2.2767,2.2617,2.2313,2.2584,2.2767,2.2767,2.2767,2.2767,2.2767,2.224,2.2207,2.2582,2.2372,2.2288,2.2298,0.0,0.0,0.0,0.0,0.0,0.0,2.7989,0.0,0.0,3.0627,3.0823,0.0,0.0,0.0,3.0492,3.0417,2.9325,0.0,0.0,0.0,0.0,0.0,0.0,0.0,0.0,0.0,0.0,0.0,0.0,0.0,0.0,0.0,0.0,0.0,3.2078,3.2449,3.3401,3.3365,3.3261,3.3556,3.3684,3.3862,3.4137,3.4186,3.4186,3.4186,3.4759,3.5168,3.5168,3.5447,3.56,3.56,3.5339,3.5052,3.4776,3.4752,3.4752,3.4752,3.4752,3.4752,3.4752,3.5537,3.6281,3.6999,3.7727,3.8441,3.9133,3.9476,3.961,3.961,3.9952,4.0096,4.0096,4.0096,4.0096,4.0146,4.0561,4.0933,4.1255,4.1677,4.2303,4.2946,0.0,0.0,0.0,0.0,0.0,0.0,0.0,0.0,0.0,0.0,0.0,0.0,0.0,0.0,0.0,0.0,2.4626,2.4271,2.3444,2.3393,2.3071,2.233,2.3004,2.3393,2.3393,2.3477,2.3463,2.3317,2.2255,2.1792,2.1912,2.1497,2.143,2.1695,0.0,0.0,0.0,0.0,0.0,2.5929,2.8382,2.9146,0.0,0.0,3.0806,2.9953,3.1092,3.1122,3.0702,3.1212,3.018,0.0,0.0,0.0,0.0,0.0,2.3415,0.0,0.0,0.0,0.0,0.0,0.0,0.0,0.0,0.0,0.0,0.0,3.1465,3.1455,3.2682,3.2515,3.2353,3.2938,3.2676,3.2629,3.3375,3.3495,3.3495,3.3495,3.4087,3.4528,3.4576,3.5138,3.5492,3.5492,3.4871,3.4235,3.3633,3.3582,3.3582,3.3582,3.3582,3.3582,3.3582,3.4248,3.4914,3.5596,3.6335,3.7041,3.7711,3.8444,3.8772,3.8827,3.961,3.9969,3.9978,4.007,4.0096,4.0096,4.0096,4.0519,4.1085,4.1085,4.1542,4.2168,0.0,0.0,0.0,0.0,0.0,0.0,0.0,0.0,0.0,0.0,0.0,0.0,0.0,0.0,0.0,0.0,2.5389,2.4814,2.3477,2.3393,2.3071,2.233,2.3004,2.3393,2.3393,2.3983,2.3814,2.2855,2.2597,2.2118,2.1428,2.1339,2.143,2.1695,2.1695,0.0,0.0,0.0,0.0,2.6497,2.757,0.0,3.0238,3.1152,3.1346,3.1152,3.1406,3.1421,3.1241,3.0823,3.0118,2.9172,0.0,0.0,0.0,2.527,0.0,0.0,0.0,0.0,0.0,0.0,0.0,0.0,0.0,2.6108,2.698,0.0,2.8106,2.8426,2.8718,2.9111,2.9411,2.9553,3.034,3.1369,3.2602,3.2803,3.2803,3.2803,3.3391,3.4012,3.4552,3.4712,3.48,3.48,3.4161,3.3735,3.3608,3.3582,3.3582,3.3582,3.3582,3.3582,3.3582,3.3752,3.4182,3.489,3.5583,3.63,3.7028,3.7697,3.8007,3.8064,3.8816,3.9139,3.9166,3.9833,4.0096,4.0096,4.0096,4.0197,4.0316,4.0316,4.0781,4.1407,0.0,0.0,0.0,0.0,0.0,0.0,0.0,0.0,0.0,0.0,0.0,0.0,0.0,0.0,0.0,0.0,0.0,0.0,0.0,2.4137,2.3613,2.2885,2.3301,2.3546,2.3546,2.3719,2.3506,2.2898,2.1971,2.1255,2.0808,2.0944,2.1432,2.2209,2.2209,0.0,0.0,0.0,2.5367,2.6707,2.8064,0.0,3.0582,3.1241,3.1511,3.1511,3.1511,3.1511,3.1451,3.1107,3.0372,0.0,0.0,2.8378,2.7854,0.0,2.6811,2.738,0.0,0.0,0.0,2.5764,0.0,0.0,0.0,2.5869,2.6393,2.7395,2.76,2.7705,2.8049,2.8368,2.8607,2.8607,2.9669,3.0646,3.1046,3.1637,3.2064,3.2064,3.268,3.3235,3.3572,3.3912,3.3962,3.3633,3.3287,3.2933,3.2555,3.2555,3.2555,3.2555,3.2555,3.2555,3.2555,3.2555,3.2917,3.3655,3.3961,3.4659,3.5688,3.6369,3.6888,3.7233,3.8019,3.8553,3.8935,3.9342,3.9756,4.0096,4.0096,4.0096,4.0096,4.0096,4.0333,4.0646,0.0,0.0,0.0,0.0,0.0,0.0,0.0,0.0,0.0,0.0,0.0,0.0,0.0,0.0,0.0,0.0,0.0,0.0,0.0,0.0,2.4452,2.3681,2.3736,2.3782,2.3782,2.3471,2.3147,2.2787,2.1391,2.0588,2.0391,2.0726,2.1605,2.2882,2.3017,0.0,0.0,0.0,0.0,2.7126,0.0,2.9804,3.0223,3.1002,3.1316,3.1316,3.1451,3.1511,3.1481,3.1346,3.0627,2.9714,2.946,2.919,0.0,0.0,0.0,0.0,0.0,0.0,0.0,0.0,0.0,2.5989,0.0,0.0,0.0,2.75,2.7395,0.0,0.0,0.0,0.0,2.8023,0.0,0.0,0.0,3.0133,0.0,3.1122,3.1883,3.2376,3.2416,3.2762,3.2898,3.2625,3.2245,3.1873,3.1509,3.1511,3.1511,3.1511,3.1511,3.1511,3.1511,3.1511,3.1796,3.2398,3.2475,3.3079,3.4154,3.4999,3.5691,3.6245,3.7156,3.7905,3.8481,3.8619,3.9076,3.9679,3.9978,4.0096,4.0096,4.0096,4.0096,4.0096,2.2327,2.3441,0.0,0.0,0.0,0.0,0.0,0.0,0.0,0.0,0.0,0.0,0.0,0.0,0.0,0.0,0.0,0.0,2.6674,0.0,0.0,2.459,2.4218,2.4049,2.4049,2.4069,2.3297,2.1668,2.1999,2.1645,2.0678,2.128,2.2263,2.352,2.4111,0.0,0.0,0.0,2.7679,0.0,2.9277,2.9307,0.0,3.0148,3.0612,3.0702,3.1286,3.1511,3.1406,0.0,3.0522,3.0193,0.0,2.9445,2.9924,2.8049,0.0,0.0,0.0,0.0,0.0,0.0,2.6542,0.0,0.0,0.0,2.4784,2.5008,0.0,0.0,0.0,0.0,0.0,0.0,0.0,0.0,2.7021,2.8083,2.9146,2.9744,3.0878,3.1639,3.1696,3.1244,3.141,3.2536,3.094,3.0408,3.1436,3.1511,3.1511,3.1511,3.1511,3.1511,3.1511,3.1511,3.1524,3.1611,3.2227,3.2572,3.2766,3.4043,3.4659,3.4827,3.6153,3.6783,3.6934,3.7616,3.7978,3.8206,3.9575,4.0096,4.0096,4.0096,4.0096,4.0096,2.2262,2.3477,0.0,0.0,0.0,0.0,0.0,0.0,0.0,0.0,0.0,0.0,0.0,0.0,0.0,0.0,0.0,2.8864,0.0,0.0,0.0,0.0,2.3882,2.3631,2.3631,2.3433,2.2955,2.2204,2.2063,2.1749,2.1291,2.1984,2.3182,2.4777,2.5038,0.0,2.7919,0.0,2.8338,0.0,0.0,0.0,0.0,3.0434,3.1077,3.1122,3.1406,3.1511,3.1466,0.0,3.0597,0.0,0.0,0.0,0.0,0.0,0.0,0.0,0.0,0.0,0.0,0.0,0.0,0.0,2.4605,0.0,2.4595,0.0,0.0,0.0,0.0,0.0,0.0,0.0,2.5495,0.0,0.0,0.0,2.7426,2.8842,2.9505,3.0108,3.0888,3.1068,3.1371,3.1905,3.1185,3.0928,3.1466,3.1511,3.1511,3.1511,3.1511,3.1511,3.1511,3.1511,3.1511,3.1511,3.1795,3.2108,3.2512,3.3484,3.4113,3.4548,3.5543,3.6196,3.6646,3.6964,3.7397,3.7863,3.8513,3.9022,3.9394,3.9394,3.9705,4.0096,0.0,0.0,0.0,0.0,0.0,0.0,0.0,0.0,0.0,0.0,0.0,0.0,3.0557,2.9972,0.0,0.0,3.0546,2.9686,0.0,0.0,2.611,0.0,0.0,0.0,0.0,2.3379,2.2868,2.2703,2.2224,2.2074,2.2233,2.2733,2.3894,2.563,0.0,2.7215,2.9052,0.0,2.9116,2.916,2.9639,2.9669,2.9535,3.0748,3.1346,3.1511,3.1511,3.1511,3.1466,3.1286,3.0612,2.9968,3.0746,3.0133,2.9175,0.0,0.0,0.0,2.8109,0.0,0.0,0.0,0.0,0.0,0.0,0.0,0.0,0.0,0.0,0.0,0.0,0.0,0.0,2.4212,0.0,2.4285,0.0,2.4439,0.0,0.0,2.7782,2.8477,2.9587,3.0142,3.0644,3.1182,3.1062,3.1122,3.1481,3.1511,3.1511,3.1511,3.1511,3.1511,3.1511,3.1511,3.1511,3.1511,3.1511,3.175,3.2243,3.311,3.3754,3.4279,3.513,3.5814,3.6306,3.6306,3.6631,3.7175,3.7175,3.7616,3.8314,3.8525,3.9102,3.9782,2.1039,2.1649,0.0,0.0,0.0,0.0,0.0,0.0,0.0,0.0,0.0,0.0,0.0,0.0,0.0,0.0,0.0,3.0835,3.0036,0.0,2.7855,0.0,0.0,2.5152,0.0,0.0,2.3302,2.2703,2.2673,2.2972,2.3535,2.3565,2.4298,2.5674,2.6971,2.7585,2.7779,2.9639,3.0447,3.0447,3.0462,3.0866,3.1346,0.0,3.0913,3.1511,3.1511,0.0,3.1406,3.0761,3.0507,3.0372,2.9819,3.0013,0.0,0.0,0.0,0.0,0.0,0.0,0.0,2.6288,0.0,0.0,0.0,0.0,2.556,0.0,0.0,0.0,0.0,0.0,0.0,2.3711,2.3642,0.0,0.0,0.0,0.0,0.0,0.0,0.0,2.7621,2.7713,2.8513,3.0387,2.9983,3.0193,3.1436,3.1511,3.1511,3.1511,3.1511,3.1511,3.1511,3.1511,3.1511,3.1511,3.1511,3.1511,3.1585,3.2901,3.3499,3.3604,3.4936,3.5504,3.5537,3.5537,3.5569,3.5554,3.5554,3.6038,3.6752,3.7544,3.8302,3.8935,0.0,0.0,0.0,0.0,0.0,0.0,0.0,2.683,0.0,0.0,0.0,0.0,0.0,3.1641,3.2133,0.0,0.0,3.2706,3.1133,3.0049,0.0,0.0,0.0,2.6588,0.0,0.0,0.0,2.4612,2.4612,2.4717,2.4926,2.4926,2.5405,2.6303,2.721,2.8094,0.0,0.0,0.0,0.0,0.0,3.1555,3.2123,0.0,3.1944,3.2213,3.2677,3.2826,3.2796,3.2557,3.2198,3.1884,3.2108,3.1719,3.1197,3.145,3.1046,3.0417,2.9983,3.0013,2.9669,2.748,2.7425,0.0,0.0,0.0,0.0,0.0,0.0,0.0,0.0,0.0,2.3155,2.3543,2.251,2.155,0.0,2.1258,2.1381,0.0,0.0,0.0,0.0,2.7494,2.8714,2.9806,3.0507,3.1032,3.1481,3.1511,3.1511,3.1511,3.1511,3.1511,3.1511,3.1511,3.1511,3.1511,3.1511,3.1511,3.1525,3.2437,3.308,3.3544,3.4442,3.5085,3.5504,3.5504,3.5504,3.5504,3.5504,3.5636,3.5943,3.6722,3.7803,3.8962,2.1695,0.0,0.0,0.0,0.0,0.0,0.0,0.0,0.0,0.0,2.9603,0.0,3.1794,0.0,3.2861,0.0,3.3801,3.3206,3.1891,3.0776,0.0,2.9619,2.8555,0.0,0.0,0.0,0.0,0.0,2.6078,2.5959,2.5959,2.5719,2.5959,2.6641,2.73,2.8214,2.928,3.0133,3.0642,0.0,0.0,3.2243,0.0,0.0,3.3066,3.2916,3.3335,3.3499,3.3499,3.3499,3.3215,3.2931,3.3365,3.2916,3.2288,3.2736,3.2243,3.1509,3.1285,3.1046,3.0447,2.8753,2.8468,2.8203,2.6662,0.0,2.6804,0.0,0.0,0.0,0.0,0.0,2.2898,2.3486,2.1955,2.0649,0.0,2.0411,0.0,0.0,0.0,0.0,0.0,2.6251,2.7705,2.9777,3.0268,3.0763,3.1466,3.1511,3.1511,3.1511,3.1511,3.1511,3.1511,3.1511,3.1511,3.1511,3.1511,3.1511,3.1525,3.2183,3.2871,3.3529,3.4219,3.4861,3.5504,3.5504,3.5504,3.5504,3.5504,3.5504,3.5554,3.6023,3.7174,3.8608,0.0,0.0,0.0,0.0,2.3476,0.0,0.0,0.0,2.8638,0.0,3.0394,3.1906,3.2523,3.2568,3.3084,3.4385,3.325,3.2452,3.2452,3.0703,0.0,0.0,2.9715,2.9271,3.0485,0.0,0.0,0.0,0.0,2.6617,2.6572,2.5989,2.6004,2.6572,2.7285,0.0,2.8682,2.9939,3.0896,3.1615,3.2303,3.2976,3.3619,3.4309,3.4143,3.3589,3.3589,3.3589,3.3589,3.3589,3.3589,3.3589,3.3589,3.3589,3.3589,3.3589,3.3574,3.341,3.2781,3.2108,3.1301,3.0043,2.925,2.8607,2.7899,2.8222,2.8459,0.0,0.0,0.0,0.0,0.0,0.0,2.3591,2.1961,0.0,0.0,0.0,1.9849,0.0,0.0,0.0,0.0,2.406,2.5598,2.9946,2.9212,2.9463,0.0,3.1407,3.1407,3.1511,3.1511,3.1511,3.1511,3.1511,3.1511,3.1511,3.1511,3.1511,3.1525,3.2183,3.2871,3.3529,3.4219,3.4861,3.5504,3.5504,3.5504,3.5504,3.5504,3.5504,3.5504,3.5537,3.6523,3.7908,2.3206,2.3655,2.4096,0.0,2.4287,2.4942,0.0,0.0,0.0,0.0,3.1718,3.321,3.39,3.3532,3.3608,3.4499,3.3787,0.0,0.0,0.0,0.0,3.2284,3.1311,3.0668,3.0485,2.9748,0.0,2.8338,0.0,2.7091,2.6602,2.6941,2.6632,2.5914,2.7091,2.7974,2.8652,2.9475,3.0761,3.2333,3.3514,3.4099,3.4339,3.4981,3.513,3.4996,3.4996,3.4996,3.4996,3.4996,3.4996,3.4996,3.4996,3.4996,3.4996,3.4996,3.4622,3.4219,3.4023,3.3499,3.2796,3.1973,3.1629,3.1195,3.0013,2.9805,2.9552,2.8395,2.8081,2.7918,2.7527,2.5973,2.4485,0.0,0.0,0.0,0.0,0.0,0.0,2.0465,0.0,0.0,2.1271,2.3624,2.5688,2.6912,2.801,2.9468,3.1392,3.0115,3.0012,3.1437,3.1511,3.1511,3.1511,3.1511,3.1511,3.1511,3.1511,3.1511,3.1525,3.2183,3.2871,3.3529,3.4219,3.4861,3.5504,3.5504,3.5504,3.5504,3.5504,3.5504,3.5569,3.6117,3.695,3.7908,2.4036,0.0,0.0,2.5457,0.0,0.0,2.7309,2.8895,0.0,3.0854,3.2432,0.0,3.3614,3.3588,3.3714,3.4129,3.3547,0.0,3.3172,0.0,0.0,3.212,3.171,3.1316,3.0943,3.0612,0.0,2.9026,0.0,2.7555,2.6602,2.7001,2.6587,2.5674,0.0,2.7974,2.8697,3.0223,3.1674,3.3036,3.4099,3.4698,0.0,3.5355,3.5504,3.5504,3.5504,3.5504,3.5504,3.5504,3.5504,3.5504,3.5504,3.5504,3.5504,3.5504,3.5235,3.4921,3.4921,3.4442,3.3844,3.3469,3.3155,3.2662,3.1614,3.1309,3.0969,2.9971,2.9465,2.9203,2.9241,2.7385,2.5177,0.0,0.0,0.0,0.0,0.0,0.0,0.0,2.1234,0.0,1.971,2.3252,2.568,2.5752,2.6942,2.8314,2.9715,2.9259,2.9592,3.1032,3.1346,3.1511,3.1511,3.1511,3.1511,3.1511,3.1511,3.1511,3.1525,3.2183,3.2871,3.3529,3.4219,3.4861,3.5504,3.5504,3.5504,3.5504,3.5504,3.5504,3.5554,3.5975,3.6814,3.7908,2.4634,0.0,0.0,0.0,0.0,0.0,0.0,2.9912,0.0,3.1428,0.0,3.3358,3.2716,3.3128,3.3469,3.3469,0.0,3.2465,3.2465,3.1853,3.1511,3.1511,3.1511,3.1511,3.1511,3.1406,3.0806,0.0,0.0,2.7769,2.6467,2.6467,2.6108,2.554,0.0,0.0,0.0,3.1465,3.2946,3.3679,3.4337,3.4966,3.5504,3.5504,3.5504,3.5504,3.5504,3.5504,3.5504,3.5504,3.5504,3.5504,3.5504,3.5504,3.5504,3.5504,3.5504,3.5504,3.5504,3.507,3.4638,3.4638,3.4188,3.3589,3.2916,3.2766,3.2557,3.1899,3.1315,3.1031,3.1421,2.8895,2.5773,0.0,0.0,0.0,0.0,0.0,0.0,0.0,0.0,0.0,1.9484,2.2967,2.5299,2.5214,2.5703,2.6519,2.7681,2.8496,2.9448,3.0599,3.1197,3.1511,3.1511,3.1511,3.1511,3.1511,3.1511,3.1511,3.1525,3.2273,3.2961,3.3529,3.4277,3.4951,3.5504,3.5504,3.5504,3.5504,3.5504,3.5504,3.5537,3.5733,3.6662,3.7892,0.0,0.0,0.0,0.0,0.0,2.9652,3.0881,3.0819,3.0855,3.1483,3.2754,3.3534,3.3422,3.3014,3.2776,3.2776,3.2104,0.0,0.0,0.0,0.0,3.1511,3.1511,3.1511,3.1511,3.0943,3.0313,0.0,2.8378,2.7106,2.5779,2.5779,2.5435,2.4829,0.0,0.0,3.0268,3.1854,0.0,3.4399,3.504,3.54,3.5504,3.5504,3.5504,3.5504,3.5504,3.5504,3.5504,3.5504,3.5504,3.5504,3.5504,3.5504,3.5504,3.5504,3.5504,3.5504,3.5504,3.5415,3.5325,3.5325,3.5235,3.4981,3.4277,3.4159,3.3948,3.329,3.3066,3.2677,3.1675,2.9263,2.7021,0.0,0.0,0.0,0.0,0.0,0.0,0.0,0.0,2.4354,0.0,2.2844,0.0,2.2638,2.3095,2.4898,2.8249,2.7086,2.7894,3.1228,3.1436,3.1511,3.1511,3.1511,3.1511,3.1511,3.1511,3.1511,3.154,3.2781,3.338,3.3559,3.4786,3.5385,3.5504,3.5504,3.5504,3.5504,3.5504,3.5504,3.5651,3.692,3.756,3.7822,0.0,0.0,0.0,0.0,0.0,0.0,0.0,3.1031,3.1331,3.2033,3.2342,3.2516,3.2516,3.2201,3.2035,3.2035,3.1682,3.1511,3.1511,3.1511,3.1511,3.1511,3.1511,3.1511,3.1511,3.1182,3.0552,2.9606,2.8618,2.7245,2.5615,2.5615,2.5232,2.4709,0.0,2.9026,0.0,0.0,3.3903,3.4563,3.5235,3.5504,3.5504,3.5504,3.5504,3.5504,3.5504,3.5504,3.5504,3.5504,3.5504,3.5504,3.5504,3.5504,3.5504,3.5504,3.5504,3.5504,3.5504,3.5504,3.5504,3.5504,3.5504,3.5415,3.5085,3.5011,3.4816,3.4174,3.4039,3.3499,3.1809,3.018,2.8642,2.7242,2.7016,0.0,0.0,0.0,0.0,0.0,0.0,0.0,0.0,0.0,0.0,0.0,0.0,2.4641,2.7916,2.6819,2.7611,3.0884,3.1316,3.1511,3.1511,3.1511,3.1511,3.1511,3.1511,3.169,3.2049,3.3051,3.3679,3.4053,3.507,3.5504,3.5504,3.5504,3.5504,3.5504,3.5504,3.5504,3.5651,3.6753,3.7456,3.7892,0.0,2.946,0.0,0.0,3.0298,3.0717,3.0717,3.1152,3.1726,3.2299,3.1853,3.1511,3.1511,3.1511,3.1511,3.1511,3.163,3.1705,3.1705,3.1854,3.1854,3.172,3.1705,3.1645,3.1511,3.1511,3.0928,0.0,0.0,2.7724,2.6019,2.5734,2.5555,2.5561,2.8353,3.0163,3.1285,3.338,3.4459,3.4773,3.5295,3.5504,3.5504,3.5504,3.5504,3.5504,3.5504,3.5504,3.5504,3.5504,3.5504,3.5504,3.5504,3.5504,3.5504,3.5504,3.5504,3.5504,3.5504,3.5504,3.5504,3.5504,3.5504,3.5504,3.5504,3.5504,3.5355,3.4801,3.4608,3.3963,3.2228,3.139,3.0397,2.8699,2.8385,0.0,0.0,0.0,0.0,0.0,0.0,0.0,2.3768,2.3339,2.3177,2.3257,2.3353,2.4546,2.7075,2.675,2.7655,3.0195,3.0787,3.1055,3.1055,3.1363,3.1511,3.1511,3.1511,3.1854,3.2512,3.32,3.3858,3.4548,3.5205,3.5504,3.5504,3.5504,3.5504,3.5504,3.5504,3.5504,3.5619,3.6508,3.7249,3.8007,0.0,0.0,0.0,0.0,0.0,3.1406,3.1406,3.1466,3.1524,3.1582,3.1524,3.1511,3.1511,3.1511,3.1511,3.1511,3.2049,3.2392,3.2392,3.2976,3.3036,3.2422,3.2392,3.2108,3.1511,3.1511,3.1137,0.0,0.0,2.8188,2.739,2.6168,2.6542,2.8263,2.9175,3.0969,3.323,3.3484,3.4292,3.5415,3.5474,3.5504,3.5504,3.5504,3.5504,3.5504,3.5504,3.5504,3.5504,3.5504,3.5504,3.5504,3.5504,3.5504,3.5504,3.5504,3.5504,3.5504,3.5504,3.5504,3.5504,3.5504,3.5504,3.5504,3.5504,3.5504,3.5489,3.5429,3.4906,3.4279,3.3455,3.2766,3.2064,3.1245,3.114,3.1082,0.0,0.0,3.0578,2.9384,0.0,0.0,2.6441,2.5449,2.4886,2.4713,2.3566,2.3743,2.5755,2.626,2.7413,2.945,2.9552,2.961,2.961,3.0879,3.1511,3.1511,3.1511,3.1854,3.2512,3.32,3.3858,3.4548,3.5205,3.5504,3.5504,3.5504,3.5504,3.5504,3.5504,3.5504,3.5683,3.7145,3.7735,3.8007,0.0,0.0,0.0,0.0,0.0,3.1032,3.1436,3.1839,3.2093,3.2093,3.2093,3.2093,3.2093,3.2452,3.2706,3.2706,3.2961,3.3095,3.3095,3.335,3.338,3.311,3.3095,3.2976,3.2721,3.2317,3.1765,0.0,3.0193,2.8996,2.76,2.7884,2.8622,2.9804,3.127,3.2512,3.3544,3.4352,3.5011,3.5504,3.5504,3.5504,3.5504,3.5504,3.5504,3.5504,3.5504,3.5504,3.5504,3.5504,3.5504,3.5504,3.5504,3.5504,3.5504,3.5504,3.5504,3.5504,3.5504,3.5504,3.5504,3.5504,3.5504,3.5504,3.5504,3.5504,3.5504,3.5504,3.5295,3.4891,3.4203,3.3544,3.3021,3.2751,3.2019,3.1645,3.2034,0.0,0.0,3.0806,0.0,2.947,0.0,2.6665,2.5552,2.4666,2.3585,2.3647,2.5128,2.6329,2.7582,2.8871,3.0059,3.066,3.066,3.1217,3.1511,3.1511,3.1914,3.2437,3.3125,3.3784,3.4488,3.5115,3.5385,3.5504,3.5504,3.5504,3.5504,3.5504,3.5504,3.5504,3.5683,3.7235,3.7793,3.8007,3.1511,3.1122,3.0928,3.1421,3.1256,3.1255,3.172,3.2348,3.2796,3.2796,3.2976,3.3021,3.2826,3.3215,3.3499,3.3499,3.3664,3.3784,3.3784,3.3978,3.3993,3.3784,3.3784,0.0,3.3499,3.3036,3.2572,3.2079,3.1435,3.0387,2.9067,2.9804,3.0597,3.145,3.2871,3.3724,3.4143,3.51,3.5504,3.5504,3.5504,3.5504,3.5534,3.5729,3.5789,3.5818,3.5998,3.6073,3.6073,3.6073,3.6073,3.5998,3.5624,3.5504,3.5504,3.5504,3.5504,3.5504,3.5504,3.5504,3.5504,3.5504,3.5504,3.5504,3.5504,3.5504,3.5504,3.5504,3.5504,3.5355,3.4861,3.4233,3.3784,3.3784,3.2677,3.1959,3.2422,3.1914,0.0,3.1227,3.0806,3.0145,2.9267,2.7983,2.6733,2.5491,2.5038,2.507,2.5562,2.7073,2.8209,2.8827,3.0161,3.0879,3.0879,3.1275,3.1511,3.1511,3.2168,3.2856,3.3529,3.4382,3.504,3.5504,3.5504,3.5504,3.5504,3.5504,3.5504,3.5504,3.5504,3.5504,3.5683,3.7235,3.7793,3.8007,3.1511,3.1496,3.1496,3.1511,3.2034,3.2497,3.2497,3.3066,3.3484,3.3484,3.4038,3.4234,3.3559,3.3499,3.3499,3.3499,3.4114,3.4503,3.4503,3.51,3.5175,3.4533,3.4503,3.4189,3.3499,3.3484,3.3484,3.3469,3.2811,3.2452,3.2437,3.178,3.2183,3.3455,3.3484,3.4233,3.5489,3.5489,3.5504,3.5504,3.5504,3.5504,3.5579,3.6237,3.6477,3.6552,3.7165,3.7389,3.7389,3.7389,3.7389,3.7165,3.5908,3.5504,3.5504,3.5504,3.5504,3.5504,3.5504,3.5504,3.5504,3.5504,3.5504,3.5504,3.5504,3.5504,3.5504,3.5504,3.5504,3.5504,3.5489,3.4936,3.4503,3.4503,3.3365,3.2497,3.2512,3.1914,0.0,3.0597,3.0507,3.0492,3.0492,2.9739,0.0,0.0,2.8496,2.8439,2.7327,2.861,2.9392,2.9392,2.9392,2.945,2.945,3.082,3.1511,3.1511,3.2168,3.2856,3.3544,3.4876,3.5489,3.5504,3.5504,3.5504,3.5504,3.5504,3.5504,3.5504,3.5504,3.5504,3.5683,3.7235,3.7793,3.8007,3.1511,3.1869,3.2168,3.2168,3.2751,3.3185,3.3185,3.3739,3.4158,3.4158,3.4756,3.51,3.4891,3.4861,3.4861,3.4861,3.5055,3.5175,3.5175,3.5385,3.54,3.519,3.5175,3.507,3.4876,3.4412,3.4158,3.4158,3.3499,3.341,3.3844,3.3185,3.3589,3.4861,3.4861,3.51,3.5504,3.5504,3.5504,3.5549,3.5998,3.6178,3.6237,3.6881,3.712,3.715,3.7345,3.7404,3.7404,3.7404,3.7404,3.7345,3.6926,3.6806,3.6806,3.6806,3.6507,3.6178,3.6178,3.5848,3.5504,3.5504,3.5504,3.5504,3.5504,3.5504,3.5504,3.5504,3.5504,3.5504,3.5504,3.5325,3.5175,3.5175,3.4427,3.3694,3.3245,3.2617,3.1929,3.1256,3.1182,3.1182,3.1182,3.0456,2.9477,2.8237,2.8797,2.8178,2.5784,2.844,2.9652,2.8871,3.0146,3.082,3.082,3.1275,3.1735,3.2183,3.2871,3.3769,3.4876,3.531,3.5504,3.5504,3.5504,3.5504,3.5504,3.5504,3.5504,3.5504,3.5504,3.5504,3.5683,3.7235,3.7793,3.8007,3.2243,3.2602,3.2886,3.2886,3.3425,3.3858,3.3858,3.4427,3.4861,3.4861,3.5235,3.5504,3.5504,3.5504,3.5504,3.5504,3.5504,3.5504,3.5504,3.5504,3.5504,3.5504,3.5504,3.5504,3.5504,3.5085,3.4861,3.4861,3.4457,3.4457,3.4861,3.4442,3.4696,3.5504,3.5504,3.5504,3.5504,3.5504,3.5654,3.5908,3.6327,3.6626,3.6911,3.7539,3.7778,3.7808,3.8078,3.8167,3.8167,3.8167,3.8167,3.8167,3.8167,3.8167,3.8063,3.7554,3.7135,3.6836,3.6836,3.6372,3.5878,3.5878,3.5684,3.5504,3.5504,3.5504,3.5504,3.5504,3.5504,3.5504,3.5504,3.5504,3.5504,3.5504,3.4921,3.4354,3.3918,3.308,3.2243,3.1585,3.1271,3.1122,3.1122,3.0674,3.0134,2.9564,2.9886,2.9333,2.7472,2.926,3.0177,2.9693,3.0862,3.1511,3.1511,3.175,3.2079,3.2497,3.3425,3.4442,3.5504,3.5504,3.5504,3.5504,3.5504,3.5504,3.5504,3.5504,3.5504,3.5504,3.5504,3.5504,3.5683,3.7235,3.7793,3.8007,3.3499,3.3529,3.3559,3.3559,3.4098,3.4578,3.4578,3.51,3.5504,3.5504,3.5504,3.5504,3.5504,3.5504,3.5504,3.5504,3.5504,3.5504,3.5504,3.5504,3.5504,3.5504,3.5504,3.5504,3.5504,3.5504,3.5504,3.5504,3.5504,3.5504,3.5504,3.5504,3.5504,3.5504,3.5504,3.5534,3.5579,3.5579,3.5953,3.6552,3.6596,3.6971,3.7539,3.8212,3.8467,3.8542,3.9185,3.9388,3.9388,3.9388,3.9388,3.9409,3.9481,3.9481,3.9227,3.7913,3.7524,3.7479,3.7479,3.703,3.6537,3.6492,3.5998,3.5504,3.5504,3.5504,3.5504,3.5504,3.5504,3.5504,3.5504,3.5504,3.5504,3.5504,3.4966,3.4563,3.4518,3.3425,3.2378,3.172,3.1061,3.0642,3.0642,3.0597,3.0806,3.1331,3.1406,3.1406,3.1376,3.0866,3.0866,3.1481,3.1555,3.157,3.157,3.2228,3.2602,3.2662,3.3948,3.4891,3.5504,3.5504,3.5504,3.5504,3.5504,3.5504,3.5504,3.5504,3.5504,3.5504,3.5504,3.5504,3.5683,3.7175,3.7748,3.8007,3.3499,3.3903,3.4279,3.4279,3.4816,3.5265,3.5265,3.54,3.5504,3.5504,3.5504,3.5504,3.5504,3.5504,3.5504,3.5504,3.5504,3.5504,3.5504,3.5504,3.5504,3.5504,3.5504,3.5504,3.5504,3.5504,3.5504,3.5504,3.5504,3.5504,3.5504,3.5504,3.5504,3.5504,3.5504,3.5789,3.6252,3.6252,3.6611,3.724,3.7734,3.8033,3.8227,3.8916,3.917,3.92,3.9328,3.9388,3.9388,3.9388,3.9388,3.9517,4.0185,4.0397,4.0213,3.9219,3.8571,3.8153,3.8153,3.7689,3.7075,3.6611,3.5998,3.5504,3.5504,3.5504,3.5504,3.5504,3.5504,3.5504,3.5504,3.5504,3.5504,3.5504,3.537,3.507,3.4578,3.4234,3.3769,3.311,3.2437,3.2048,3.2048,3.1555,3.0913,3.0103,3.0477,3.0537,3.0058,3.0808,3.1331,3.1496,3.1989,3.2243,3.2243,3.2931,3.3514,3.4054,3.4861,3.5355,3.5504,3.5504,3.5504,3.5504,3.5504,3.5504,3.5504,3.5504,3.5504,3.5504,3.5504,3.5504,3.5619,3.6538,3.7263,3.7921,3.4412,3.4696,3.4951,3.4951,3.525,3.5504,3.5504,3.5504,3.5504,3.5504,3.5504,3.5504,3.5504,3.5504,3.5504,3.5504,3.5504,3.5504,3.5504,3.5504,3.5504,3.5504,3.5504,3.5504,3.5504,3.5504,3.5504,3.5504,3.5504,3.5504,3.5504,3.5504,3.5504,3.5519,3.5818,3.6148,3.6507,3.6791,3.7285,3.7883,3.8242,3.8571,3.8901,3.9239,3.9388,3.9388,3.9388,3.9388,3.9388,3.9388,3.9388,3.9538,4.0432,4.069,4.069,4.0603,4.0048,3.9447,3.9447,3.8681,3.7644,3.6716,3.6222,3.5878,3.5579,3.5504,3.5504,3.5504,3.5504,3.5504,3.5504,3.5504,3.5504,3.5504,3.5235,3.5011,3.4966,3.4412,3.4008,3.3948,3.3365,3.2961,3.2961,3.2647,3.2138,3.142,3.1689,3.1734,3.139,3.2048,3.2258,3.1959,3.2617,3.2961,3.2961,3.3619,3.4277,3.4951,3.5325,3.5504,3.5504,3.5504,3.5504,3.5504,3.5504,3.5504,3.5504,3.5504,3.5504,3.5504,3.5504,3.5504,3.5651,3.6722,3.7427,3.795,3.5504,3.5504,3.5504,3.5504,3.5504,3.5504,3.5504,3.5504,3.5504,3.5504,3.5504,3.5504,3.5504,3.5504,3.5504,3.5504,3.5504,3.5504,3.5504,3.5504,3.5504,3.5504,3.5504,3.5504,3.5504,3.5504,3.5504,3.5504,3.5504,3.5504,3.5504,3.5609,3.5654,3.5684,3.6327,3.6686,3.6806,3.733,3.7943,3.8542,3.8542,3.8901,3.9388,3.9388,3.9388,3.9388,3.9388,3.9388,3.9388,3.9388,3.9388,3.9589,4.0569,4.0811,4.0878,4.1901,4.1478,4.069,4.069,3.9577,3.8108,3.6926,3.6552,3.6312,3.5654,3.5504,3.5504,3.5504,3.5504,3.5504,3.5504,3.5504,3.5429,3.5235,3.4876,3.4788,3.516,3.4397,3.4008,3.4593,3.4038,3.3649,3.3649,3.3559,3.3499,3.3499,3.3499,3.3499,3.3499,3.3589,3.338,3.2826,3.335,3.3694,3.3799,3.4494,3.5033,3.5504,3.5619,3.5619,3.5504,3.5504,3.5504,3.5504,3.5504,3.5504,3.5504,3.5504,3.5504,3.5504,3.5504,3.5554,3.5814,3.7145,3.7777,3.8149,3.5504,3.5504,3.5504,3.5504,3.5504,3.5504,3.5504,3.5504,3.5504,3.5504,3.5504,3.5504,3.5504,3.5504,3.5504,3.5504,3.5504,3.5504,3.5504,3.5504,3.5504,3.5504,3.5504,3.5504,3.5504,3.5504,3.5504,3.5504,3.5504,3.5504,3.5519,3.6073,3.6327,3.6357,3.6985,3.7569,3.8108,3.8197,3.8631,3.926,3.926,3.9334,3.9388,3.9388,3.9388,3.9388,3.9388,3.9388,3.9388,3.9388,3.9388,3.9681,4.128,4.128,4.1013,4.2614,4.1965,4.069,4.069,3.9577,3.8212,3.7449,3.6881,3.6312,3.5654,3.5504,3.5504,3.5504,3.5504,3.5504,3.5504,3.5504,3.513,3.3993,3.4666,3.4996,3.3963,3.4607,3.5235,3.5325,3.4741,3.4354,3.4354,3.3829,3.3499,3.3499,3.3499,3.3499,3.3499,3.4054,3.4309,3.4204,3.4294,3.4607,3.519,3.592,3.5995,3.5504,3.6134,3.6117,3.5504,3.5504,3.5504,3.5504,3.5504,3.5504,3.5504,3.5504,3.5504,3.5504,3.5504,3.5894,3.6477,3.6707,3.7629,3.8772,3.5504,3.5504,3.5504,3.5504,3.5504,3.5504,3.5504,3.5504,3.5504,3.5504,3.5504,3.5504,3.5504,3.5504,3.5504,3.5504,3.5504,3.5504,3.5504,3.5504,3.5504,3.5504,3.5504,3.5504,3.5504,3.5504,3.5684,3.6028,3.6028,3.6207,3.6537,3.6851,3.6985,3.7,3.7644,3.8108,3.8407,3.8796,3.9125,3.9388,3.9388,3.9388,3.9388,3.9388,3.9388,3.9388,3.9388,3.9388,3.9388,3.9388,3.9388,3.961,4.0894,4.1013,4.0946,4.2237,4.1707,4.0588,4.0115,3.9476,3.8691,3.7674,3.7195,3.6716,3.5729,3.5504,3.5504,3.5504,3.5504,3.5504,3.5504,3.5504,3.531,3.4681,3.4786,3.4861,3.4607,3.4801,3.51,3.5459,3.522,3.5026,3.5026,3.4756,3.4577,3.4577,3.4577,3.4577,3.4577,3.4861,3.5026,3.5026,3.5026,3.519,3.5504,3.5846,3.6023,3.6086,3.6023,3.6023,3.6086,3.5668,3.5504,3.5504,3.5504,3.5504,3.5504,3.5504,3.5504,3.5504,3.5504,3.5701,3.6117,3.6919,3.7703,3.843,3.5504,3.5504,3.5504,3.5504,3.5504,3.5504,3.5504,3.5504,3.5504,3.5504,3.5504,3.5504,3.5504,3.5504,3.5504,3.5504,3.5504,3.5504,3.5504,3.5504,3.5504,3.5504,3.5504,3.5579,3.5729,3.5729,3.6043,3.6701,3.6701,3.6941,3.7404,3.7569,3.7644,3.7659,3.8332,3.8631,3.8661,3.9185,3.9388,3.9388,3.9388,3.9388,3.9388,3.9388,3.9388,3.9388,3.9388,3.9388,3.9388,3.9388,3.9388,3.9538,4.0432,4.0554,4.0569,4.1445,4.108,4.0239,3.9574,3.9388,3.9059,3.7734,3.7404,3.7075,3.5789,3.5504,3.5504,3.5504,3.5504,3.5504,3.5504,3.5504,3.54,3.51,3.4861,3.4786,3.5011,3.4846,3.4906,3.5444,3.5504,3.5504,3.5504,3.5504,3.5504,3.5504,3.5504,3.5504,3.5504,3.5504,3.5504,3.5504,3.5504,3.5504,3.5504,3.5861,3.6212,3.6615,3.6212,3.6243,3.6584,3.5846,3.5504,3.5504,3.5504,3.5504,3.5504,3.5504,3.5504,3.5504,3.5504,3.5619,3.5894,3.7086,3.7632,3.7978,3.5504,3.5504,3.5504,3.5504,3.5504,3.5504,3.5504,3.5504,3.5504,3.5504,3.5504,3.5504,3.5504,3.5504,3.5504,3.5504,3.5504,3.5504,3.5504,3.5504,3.5504,3.5504,3.5504,3.5789,3.6402,3.6417,3.6716,3.7345,3.7345,3.736,3.7419,3.8033,3.8317,3.8347,3.9035,3.9349,3.9313,3.9394,3.9388,3.9388,3.9388,3.9388,3.9388,3.9388,3.9388,3.9388,3.9388,3.9388,3.9388,3.9388,3.9388,3.9538,4.0432,4.015,3.9681,4.0535,4.0185,3.9481,3.9409,3.9388,3.9059,3.7734,3.7404,3.7075,3.5789,3.5504,3.5504,3.5504,3.5504,3.5504,3.5504,3.5504,3.51,3.3844,3.4651,3.5011,3.3814,3.4681,3.5444,3.5489,3.5504,3.5504,3.5504,3.5504,3.5504,3.5504,3.5504,3.5504,3.5504,3.5504,3.5504,3.5504,3.5504,3.5504,3.5504,3.692,3.7279,3.6615,3.7308,3.7279,3.6584,3.5846,3.5504,3.5504,3.5504,3.5504,3.5504,3.5504,3.5504,3.5504,3.5504,3.5926,3.6523,3.6646,3.7144,3.7892,3.5504,3.5504,3.5504,3.5504,3.5504,3.5504,3.5504,3.5504,3.5654,3.6058,3.6118,3.6252,3.6641,3.6686,3.6686,3.6686,3.6686,3.6686,3.6686,3.6686,3.6507,3.6133,3.6118,3.6402,3.7045,3.706,3.7375,3.8018,3.8018,3.8242,3.8661,3.8916,3.9035,3.9035,3.9305,3.9388,3.9388,3.9388,3.9388,3.9388,3.9388,3.9388,3.9388,3.9388,3.9388,3.9388,3.9388,3.9388,3.9388,3.9388,3.9388,3.9445,3.9793,3.9681,3.9481,3.9793,3.9666,3.9388,3.9388,3.9388,3.9059,3.7734,3.7797,3.7682,3.5919,3.5863,3.6054,3.5587,3.5504,3.5504,3.5504,3.5504,3.534,3.4816,3.5175,3.5325,3.4816,3.519,3.5504,3.5504,3.5504,3.5504,3.5504,3.5504,3.5504,3.5504,3.5504,3.5504,3.5504,3.5504,3.5504,3.5504,3.5504,3.5733,3.6165,3.6305,3.6707,3.7338,3.6677,3.6446,3.6584,3.5846,3.5504,3.5504,3.5504,3.5504,3.5504,3.5504,3.5504,3.5504,3.5504,3.5668,3.5975,3.6446,3.6783,3.7233,3.5738,3.5968,3.6103,3.6103,3.6103,3.6103,3.6103,3.6103,3.6267,3.6716,3.6776,3.6941,3.736,3.7404,3.7404,3.7404,3.7404,3.7404,3.7404,3.7404,3.7225,3.6791,3.6776,3.706,3.7704,3.7719,3.8033,3.8706,3.8706,3.896,3.9388,3.9388,3.9388,3.9388,3.9388,3.9388,3.9388,3.9388,3.9388,3.9388,3.9388,3.9388,3.9388,3.9388,3.9388,3.9388,3.9388,3.9388,3.9388,3.9388,3.9388,3.9388,3.9388,3.9388,3.9388,3.9388,3.9574,3.9737,3.9481,3.9622,3.9535,3.8137,3.7864,3.7587,3.6152,3.6054,3.6117,3.5619,3.5504,3.5504,3.5504,3.5504,3.5504,3.5504,3.5504,3.5504,3.5504,3.5504,3.5504,3.5504,3.5504,3.5504,3.5504,3.5701,3.575,3.5537,3.5701,3.575,3.5504,3.5504,3.5504,3.5504,3.5504,3.5863,3.6569,3.6086,3.6384,3.7427,3.6352,3.6117,3.6584,3.5846,3.5504,3.5504,3.5504,3.5504,3.5504,3.5504,3.5504,3.5504,3.5504,3.5504,3.5554,3.6054,3.6244,3.6492,3.6294,3.6985,3.7404,3.7404,3.7404,3.7404,3.7404,3.7404,3.7404,3.7419,3.7419,3.7419,3.7419,3.7419,3.7419,3.7419,3.7419,3.7419,3.7419,3.7419,3.7419,3.7419,3.7419,3.7719,3.8377,3.8407,3.8736,3.9388,3.9388,3.9388,3.9388,3.9388,3.9388,3.9388,3.9388,3.9388,3.9388,3.9388,3.9388,3.9388,3.9388,3.9388,3.9388,3.9388,3.9388,3.9388,3.9388,3.9388,3.9388,3.9388,3.9388,3.9388,3.9388,3.9409,3.9424,3.9424,4.0025,4.0535,3.9646,4.0124,4.0515,3.8976,3.7545,3.6547,3.66,3.6023,3.5504,3.5504,3.5504,3.5504,3.5504,3.5504,3.5504,3.5504,3.5504,3.5504,3.5504,3.5504,3.5504,3.5504,3.5504,3.5504,3.5504,3.6165,3.6306,3.5554,3.6196,3.6275,3.5537,3.5504,3.5504,3.5504,3.5504,3.5831,3.6569,3.6569,3.6569,3.6615,3.6569,3.6569,3.6584,3.5846,3.5519,3.5519,3.5519,3.5519,3.5519,3.5519,3.5519,3.5519,3.5519,3.5519,3.5519,3.5519,3.5519,3.5716,3.6002,3.6773,3.7404,3.7404,3.7404,3.7404,3.7404,3.7404,3.7584,3.8033,3.8093,3.8272,3.8766,3.8811,3.8811,3.8811,3.8811,3.8811,3.8811,3.8811,3.8811,3.8811,3.8362,3.8422,3.9095,3.911,3.9215,3.9388,3.9388,3.9388,3.9388,3.9388,3.9388,3.9388,3.9388,3.9388,3.9388,3.9388,3.9388,3.9388,3.9388,3.9388,3.9388,3.9388,3.9388,3.9388,3.9388,3.9388,3.9388,3.9388,3.9388,3.9388,3.9388,3.9829,4.0309,4.0309,4.0927,4.1412,4.0569,3.9854,3.9232,3.8738,3.8355,3.784,3.6831,3.6446,3.6149,3.5619,3.5504,3.5504,3.5504,3.5504,3.5504,3.5504,3.5504,3.5504,3.5504,3.5504,3.5701,3.6228,3.5814,3.5941,3.7011,3.6798,3.6737,3.7101,3.6798,3.6275,3.5537,3.5504,3.5504,3.5504,3.5504,3.5619,3.5846,3.5831,3.6086,3.6569,3.6086,3.5831,3.5829,3.6099,3.6193,3.6222,3.6656,3.6836,3.6836,3.6836,3.6836,3.6836,3.6836,3.6836,3.6791,3.6357,3.6193,3.6366,3.5591,3.67,3.7552,3.7552,3.7901,3.8197,3.8197,3.8197,3.8347,3.8736,3.8796,3.896,3.9379,3.9388,3.9388,3.9388,3.9388,3.9388,3.9388,3.9388,3.9388,3.9388,3.902,3.899,3.9373,3.9388,3.9388,3.9388,3.9388,3.9388,3.9388,3.9388,3.9388,3.9388,3.9388,3.9388,3.9388,3.9388,3.9388,3.9388,3.9388,3.9388,3.9388,3.9388,3.9388,3.9388,3.9388,3.9388,3.9388,3.9388,3.9388,3.9388,3.9388,3.9773,4.0185,4.0185,4.0792,4.1313,4.0413,3.9699,3.9093,3.8708,3.8027,3.7343,3.6739,3.6353,3.6023,3.5587,3.5504,3.5504,3.5504,3.5504,3.5504,3.5504,3.5504,3.5504,3.5504,3.575,3.6117,3.6554,3.6196,3.629,3.7249,3.7174,3.7411,3.8161,3.695,3.6086,3.5943,3.5651,3.5504,3.5504,3.5504,3.5504,3.5504,3.5504,3.5718,3.6165,3.5701,3.5639,3.5908,3.6312,3.6626,3.6866,3.724,3.7404,3.7404,3.7404,3.7404,3.7404,3.7404,3.7404,3.736,3.6985,3.6851,3.6977,3.5075,3.6539,3.7677,3.7791,3.862,3.9265,3.9265,3.9337,3.9373,3.9265,3.9337,3.9388,3.9388,3.9388,3.9388,3.9388,3.9388,3.9388,3.9388,3.9388,3.9388,3.9388,3.9388,3.9388,3.9388,3.9388,3.9388,3.9388,3.9388,3.9388,3.9388,3.9388,3.9388,3.9388,3.9388,3.9388,3.9388,3.9388,3.9388,3.9388,3.9388,3.9388,3.9388,3.9388,3.9388,3.9388,3.9388,3.9388,3.9388,3.9388,3.9388,3.9388,3.9388,3.9445,3.9517,3.9517,4.0115,4.0638,3.9737,3.9694,3.9674,3.8801,3.7068,3.5776,3.6461,3.6023,3.5504,3.5504,3.5504,3.5504,3.5504,3.5504,3.5504,3.5504,3.5504,3.5504,3.5504,3.6086,3.6554,3.6691,3.663,3.6661,3.6783,3.7469,3.8149,3.8772,3.6935,3.6038,3.6584,3.5975,3.5554,3.5504,3.5504,3.5504,3.5504,3.5504,3.5504,3.5504,3.5564,3.5908,3.6492,3.6611,3.6971,3.7494,3.7554,3.7584,3.7584,3.7584,3.7584,3.7584,3.7584,3.7584,3.7584,3.7524,3.7494,3.7616,3.4792,3.5746,3.6813,3.7663,3.7994,3.8144,3.8144,3.887,3.9104,3.8271,3.887,3.9388,3.9388,3.9388,3.9388,3.9388,3.9388,3.9388,3.9388,3.9388,3.9388,3.9388,3.9388,3.9388,3.9388,3.9388,3.9388,3.9388,3.9388,3.9388,3.9388,3.9388,3.9388,3.9388,3.9388,3.9388,3.9388,3.9388,3.9388,3.9388,3.9388,3.9388,3.9388,3.9388,3.9388,3.9388,3.9388,3.9388,3.9388,3.9388,3.9388,3.9388,3.9388,3.9864,4.0432,4.0432,4.1062,4.1543,4.0656,4.0086,3.9534,3.8656,3.7346,3.6333,3.6538,3.6023,3.5504,3.5504,3.5504,3.5504,3.5504,3.5504,3.5504,3.5504,3.5504,3.5504,3.5504,3.5651,3.6196,3.7397,3.6964,3.7068,3.827,3.858,3.8497,3.8064,3.8133,3.7716,3.6661,3.6446,3.6086,3.5537,3.5504,3.5504,3.5504,3.5504,3.5504,3.5519,3.6028,3.6357,3.6522,3.7524,3.8048,3.8197,3.8751,3.899,3.899,3.899,3.899,3.899,3.899,3.899,3.8916,3.8377,3.8182,3.8321,3.3953,3.4774,3.5682,3.62,3.671,3.7021,3.7021,3.7942,3.8435,3.7866,3.8745,3.9388,3.9388,3.9388,3.9388,3.9388,3.9388,3.9388,3.9388,3.9388,3.9388,3.9388,3.9388,3.9388,3.9388,3.9388,3.9388,3.9388,3.9388,3.9388,3.9388,3.9388,3.9388,3.9388,3.9388,3.9388,3.9388,3.9388,3.9388,3.9388,3.9388,3.9388,3.9388,3.9388,3.9388,3.9388,3.9388,3.9388,3.9388,3.9388,3.9388,3.9388,3.9388,3.9702,4.008,4.008,4.0413,4.0672,4.0205,3.9577,3.8971,3.8517,3.7659,3.688,3.6598,3.6008,3.5504,3.5504,3.5504,3.5504,3.5504,3.5504,3.5504,3.5504,3.5504,3.5504,3.5504,3.5814,3.6321,3.713,3.7174,3.7629,3.8799,3.8241,3.8117,3.8859,3.823,3.7629,3.7203,3.6813,3.6244,3.5537,3.5504,3.5654,3.5968,3.5968,3.6118,3.6417,3.6462,3.6806,3.7419,3.8093,3.8571,3.8901,3.926,3.9388,3.9388,3.9388,3.9388,3.9388,3.9388,3.9388,3.9379,3.902,3.9124,3.9623,3.3124,3.3839,3.447,3.4664,3.54,3.5934,3.5934,3.6852,3.751,3.751,3.8457,3.9177,3.9388,3.9388,3.9388,3.9388,3.9388,3.9388,3.9388,3.9388,3.9388,3.9388,3.9388,3.9388,3.9388,3.9388,3.9301,3.9141,3.9301,3.9301,3.9141,3.9301,3.9388,3.9388,3.9388,3.9388,3.9388,3.9388,3.9388,3.9388,3.9388,3.9388,3.9388,3.9388,3.9388,3.9388,3.9388,3.9388,3.9388,3.9388,3.9388,3.9388,3.9388,3.9388,3.9388,3.9388,3.9388,3.9388,3.9388,3.899,3.8556,3.8556,3.8063,3.7449,3.6926,3.6312,3.5833,3.5833,3.5833,3.5833,3.5833,3.5744,3.5701,3.5849,3.5662,3.5522,3.5668,3.6228,3.6615,3.6615,3.7308,3.8092,3.8827,3.7729,3.7758,3.9558,3.8145,3.7365,3.7793,3.7174,3.6507,3.5899,3.5734,3.5983,3.6641,3.6641,3.6956,3.7569,3.706,3.7375,3.8392,3.8512,3.8871,3.9388,3.9388,3.9388,3.9388,3.9388,3.9388,3.9388,3.9388,3.9388,3.9388,3.9388,4.006,4.1013,3.3124,3.324,3.3598,3.4553,3.4815,3.4897,3.4897,3.5748,3.6408,3.6408,3.7343,3.8383,3.9301,3.9388,3.9388,3.9388,3.9388,3.9388,3.9388,3.9388,3.9388,3.9388,3.9388,3.9388,3.9388,3.9388,3.8943,3.8032,3.8943,3.8943,3.8032,3.898,3.9388,3.9388,3.9388,3.9388,3.9388,3.9388,3.9388,3.9388,3.9388,3.9388,3.9388,3.9388,3.9388,3.9388,3.9388,3.9388,3.9388,3.9388,3.9388,3.9388,3.9388,3.9388,3.9388,3.9388,3.9388,3.9388,3.9388,3.9313,3.9239,3.9239,3.8766,3.8227,3.8153,3.7629,3.715,3.715,3.715,3.715,3.715,3.6716,3.6577,3.7198,3.629,3.5733,3.6353,3.6523,3.6615,3.6615,3.7308,3.8092,3.8827,3.8701,3.8469,3.8121,3.9049,3.9102,3.7879,3.7706,3.7547,3.7325,3.6693,3.6656,3.7285,3.7285,3.7614,3.8257,3.8167,3.8227,3.8407,3.9005,3.9334,3.9388,3.9388,3.9388,3.9388,3.9388,3.9388,3.9388,3.9388,3.9388,3.9388,3.9388,4.0413,4.1836,3.3124,3.3124,3.324,3.3713,3.3797,3.3797,3.3797,3.4692,3.5359,3.5359,3.6802,3.7994,3.8472,3.9031,3.9388,3.9388,3.9388,3.9388,3.9388,3.9388,3.9141,3.8546,3.9068,3.8855,3.7648,3.8219,3.7715,3.6055,3.8308,3.887,3.7791,3.8271,3.8819,3.9373,3.8782,3.8819,3.9388,3.9388,3.9388,3.9388,3.9388,3.9388,3.9388,3.9388,3.9388,3.9388,3.9388,3.9388,3.9388,3.9388,3.9388,3.9388,3.9388,3.9388,3.9388,3.9388,3.9388,3.9388,3.9388,3.9388,3.9388,3.9388,3.9185,3.896,3.896,3.8736,3.8317,3.7554,3.7404,3.7404,3.7404,3.718,3.7273,3.8083,3.7691,3.7431,3.7834,3.7512,3.7219,3.7266,3.7962,3.8734,3.9489,3.9166,3.8951,3.9092,3.8914,3.8693,3.8382,3.7937,3.7623,3.7496,3.7173,3.73,3.7943,3.7958,3.8302,3.896,3.896,3.896,3.8975,3.929,3.9388,3.9388,3.9388,3.9388,3.9388,3.9388,3.9388,3.9388,3.9388,3.9388,3.9388,3.9388,4.0185,4.1346]}]]